<?xml version="1.0" encoding="UTF-8" standalone="no" ?>
<gpx xmlns="http://www.topografix.com/GPX/1/1" xmlns:xsi="http://www.w3.org/2001/XMLSchema-instance" xsi:schemaLocation="http://www.topografix.com/GPX/1/1 http://www.topografix.com/GPX/1/1/gpx.xsd" version="1.1" creator="VisuGPX - https://www.visugpx.com">
  <metadata>
    <name>Balade au pont de l'Endre</name>
    <desc><![CDATA[Petite sortie pleine de charme pour découvrir l'arrière pays de Frejus. Départ depuis Bagnols en Foret]]></desc>
  </metadata>
  <trk>
    <name><![CDATA[Pont de l'endre]]></name>
    <trkseg>
      <trkpt lat="43.54348" lon="6.70162">
        <ele>324.5822754</ele>
        <time>2010-06-26T05:12:00Z</time>
      </trkpt>
      <trkpt lat="43.54361" lon="6.70157">
        <ele>324.5822754</ele>
        <time>2010-06-26T05:12:08Z</time>
      </trkpt>
      <trkpt lat="43.544" lon="6.70084">
        <ele>323.1403809</ele>
        <time>2010-06-26T05:12:25Z</time>
      </trkpt>
      <trkpt lat="43.54406" lon="6.70068">
        <ele>322.1789551</ele>
        <time>2010-06-26T05:12:28Z</time>
      </trkpt>
      <trkpt lat="43.54423" lon="6.69952">
        <ele>319.2950439</ele>
        <time>2010-06-26T05:12:46Z</time>
      </trkpt>
      <trkpt lat="43.54416" lon="6.69862">
        <ele>317.8530273</ele>
        <time>2010-06-26T05:12:59Z</time>
      </trkpt>
      <trkpt lat="43.54393" lon="6.69779">
        <ele>317.3724365</ele>
        <time>2010-06-26T05:13:11Z</time>
      </trkpt>
      <trkpt lat="43.54371" lon="6.69741">
        <ele>313.0465088</ele>
        <time>2010-06-26T05:13:16Z</time>
      </trkpt>
      <trkpt lat="43.54366" lon="6.69733">
        <ele>312.5657959</ele>
        <time>2010-06-26T05:13:17Z</time>
      </trkpt>
      <trkpt lat="43.54348" lon="6.69686">
        <ele>308.720459</ele>
        <time>2010-06-26T05:13:21Z</time>
      </trkpt>
      <trkpt lat="43.54343" lon="6.6966">
        <ele>307.7592773</ele>
        <time>2010-06-26T05:13:23Z</time>
      </trkpt>
      <trkpt lat="43.54331" lon="6.69628">
        <ele>306.7978516</ele>
        <time>2010-06-26T05:13:27Z</time>
      </trkpt>
      <trkpt lat="43.54327" lon="6.69604">
        <ele>305.8366699</ele>
        <time>2010-06-26T05:13:31Z</time>
      </trkpt>
      <trkpt lat="43.54343" lon="6.69583">
        <ele>306.7978516</ele>
        <time>2010-06-26T05:13:40Z</time>
      </trkpt>
      <trkpt lat="43.5435" lon="6.69559">
        <ele>307.7592773</ele>
        <time>2010-06-26T05:13:52Z</time>
      </trkpt>
      <trkpt lat="43.54358" lon="6.69537">
        <ele>307.7592773</ele>
        <time>2010-06-26T05:14:01Z</time>
      </trkpt>
      <trkpt lat="43.54344" lon="6.69491">
        <ele>307.2785645</ele>
        <time>2010-06-26T05:14:14Z</time>
      </trkpt>
      <trkpt lat="43.54329" lon="6.69469">
        <ele>308.2398682</ele>
        <time>2010-06-26T05:14:22Z</time>
      </trkpt>
      <trkpt lat="43.54315" lon="6.69433">
        <ele>309.2011719</ele>
        <time>2010-06-26T05:14:33Z</time>
      </trkpt>
      <trkpt lat="43.54328" lon="6.69424">
        <ele>309.6818848</ele>
        <time>2010-06-26T05:14:39Z</time>
      </trkpt>
      <trkpt lat="43.54378" lon="6.6943">
        <ele>311.1237793</ele>
        <time>2010-06-26T05:14:57Z</time>
      </trkpt>
      <trkpt lat="43.54424" lon="6.69433">
        <ele>310.6430664</ele>
        <time>2010-06-26T05:15:12Z</time>
      </trkpt>
      <trkpt lat="43.54465" lon="6.69432">
        <ele>306.7978516</ele>
        <time>2010-06-26T05:15:22Z</time>
      </trkpt>
      <trkpt lat="43.54484" lon="6.69434">
        <ele>304.3946533</ele>
        <time>2010-06-26T05:15:26Z</time>
      </trkpt>
      <trkpt lat="43.54503" lon="6.69429">
        <ele>302.4719238</ele>
        <time>2010-06-26T05:15:30Z</time>
      </trkpt>
      <trkpt lat="43.54514" lon="6.69429">
        <ele>301.5106201</ele>
        <time>2010-06-26T05:15:32Z</time>
      </trkpt>
      <trkpt lat="43.54524" lon="6.69433">
        <ele>301.991333</ele>
        <time>2010-06-26T05:15:34Z</time>
      </trkpt>
      <trkpt lat="43.54559" lon="6.6945">
        <ele>302.4719238</ele>
        <time>2010-06-26T05:15:45Z</time>
      </trkpt>
      <trkpt lat="43.54605" lon="6.69447">
        <ele>302.9525146</ele>
        <time>2010-06-26T05:16:00Z</time>
      </trkpt>
      <trkpt lat="43.54615" lon="6.69446">
        <ele>304.3946533</ele>
        <time>2010-06-26T05:16:03Z</time>
      </trkpt>
      <trkpt lat="43.54612" lon="6.69415">
        <ele>303.9139404</ele>
        <time>2010-06-26T05:16:12Z</time>
      </trkpt>
      <trkpt lat="43.54594" lon="6.69333">
        <ele>302.9525146</ele>
        <time>2010-06-26T05:16:33Z</time>
      </trkpt>
      <trkpt lat="43.5459" lon="6.69306">
        <ele>302.4719238</ele>
        <time>2010-06-26T05:16:39Z</time>
      </trkpt>
      <trkpt lat="43.54596" lon="6.69296">
        <ele>302.4719238</ele>
        <time>2010-06-26T05:16:43Z</time>
      </trkpt>
      <trkpt lat="43.5461" lon="6.69298">
        <ele>297.6654053</ele>
        <time>2010-06-26T05:16:49Z</time>
      </trkpt>
      <trkpt lat="43.54616" lon="6.69299">
        <ele>326.5048828</ele>
        <time>2010-06-26T05:16:52Z</time>
      </trkpt>
      <trkpt lat="43.54618" lon="6.69299">
        <ele>307.7592773</ele>
        <time>2010-06-26T05:16:53Z</time>
      </trkpt>
      <trkpt lat="43.54653" lon="6.69307">
        <ele>309.2011719</ele>
        <time>2010-06-26T05:17:10Z</time>
      </trkpt>
      <trkpt lat="43.54657" lon="6.69308">
        <ele>286.6102295</ele>
        <time>2010-06-26T05:17:12Z</time>
      </trkpt>
      <trkpt lat="43.54658" lon="6.69309">
        <ele>300.5493164</ele>
        <time>2010-06-26T05:17:13Z</time>
      </trkpt>
      <trkpt lat="43.54659" lon="6.69309">
        <ele>331.7921143</ele>
        <time>2010-06-26T05:17:14Z</time>
      </trkpt>
      <trkpt lat="43.54661" lon="6.6931">
        <ele>291.8974609</ele>
        <time>2010-06-26T05:17:15Z</time>
      </trkpt>
      <trkpt lat="43.54663" lon="6.6931">
        <ele>305.8366699</ele>
        <time>2010-06-26T05:17:16Z</time>
      </trkpt>
      <trkpt lat="43.54665" lon="6.69311">
        <ele>331.7921143</ele>
        <time>2010-06-26T05:17:17Z</time>
      </trkpt>
      <trkpt lat="43.54667" lon="6.69311">
        <ele>311.1237793</ele>
        <time>2010-06-26T05:17:18Z</time>
      </trkpt>
      <trkpt lat="43.5467" lon="6.69312">
        <ele>310.1624756</ele>
        <time>2010-06-26T05:17:20Z</time>
      </trkpt>
      <trkpt lat="43.54679" lon="6.69311">
        <ele>309.6818848</ele>
        <time>2010-06-26T05:17:25Z</time>
      </trkpt>
      <trkpt lat="43.54695" lon="6.69305">
        <ele>312.0852051</ele>
        <time>2010-06-26T05:17:34Z</time>
      </trkpt>
      <trkpt lat="43.5473" lon="6.69292">
        <ele>315.9304199</ele>
        <time>2010-06-26T05:17:53Z</time>
      </trkpt>
      <trkpt lat="43.54757" lon="6.69284">
        <ele>319.7756348</ele>
        <time>2010-06-26T05:18:07Z</time>
      </trkpt>
      <trkpt lat="43.54789" lon="6.69287">
        <ele>322.659668</ele>
        <time>2010-06-26T05:18:24Z</time>
      </trkpt>
      <trkpt lat="43.54803" lon="6.69297">
        <ele>325.0629883</ele>
        <time>2010-06-26T05:18:33Z</time>
      </trkpt>
      <trkpt lat="43.54816" lon="6.69309">
        <ele>328.4276123</ele>
        <time>2010-06-26T05:18:42Z</time>
      </trkpt>
      <trkpt lat="43.54839" lon="6.69344">
        <ele>331.3115234</ele>
        <time>2010-06-26T05:19:00Z</time>
      </trkpt>
      <trkpt lat="43.54841" lon="6.69348">
        <ele>331.7921143</ele>
        <time>2010-06-26T05:19:09Z</time>
      </trkpt>
      <trkpt lat="43.54858" lon="6.69379">
        <ele>332.75354</ele>
        <time>2010-06-26T05:19:21Z</time>
      </trkpt>
      <trkpt lat="43.54894" lon="6.69418">
        <ele>335.6373291</ele>
        <time>2010-06-26T05:19:42Z</time>
      </trkpt>
      <trkpt lat="43.54921" lon="6.69448">
        <ele>337.0794678</ele>
        <time>2010-06-26T05:19:59Z</time>
      </trkpt>
      <trkpt lat="43.54931" lon="6.6944">
        <ele>337.0794678</ele>
        <time>2010-06-26T05:20:05Z</time>
      </trkpt>
      <trkpt lat="43.54939" lon="6.6943">
        <ele>334.6761475</ele>
        <time>2010-06-26T05:20:12Z</time>
      </trkpt>
      <trkpt lat="43.54945" lon="6.69436">
        <ele>333.2341309</ele>
        <time>2010-06-26T05:20:17Z</time>
      </trkpt>
      <trkpt lat="43.54946" lon="6.69436">
        <ele>333.2341309</ele>
        <time>2010-06-26T05:20:18Z</time>
      </trkpt>
      <trkpt lat="43.54954" lon="6.69436">
        <ele>330.8309326</ele>
        <time>2010-06-26T05:20:24Z</time>
      </trkpt>
      <trkpt lat="43.54963" lon="6.69436">
        <ele>326.9855957</ele>
        <time>2010-06-26T05:20:29Z</time>
      </trkpt>
      <trkpt lat="43.54964" lon="6.69438">
        <ele>326.5048828</ele>
        <time>2010-06-26T05:20:30Z</time>
      </trkpt>
      <trkpt lat="43.54969" lon="6.69439">
        <ele>323.6209717</ele>
        <time>2010-06-26T05:20:33Z</time>
      </trkpt>
      <trkpt lat="43.54972" lon="6.69436">
        <ele>323.1403809</ele>
        <time>2010-06-26T05:20:35Z</time>
      </trkpt>
      <trkpt lat="43.54975" lon="6.69428">
        <ele>321.2177734</ele>
        <time>2010-06-26T05:20:38Z</time>
      </trkpt>
      <trkpt lat="43.54984" lon="6.69424">
        <ele>317.8530273</ele>
        <time>2010-06-26T05:20:42Z</time>
      </trkpt>
      <trkpt lat="43.54992" lon="6.69441">
        <ele>314.4884033</ele>
        <time>2010-06-26T05:20:47Z</time>
      </trkpt>
      <trkpt lat="43.54998" lon="6.69456">
        <ele>311.6044922</ele>
        <time>2010-06-26T05:20:50Z</time>
      </trkpt>
      <trkpt lat="43.55006" lon="6.69475">
        <ele>307.7592773</ele>
        <time>2010-06-26T05:20:56Z</time>
      </trkpt>
      <trkpt lat="43.55009" lon="6.69478">
        <ele>306.3172607</ele>
        <time>2010-06-26T05:20:58Z</time>
      </trkpt>
      <trkpt lat="43.55015" lon="6.69481">
        <ele>305.355957</ele>
        <time>2010-06-26T05:21:00Z</time>
      </trkpt>
      <trkpt lat="43.55041" lon="6.69467">
        <ele>301.991333</ele>
        <time>2010-06-26T05:21:09Z</time>
      </trkpt>
      <trkpt lat="43.55042" lon="6.69465">
        <ele>301.991333</ele>
        <time>2010-06-26T05:21:10Z</time>
      </trkpt>
      <trkpt lat="43.55052" lon="6.6944">
        <ele>298.626709</ele>
        <time>2010-06-26T05:21:18Z</time>
      </trkpt>
      <trkpt lat="43.55057" lon="6.6942">
        <ele>295.7426758</ele>
        <time>2010-06-26T05:21:22Z</time>
      </trkpt>
      <trkpt lat="43.55063" lon="6.69405">
        <ele>294.3007813</ele>
        <time>2010-06-26T05:21:26Z</time>
      </trkpt>
      <trkpt lat="43.55078" lon="6.69389">
        <ele>291.416748</ele>
        <time>2010-06-26T05:21:31Z</time>
      </trkpt>
      <trkpt lat="43.55082" lon="6.69383">
        <ele>291.416748</ele>
        <time>2010-06-26T05:21:33Z</time>
      </trkpt>
      <trkpt lat="43.55094" lon="6.69373">
        <ele>291.416748</ele>
        <time>2010-06-26T05:21:37Z</time>
      </trkpt>
      <trkpt lat="43.55117" lon="6.69344">
        <ele>287.0908203</ele>
        <time>2010-06-26T05:21:45Z</time>
      </trkpt>
      <trkpt lat="43.55119" lon="6.69342">
        <ele>287.0908203</ele>
        <time>2010-06-26T05:21:46Z</time>
      </trkpt>
      <trkpt lat="43.55121" lon="6.69331">
        <ele>287.0908203</ele>
        <time>2010-06-26T05:21:56Z</time>
      </trkpt>
      <trkpt lat="43.55116" lon="6.69331">
        <ele>287.5714111</ele>
        <time>2010-06-26T05:22:14Z</time>
      </trkpt>
      <trkpt lat="43.55118" lon="6.69306">
        <ele>287.0908203</ele>
        <time>2010-06-26T05:22:24Z</time>
      </trkpt>
      <trkpt lat="43.55126" lon="6.69273">
        <ele>283.2456055</ele>
        <time>2010-06-26T05:22:32Z</time>
      </trkpt>
      <trkpt lat="43.55127" lon="6.69269">
        <ele>283.2456055</ele>
        <time>2010-06-26T05:22:33Z</time>
      </trkpt>
      <trkpt lat="43.55125" lon="6.69263">
        <ele>282.2843018</ele>
        <time>2010-06-26T05:22:35Z</time>
      </trkpt>
      <trkpt lat="43.55119" lon="6.69261">
        <ele>283.2456055</ele>
        <time>2010-06-26T05:22:40Z</time>
      </trkpt>
      <trkpt lat="43.55113" lon="6.69242">
        <ele>282.7650146</ele>
        <time>2010-06-26T05:22:47Z</time>
      </trkpt>
      <trkpt lat="43.55112" lon="6.69239">
        <ele>282.2843018</ele>
        <time>2010-06-26T05:22:48Z</time>
      </trkpt>
      <trkpt lat="43.55109" lon="6.69232">
        <ele>282.7650146</ele>
        <time>2010-06-26T05:22:51Z</time>
      </trkpt>
      <trkpt lat="43.55133" lon="6.69212">
        <ele>280.3616943</ele>
        <time>2010-06-26T05:23:00Z</time>
      </trkpt>
      <trkpt lat="43.55149" lon="6.69185">
        <ele>278.9196777</ele>
        <time>2010-06-26T05:23:08Z</time>
      </trkpt>
      <trkpt lat="43.55153" lon="6.69158">
        <ele>277.958252</ele>
        <time>2010-06-26T05:23:18Z</time>
      </trkpt>
      <trkpt lat="43.55161" lon="6.69112">
        <ele>277.4776611</ele>
        <time>2010-06-26T05:23:31Z</time>
      </trkpt>
      <trkpt lat="43.55158" lon="6.69069">
        <ele>276.9970703</ele>
        <time>2010-06-26T05:23:45Z</time>
      </trkpt>
      <trkpt lat="43.5516" lon="6.69027">
        <ele>276.5163574</ele>
        <time>2010-06-26T05:23:56Z</time>
      </trkpt>
      <trkpt lat="43.5516" lon="6.68993">
        <ele>277.4776611</ele>
        <time>2010-06-26T05:24:06Z</time>
      </trkpt>
      <trkpt lat="43.55164" lon="6.68961">
        <ele>279.4002686</ele>
        <time>2010-06-26T05:24:18Z</time>
      </trkpt>
      <trkpt lat="43.55156" lon="6.68934">
        <ele>282.2843018</ele>
        <time>2010-06-26T05:24:30Z</time>
      </trkpt>
      <trkpt lat="43.55155" lon="6.68933">
        <ele>282.2843018</ele>
        <time>2010-06-26T05:24:31Z</time>
      </trkpt>
      <trkpt lat="43.55146" lon="6.68922">
        <ele>283.2456055</ele>
        <time>2010-06-26T05:24:39Z</time>
      </trkpt>
      <trkpt lat="43.55143" lon="6.68913">
        <ele>284.6876221</ele>
        <time>2010-06-26T05:24:43Z</time>
      </trkpt>
      <trkpt lat="43.55137" lon="6.68896">
        <ele>288.0522461</ele>
        <time>2010-06-26T05:24:52Z</time>
      </trkpt>
      <trkpt lat="43.55139" lon="6.68891">
        <ele>289.4941406</ele>
        <time>2010-06-26T05:24:55Z</time>
      </trkpt>
      <trkpt lat="43.55144" lon="6.68873">
        <ele>290.9361572</ele>
        <time>2010-06-26T05:25:05Z</time>
      </trkpt>
      <trkpt lat="43.55135" lon="6.68869">
        <ele>291.416748</ele>
        <time>2010-06-26T05:25:12Z</time>
      </trkpt>
      <trkpt lat="43.55108" lon="6.68872">
        <ele>294.3007813</ele>
        <time>2010-06-26T05:25:30Z</time>
      </trkpt>
      <trkpt lat="43.55086" lon="6.68861">
        <ele>297.6654053</ele>
        <time>2010-06-26T05:25:46Z</time>
      </trkpt>
      <trkpt lat="43.55067" lon="6.68843">
        <ele>298.626709</ele>
        <time>2010-06-26T05:26:02Z</time>
      </trkpt>
      <trkpt lat="43.55052" lon="6.68837">
        <ele>301.0299072</ele>
        <time>2010-06-26T05:26:13Z</time>
      </trkpt>
      <trkpt lat="43.55041" lon="6.68829">
        <ele>302.9525146</ele>
        <time>2010-06-26T05:26:21Z</time>
      </trkpt>
      <trkpt lat="43.55052" lon="6.68813">
        <ele>301.991333</ele>
        <time>2010-06-26T05:26:30Z</time>
      </trkpt>
      <trkpt lat="43.55053" lon="6.68809">
        <ele>301.991333</ele>
        <time>2010-06-26T05:26:31Z</time>
      </trkpt>
      <trkpt lat="43.55056" lon="6.688">
        <ele>301.5106201</ele>
        <time>2010-06-26T05:26:33Z</time>
      </trkpt>
      <trkpt lat="43.5506" lon="6.6879">
        <ele>301.5106201</ele>
        <time>2010-06-26T05:26:35Z</time>
      </trkpt>
      <trkpt lat="43.55079" lon="6.68763">
        <ele>300.0687256</ele>
        <time>2010-06-26T05:26:41Z</time>
      </trkpt>
      <trkpt lat="43.55094" lon="6.68741">
        <ele>299.5880127</ele>
        <time>2010-06-26T05:26:46Z</time>
      </trkpt>
      <trkpt lat="43.55097" lon="6.68731">
        <ele>299.1072998</ele>
        <time>2010-06-26T05:26:48Z</time>
      </trkpt>
      <trkpt lat="43.55093" lon="6.68715">
        <ele>297.6654053</ele>
        <time>2010-06-26T05:26:52Z</time>
      </trkpt>
      <trkpt lat="43.55086" lon="6.68706">
        <ele>295.7426758</ele>
        <time>2010-06-26T05:26:56Z</time>
      </trkpt>
      <trkpt lat="43.55058" lon="6.68639">
        <ele>293.3393555</ele>
        <time>2010-06-26T05:27:11Z</time>
      </trkpt>
      <trkpt lat="43.5505" lon="6.6862">
        <ele>296.2235107</ele>
        <time>2010-06-26T05:27:17Z</time>
      </trkpt>
      <trkpt lat="43.55048" lon="6.68618">
        <ele>296.7041016</ele>
        <time>2010-06-26T05:27:18Z</time>
      </trkpt>
      <trkpt lat="43.55036" lon="6.68598">
        <ele>295.2619629</ele>
        <time>2010-06-26T05:27:24Z</time>
      </trkpt>
      <trkpt lat="43.55023" lon="6.68556">
        <ele>293.8200684</ele>
        <time>2010-06-26T05:27:35Z</time>
      </trkpt>
      <trkpt lat="43.55019" lon="6.68541">
        <ele>293.3393555</ele>
        <time>2010-06-26T05:27:43Z</time>
      </trkpt>
      <trkpt lat="43.55003" lon="6.68508">
        <ele>295.7426758</ele>
        <time>2010-06-26T05:27:58Z</time>
      </trkpt>
      <trkpt lat="43.54985" lon="6.68476">
        <ele>296.7041016</ele>
        <time>2010-06-26T05:28:16Z</time>
      </trkpt>
      <trkpt lat="43.54978" lon="6.68418">
        <ele>292.8587646</ele>
        <time>2010-06-26T05:28:29Z</time>
      </trkpt>
      <trkpt lat="43.54979" lon="6.68411">
        <ele>292.3781738</ele>
        <time>2010-06-26T05:28:30Z</time>
      </trkpt>
      <trkpt lat="43.54979" lon="6.6836">
        <ele>295.2619629</ele>
        <time>2010-06-26T05:28:40Z</time>
      </trkpt>
      <trkpt lat="43.54965" lon="6.68312">
        <ele>294.7813721</ele>
        <time>2010-06-26T05:28:55Z</time>
      </trkpt>
      <trkpt lat="43.54956" lon="6.68258">
        <ele>293.3393555</ele>
        <time>2010-06-26T05:29:08Z</time>
      </trkpt>
      <trkpt lat="43.54952" lon="6.68216">
        <ele>292.8587646</ele>
        <time>2010-06-26T05:29:21Z</time>
      </trkpt>
      <trkpt lat="43.54953" lon="6.68154">
        <ele>292.3781738</ele>
        <time>2010-06-26T05:29:36Z</time>
      </trkpt>
      <trkpt lat="43.54947" lon="6.68085">
        <ele>292.3781738</ele>
        <time>2010-06-26T05:29:53Z</time>
      </trkpt>
      <trkpt lat="43.54947" lon="6.68074">
        <ele>292.8587646</ele>
        <time>2010-06-26T05:29:57Z</time>
      </trkpt>
      <trkpt lat="43.54941" lon="6.6807">
        <ele>294.7813721</ele>
        <time>2010-06-26T05:30:02Z</time>
      </trkpt>
      <trkpt lat="43.54939" lon="6.68071">
        <ele>294.7813721</ele>
        <time>2010-06-26T05:30:03Z</time>
      </trkpt>
      <trkpt lat="43.54917" lon="6.68071">
        <ele>299.1072998</ele>
        <time>2010-06-26T05:30:17Z</time>
      </trkpt>
      <trkpt lat="43.54908" lon="6.6807">
        <ele>300.5493164</ele>
        <time>2010-06-26T05:30:24Z</time>
      </trkpt>
      <trkpt lat="43.54907" lon="6.68061">
        <ele>300.5493164</ele>
        <time>2010-06-26T05:30:29Z</time>
      </trkpt>
      <trkpt lat="43.54902" lon="6.68032">
        <ele>301.0299072</ele>
        <time>2010-06-26T05:30:41Z</time>
      </trkpt>
      <trkpt lat="43.54894" lon="6.6802">
        <ele>300.0687256</ele>
        <time>2010-06-26T05:30:45Z</time>
      </trkpt>
      <trkpt lat="43.54883" lon="6.68009">
        <ele>299.1072998</ele>
        <time>2010-06-26T05:30:48Z</time>
      </trkpt>
      <trkpt lat="43.54879" lon="6.68006">
        <ele>298.626709</ele>
        <time>2010-06-26T05:30:49Z</time>
      </trkpt>
      <trkpt lat="43.54853" lon="6.67963">
        <ele>294.3007813</ele>
        <time>2010-06-26T05:30:55Z</time>
      </trkpt>
      <trkpt lat="43.54842" lon="6.67947">
        <ele>293.3393555</ele>
        <time>2010-06-26T05:30:57Z</time>
      </trkpt>
      <trkpt lat="43.5482" lon="6.67927">
        <ele>291.8974609</ele>
        <time>2010-06-26T05:31:00Z</time>
      </trkpt>
      <trkpt lat="43.54797" lon="6.67907">
        <ele>290.4555664</ele>
        <time>2010-06-26T05:31:03Z</time>
      </trkpt>
      <trkpt lat="43.54774" lon="6.6787">
        <ele>286.6102295</ele>
        <time>2010-06-26T05:31:07Z</time>
      </trkpt>
      <trkpt lat="43.54744" lon="6.67756">
        <ele>282.2843018</ele>
        <time>2010-06-26T05:31:16Z</time>
      </trkpt>
      <trkpt lat="43.54733" lon="6.67711">
        <ele>282.2843018</ele>
        <time>2010-06-26T05:31:20Z</time>
      </trkpt>
      <trkpt lat="43.54742" lon="6.67691">
        <ele>280.8424072</ele>
        <time>2010-06-26T05:31:24Z</time>
      </trkpt>
      <trkpt lat="43.54798" lon="6.6764">
        <ele>278.9196777</ele>
        <time>2010-06-26T05:31:36Z</time>
      </trkpt>
      <trkpt lat="43.54807" lon="6.67629">
        <ele>278.4389648</ele>
        <time>2010-06-26T05:31:38Z</time>
      </trkpt>
      <trkpt lat="43.54839" lon="6.67564">
        <ele>277.4776611</ele>
        <time>2010-06-26T05:31:50Z</time>
      </trkpt>
      <trkpt lat="43.54842" lon="6.67554">
        <ele>276.5163574</ele>
        <time>2010-06-26T05:32:19Z</time>
      </trkpt>
      <trkpt lat="43.54869" lon="6.67514">
        <ele>272.6711426</ele>
        <time>2010-06-26T05:32:28Z</time>
      </trkpt>
      <trkpt lat="43.54896" lon="6.67482">
        <ele>270.2677002</ele>
        <time>2010-06-26T05:32:34Z</time>
      </trkpt>
      <trkpt lat="43.54936" lon="6.67447">
        <ele>267.864502</ele>
        <time>2010-06-26T05:32:41Z</time>
      </trkpt>
      <trkpt lat="43.5498" lon="6.67401">
        <ele>264.4998779</ele>
        <time>2010-06-26T05:32:48Z</time>
      </trkpt>
      <trkpt lat="43.55008" lon="6.67373">
        <ele>260.654541</ele>
        <time>2010-06-26T05:32:52Z</time>
      </trkpt>
      <trkpt lat="43.5505" lon="6.67337">
        <ele>258.7319336</ele>
        <time>2010-06-26T05:32:57Z</time>
      </trkpt>
      <trkpt lat="43.55068" lon="6.67325">
        <ele>257.2900391</ele>
        <time>2010-06-26T05:32:59Z</time>
      </trkpt>
      <trkpt lat="43.55087" lon="6.67311">
        <ele>255.3673096</ele>
        <time>2010-06-26T05:33:01Z</time>
      </trkpt>
      <trkpt lat="43.55105" lon="6.67296">
        <ele>253.925415</ele>
        <time>2010-06-26T05:33:03Z</time>
      </trkpt>
      <trkpt lat="43.55131" lon="6.67274">
        <ele>252.0028076</ele>
        <time>2010-06-26T05:33:09Z</time>
      </trkpt>
      <trkpt lat="43.55135" lon="6.67269">
        <ele>252.0028076</ele>
        <time>2010-06-26T05:33:14Z</time>
      </trkpt>
      <trkpt lat="43.55145" lon="6.67264">
        <ele>251.0413818</ele>
        <time>2010-06-26T05:33:20Z</time>
      </trkpt>
      <trkpt lat="43.55164" lon="6.67243">
        <ele>246.7154541</ele>
        <time>2010-06-26T05:33:33Z</time>
      </trkpt>
      <trkpt lat="43.55183" lon="6.6723">
        <ele>245.7541504</ele>
        <time>2010-06-26T05:33:46Z</time>
      </trkpt>
      <trkpt lat="43.55185" lon="6.67227">
        <ele>245.2734375</ele>
        <time>2010-06-26T05:34:08Z</time>
      </trkpt>
      <trkpt lat="43.55204" lon="6.67211">
        <ele>243.831543</ele>
        <time>2010-06-26T05:34:19Z</time>
      </trkpt>
      <trkpt lat="43.55227" lon="6.67192">
        <ele>241.9089355</ele>
        <time>2010-06-26T05:34:31Z</time>
      </trkpt>
      <trkpt lat="43.55228" lon="6.67191">
        <ele>241.4282227</ele>
        <time>2010-06-26T05:34:35Z</time>
      </trkpt>
      <trkpt lat="43.55229" lon="6.67188">
        <ele>240.9476318</ele>
        <time>2010-06-26T05:34:55Z</time>
      </trkpt>
      <trkpt lat="43.5523" lon="6.67188">
        <ele>241.9089355</ele>
        <time>2010-06-26T05:35:02Z</time>
      </trkpt>
      <trkpt lat="43.55241" lon="6.67178">
        <ele>240.9476318</ele>
        <time>2010-06-26T05:35:13Z</time>
      </trkpt>
      <trkpt lat="43.55268" lon="6.67159">
        <ele>239.0249023</ele>
        <time>2010-06-26T05:35:26Z</time>
      </trkpt>
      <trkpt lat="43.55294" lon="6.67148">
        <ele>237.1022949</ele>
        <time>2010-06-26T05:35:38Z</time>
      </trkpt>
      <trkpt lat="43.55322" lon="6.67142">
        <ele>235.1796875</ele>
        <time>2010-06-26T05:35:49Z</time>
      </trkpt>
      <trkpt lat="43.55348" lon="6.67141">
        <ele>235.1796875</ele>
        <time>2010-06-26T05:36:02Z</time>
      </trkpt>
      <trkpt lat="43.55365" lon="6.67128">
        <ele>235.1796875</ele>
        <time>2010-06-26T05:36:12Z</time>
      </trkpt>
      <trkpt lat="43.55362" lon="6.67123">
        <ele>235.1796875</ele>
        <time>2010-06-26T05:36:27Z</time>
      </trkpt>
      <trkpt lat="43.55369" lon="6.67108">
        <ele>232.7764893</ele>
        <time>2010-06-26T05:36:32Z</time>
      </trkpt>
      <trkpt lat="43.55376" lon="6.67098">
        <ele>232.2957764</ele>
        <time>2010-06-26T05:36:36Z</time>
      </trkpt>
      <trkpt lat="43.55397" lon="6.67085">
        <ele>233.2570801</ele>
        <time>2010-06-26T05:36:50Z</time>
      </trkpt>
      <trkpt lat="43.55434" lon="6.67075">
        <ele>231.3343506</ele>
        <time>2010-06-26T05:37:02Z</time>
      </trkpt>
      <trkpt lat="43.55463" lon="6.67064">
        <ele>230.3730469</ele>
        <time>2010-06-26T05:37:13Z</time>
      </trkpt>
      <trkpt lat="43.55479" lon="6.67056">
        <ele>230.3730469</ele>
        <time>2010-06-26T05:37:21Z</time>
      </trkpt>
      <trkpt lat="43.55496" lon="6.67048">
        <ele>229.892334</ele>
        <time>2010-06-26T05:37:28Z</time>
      </trkpt>
      <trkpt lat="43.55521" lon="6.67007">
        <ele>229.4117432</ele>
        <time>2010-06-26T05:37:42Z</time>
      </trkpt>
      <trkpt lat="43.55526" lon="6.67002">
        <ele>229.4117432</ele>
        <time>2010-06-26T05:37:45Z</time>
      </trkpt>
      <trkpt lat="43.55532" lon="6.67">
        <ele>228.4504395</ele>
        <time>2010-06-26T05:37:49Z</time>
      </trkpt>
      <trkpt lat="43.55541" lon="6.67003">
        <ele>227.4891357</ele>
        <time>2010-06-26T05:37:53Z</time>
      </trkpt>
      <trkpt lat="43.55578" lon="6.67001">
        <ele>226.0471191</ele>
        <time>2010-06-26T05:38:04Z</time>
      </trkpt>
      <trkpt lat="43.55598" lon="6.66989">
        <ele>224.1245117</ele>
        <time>2010-06-26T05:38:15Z</time>
      </trkpt>
      <trkpt lat="43.55621" lon="6.66983">
        <ele>225.0859375</ele>
        <time>2010-06-26T05:38:26Z</time>
      </trkpt>
      <trkpt lat="43.55648" lon="6.66977">
        <ele>224.1245117</ele>
        <time>2010-06-26T05:38:35Z</time>
      </trkpt>
      <trkpt lat="43.55674" lon="6.66974">
        <ele>223.163208</ele>
        <time>2010-06-26T05:38:41Z</time>
      </trkpt>
      <trkpt lat="43.55691" lon="6.66963">
        <ele>222.2017822</ele>
        <time>2010-06-26T05:38:50Z</time>
      </trkpt>
      <trkpt lat="43.55693" lon="6.66962">
        <ele>221.7211914</ele>
        <time>2010-06-26T05:38:55Z</time>
      </trkpt>
      <trkpt lat="43.557" lon="6.66963">
        <ele>221.2406006</ele>
        <time>2010-06-26T05:39:00Z</time>
      </trkpt>
      <trkpt lat="43.55723" lon="6.66953">
        <ele>222.6824951</ele>
        <time>2010-06-26T05:39:10Z</time>
      </trkpt>
      <trkpt lat="43.5575" lon="6.66928">
        <ele>222.2017822</ele>
        <time>2010-06-26T05:39:22Z</time>
      </trkpt>
      <trkpt lat="43.55779" lon="6.66909">
        <ele>219.3179932</ele>
        <time>2010-06-26T05:39:33Z</time>
      </trkpt>
      <trkpt lat="43.55785" lon="6.66907">
        <ele>218.8372803</ele>
        <time>2010-06-26T05:39:36Z</time>
      </trkpt>
      <trkpt lat="43.55799" lon="6.66896">
        <ele>217.3953857</ele>
        <time>2010-06-26T05:39:49Z</time>
      </trkpt>
      <trkpt lat="43.55799" lon="6.66894">
        <ele>217.8759766</ele>
        <time>2010-06-26T05:39:57Z</time>
      </trkpt>
      <trkpt lat="43.55799" lon="6.66894">
        <ele>217.3953857</ele>
        <time>2010-06-26T05:40:16Z</time>
      </trkpt>
      <trkpt lat="43.55798" lon="6.66894">
        <ele>217.8759766</ele>
        <time>2010-06-26T05:40:22Z</time>
      </trkpt>
      <trkpt lat="43.55802" lon="6.6689">
        <ele>217.8759766</ele>
        <time>2010-06-26T05:40:29Z</time>
      </trkpt>
      <trkpt lat="43.55818" lon="6.66866">
        <ele>218.3565674</ele>
        <time>2010-06-26T05:40:41Z</time>
      </trkpt>
      <trkpt lat="43.55834" lon="6.66839">
        <ele>219.798584</ele>
        <time>2010-06-26T05:40:52Z</time>
      </trkpt>
      <trkpt lat="43.55845" lon="6.66805">
        <ele>219.3179932</ele>
        <time>2010-06-26T05:41:03Z</time>
      </trkpt>
      <trkpt lat="43.55845" lon="6.668">
        <ele>218.8372803</ele>
        <time>2010-06-26T05:41:04Z</time>
      </trkpt>
      <trkpt lat="43.55848" lon="6.66789">
        <ele>217.8759766</ele>
        <time>2010-06-26T05:41:06Z</time>
      </trkpt>
      <trkpt lat="43.55853" lon="6.66781">
        <ele>217.3953857</ele>
        <time>2010-06-26T05:41:08Z</time>
      </trkpt>
      <trkpt lat="43.55874" lon="6.66765">
        <ele>217.8759766</ele>
        <time>2010-06-26T05:41:18Z</time>
      </trkpt>
      <trkpt lat="43.55875" lon="6.66764">
        <ele>217.8759766</ele>
        <time>2010-06-26T05:41:19Z</time>
      </trkpt>
      <trkpt lat="43.55879" lon="6.66759">
        <ele>217.3953857</ele>
        <time>2010-06-26T05:41:22Z</time>
      </trkpt>
      <trkpt lat="43.55885" lon="6.66752">
        <ele>217.8759766</ele>
        <time>2010-06-26T05:41:26Z</time>
      </trkpt>
      <trkpt lat="43.55898" lon="6.66729">
        <ele>216.9146729</ele>
        <time>2010-06-26T05:41:34Z</time>
      </trkpt>
      <trkpt lat="43.55915" lon="6.66687">
        <ele>216.43396</ele>
        <time>2010-06-26T05:41:48Z</time>
      </trkpt>
      <trkpt lat="43.55917" lon="6.66684">
        <ele>215.4726563</ele>
        <time>2010-06-26T05:41:49Z</time>
      </trkpt>
      <trkpt lat="43.55919" lon="6.66673">
        <ele>214.9919434</ele>
        <time>2010-06-26T05:41:53Z</time>
      </trkpt>
      <trkpt lat="43.55921" lon="6.66661">
        <ele>214.5112305</ele>
        <time>2010-06-26T05:41:56Z</time>
      </trkpt>
      <trkpt lat="43.5592" lon="6.66646">
        <ele>215.4726563</ele>
        <time>2010-06-26T05:42:01Z</time>
      </trkpt>
      <trkpt lat="43.55916" lon="6.66596">
        <ele>214.9919434</ele>
        <time>2010-06-26T05:42:16Z</time>
      </trkpt>
      <trkpt lat="43.55914" lon="6.6654">
        <ele>214.9919434</ele>
        <time>2010-06-26T05:42:30Z</time>
      </trkpt>
      <trkpt lat="43.55916" lon="6.6652">
        <ele>214.9919434</ele>
        <time>2010-06-26T05:42:39Z</time>
      </trkpt>
      <trkpt lat="43.55915" lon="6.66515">
        <ele>211.6274414</ele>
        <time>2010-06-26T05:43:18Z</time>
      </trkpt>
      <trkpt lat="43.55915" lon="6.66515">
        <ele>215.4726563</ele>
        <time>2010-06-26T05:43:19Z</time>
      </trkpt>
      <trkpt lat="43.55918" lon="6.66505">
        <ele>214.9919434</ele>
        <time>2010-06-26T05:43:30Z</time>
      </trkpt>
      <trkpt lat="43.55922" lon="6.66496">
        <ele>214.9919434</ele>
        <time>2010-06-26T05:43:34Z</time>
      </trkpt>
      <trkpt lat="43.55923" lon="6.66488">
        <ele>215.4726563</ele>
        <time>2010-06-26T05:43:37Z</time>
      </trkpt>
      <trkpt lat="43.5592" lon="6.66457">
        <ele>212.1080322</ele>
        <time>2010-06-26T05:43:47Z</time>
      </trkpt>
      <trkpt lat="43.55921" lon="6.66453">
        <ele>212.1080322</ele>
        <time>2010-06-26T05:43:48Z</time>
      </trkpt>
      <trkpt lat="43.55925" lon="6.66446">
        <ele>212.1080322</ele>
        <time>2010-06-26T05:44:05Z</time>
      </trkpt>
      <trkpt lat="43.55937" lon="6.66436">
        <ele>211.6274414</ele>
        <time>2010-06-26T05:44:26Z</time>
      </trkpt>
      <trkpt lat="43.55941" lon="6.66427">
        <ele>212.1080322</ele>
        <time>2010-06-26T05:44:39Z</time>
      </trkpt>
      <trkpt lat="43.55944" lon="6.6642">
        <ele>212.1080322</ele>
        <time>2010-06-26T05:44:45Z</time>
      </trkpt>
      <trkpt lat="43.55948" lon="6.66411">
        <ele>211.6274414</ele>
        <time>2010-06-26T05:44:49Z</time>
      </trkpt>
      <trkpt lat="43.55963" lon="6.66406">
        <ele>212.1080322</ele>
        <time>2010-06-26T05:44:59Z</time>
      </trkpt>
      <trkpt lat="43.55984" lon="6.66389">
        <ele>212.588623</ele>
        <time>2010-06-26T05:45:13Z</time>
      </trkpt>
      <trkpt lat="43.56012" lon="6.66373">
        <ele>212.588623</ele>
        <time>2010-06-26T05:45:27Z</time>
      </trkpt>
      <trkpt lat="43.56025" lon="6.66327">
        <ele>213.0693359</ele>
        <time>2010-06-26T05:45:43Z</time>
      </trkpt>
      <trkpt lat="43.56029" lon="6.66286">
        <ele>211.1467285</ele>
        <time>2010-06-26T05:45:54Z</time>
      </trkpt>
      <trkpt lat="43.56029" lon="6.6628">
        <ele>210.1854248</ele>
        <time>2010-06-26T05:45:55Z</time>
      </trkpt>
      <trkpt lat="43.56033" lon="6.66229">
        <ele>207.7821045</ele>
        <time>2010-06-26T05:46:05Z</time>
      </trkpt>
      <trkpt lat="43.56043" lon="6.66219">
        <ele>208.2628174</ele>
        <time>2010-06-26T05:46:14Z</time>
      </trkpt>
      <trkpt lat="43.56056" lon="6.66199">
        <ele>209.2241211</ele>
        <time>2010-06-26T05:46:24Z</time>
      </trkpt>
      <trkpt lat="43.56085" lon="6.66167">
        <ele>209.704834</ele>
        <time>2010-06-26T05:46:39Z</time>
      </trkpt>
      <trkpt lat="43.56113" lon="6.66128">
        <ele>208.2628174</ele>
        <time>2010-06-26T05:46:52Z</time>
      </trkpt>
      <trkpt lat="43.56127" lon="6.66089">
        <ele>205.8594971</ele>
        <time>2010-06-26T05:47:03Z</time>
      </trkpt>
      <trkpt lat="43.56134" lon="6.66053">
        <ele>207.3013916</ele>
        <time>2010-06-26T05:47:15Z</time>
      </trkpt>
      <trkpt lat="43.56141" lon="6.66012">
        <ele>206.3400879</ele>
        <time>2010-06-26T05:47:27Z</time>
      </trkpt>
      <trkpt lat="43.56149" lon="6.65972">
        <ele>208.2628174</ele>
        <time>2010-06-26T05:47:41Z</time>
      </trkpt>
      <trkpt lat="43.56173" lon="6.65935">
        <ele>209.2241211</ele>
        <time>2010-06-26T05:47:57Z</time>
      </trkpt>
      <trkpt lat="43.56201" lon="6.65919">
        <ele>207.7821045</ele>
        <time>2010-06-26T05:48:08Z</time>
      </trkpt>
      <trkpt lat="43.56235" lon="6.65913">
        <ele>210.6660156</ele>
        <time>2010-06-26T05:48:22Z</time>
      </trkpt>
      <trkpt lat="43.56265" lon="6.65908">
        <ele>211.6274414</ele>
        <time>2010-06-26T05:48:35Z</time>
      </trkpt>
      <trkpt lat="43.56288" lon="6.65884">
        <ele>211.1467285</ele>
        <time>2010-06-26T05:48:46Z</time>
      </trkpt>
      <trkpt lat="43.56295" lon="6.65876">
        <ele>209.2241211</ele>
        <time>2010-06-26T05:48:48Z</time>
      </trkpt>
      <trkpt lat="43.56302" lon="6.65851">
        <ele>208.7434082</ele>
        <time>2010-06-26T05:48:53Z</time>
      </trkpt>
      <trkpt lat="43.5631" lon="6.65838">
        <ele>207.7821045</ele>
        <time>2010-06-26T05:48:56Z</time>
      </trkpt>
      <trkpt lat="43.56326" lon="6.65796">
        <ele>206.3400879</ele>
        <time>2010-06-26T05:49:04Z</time>
      </trkpt>
      <trkpt lat="43.56335" lon="6.65783">
        <ele>204.8980713</ele>
        <time>2010-06-26T05:49:07Z</time>
      </trkpt>
      <trkpt lat="43.56368" lon="6.65753">
        <ele>203.9368896</ele>
        <time>2010-06-26T05:49:16Z</time>
      </trkpt>
      <trkpt lat="43.56385" lon="6.65734">
        <ele>203.4561768</ele>
        <time>2010-06-26T05:49:21Z</time>
      </trkpt>
      <trkpt lat="43.56394" lon="6.65721">
        <ele>202.0142822</ele>
        <time>2010-06-26T05:49:24Z</time>
      </trkpt>
      <trkpt lat="43.56413" lon="6.65696">
        <ele>201.0528564</ele>
        <time>2010-06-26T05:49:30Z</time>
      </trkpt>
      <trkpt lat="43.56422" lon="6.65682">
        <ele>200.5722656</ele>
        <time>2010-06-26T05:49:33Z</time>
      </trkpt>
      <trkpt lat="43.5643" lon="6.6567">
        <ele>200.0916748</ele>
        <time>2010-06-26T05:49:36Z</time>
      </trkpt>
      <trkpt lat="43.56446" lon="6.65657">
        <ele>198.6495361</ele>
        <time>2010-06-26T05:49:40Z</time>
      </trkpt>
      <trkpt lat="43.56462" lon="6.65643">
        <ele>198.1689453</ele>
        <time>2010-06-26T05:49:48Z</time>
      </trkpt>
      <trkpt lat="43.56463" lon="6.65644">
        <ele>198.1689453</ele>
        <time>2010-06-26T05:49:49Z</time>
      </trkpt>
      <trkpt lat="43.56483" lon="6.65663">
        <ele>194.3237305</ele>
        <time>2010-06-26T05:50:01Z</time>
      </trkpt>
      <trkpt lat="43.56485" lon="6.65665">
        <ele>198.6495361</ele>
        <time>2010-06-26T05:50:02Z</time>
      </trkpt>
      <trkpt lat="43.5651" lon="6.65686">
        <ele>198.1689453</ele>
        <time>2010-06-26T05:50:14Z</time>
      </trkpt>
      <trkpt lat="43.56542" lon="6.65709">
        <ele>197.6882324</ele>
        <time>2010-06-26T05:50:28Z</time>
      </trkpt>
      <trkpt lat="43.56573" lon="6.65718">
        <ele>198.6495361</ele>
        <time>2010-06-26T05:50:38Z</time>
      </trkpt>
      <trkpt lat="43.56604" lon="6.65711">
        <ele>200.0916748</ele>
        <time>2010-06-26T05:50:52Z</time>
      </trkpt>
      <trkpt lat="43.56631" lon="6.65697">
        <ele>202.494873</ele>
        <time>2010-06-26T05:51:07Z</time>
      </trkpt>
      <trkpt lat="43.56655" lon="6.65686">
        <ele>204.4174805</ele>
        <time>2010-06-26T05:51:22Z</time>
      </trkpt>
      <trkpt lat="43.56673" lon="6.65681">
        <ele>207.7821045</ele>
        <time>2010-06-26T05:51:34Z</time>
      </trkpt>
      <trkpt lat="43.56699" lon="6.65674">
        <ele>210.1854248</ele>
        <time>2010-06-26T05:51:49Z</time>
      </trkpt>
      <trkpt lat="43.56724" lon="6.65665">
        <ele>213.5500488</ele>
        <time>2010-06-26T05:52:04Z</time>
      </trkpt>
      <trkpt lat="43.56731" lon="6.6566">
        <ele>214.0306396</ele>
        <time>2010-06-26T05:52:08Z</time>
      </trkpt>
      <trkpt lat="43.56737" lon="6.65641">
        <ele>214.5112305</ele>
        <time>2010-06-26T05:52:16Z</time>
      </trkpt>
      <trkpt lat="43.5674" lon="6.65635">
        <ele>215.9532471</ele>
        <time>2010-06-26T05:52:19Z</time>
      </trkpt>
      <trkpt lat="43.56762" lon="6.65612">
        <ele>218.8372803</ele>
        <time>2010-06-26T05:52:34Z</time>
      </trkpt>
      <trkpt lat="43.56775" lon="6.65606">
        <ele>219.3179932</ele>
        <time>2010-06-26T05:52:41Z</time>
      </trkpt>
      <trkpt lat="43.56779" lon="6.656">
        <ele>219.798584</ele>
        <time>2010-06-26T05:52:45Z</time>
      </trkpt>
      <trkpt lat="43.56801" lon="6.65549">
        <ele>219.3179932</ele>
        <time>2010-06-26T05:53:04Z</time>
      </trkpt>
      <trkpt lat="43.56818" lon="6.65507">
        <ele>220.2791748</ele>
        <time>2010-06-26T05:53:18Z</time>
      </trkpt>
      <trkpt lat="43.56835" lon="6.65464">
        <ele>221.7211914</ele>
        <time>2010-06-26T05:53:34Z</time>
      </trkpt>
      <trkpt lat="43.56819" lon="6.65438">
        <ele>224.6052246</ele>
        <time>2010-06-26T05:53:47Z</time>
      </trkpt>
      <trkpt lat="43.56788" lon="6.65416">
        <ele>225.5665283</ele>
        <time>2010-06-26T05:54:06Z</time>
      </trkpt>
      <trkpt lat="43.56776" lon="6.65412">
        <ele>228.9311523</ele>
        <time>2010-06-26T05:54:14Z</time>
      </trkpt>
      <trkpt lat="43.56757" lon="6.65401">
        <ele>232.2957764</ele>
        <time>2010-06-26T05:54:28Z</time>
      </trkpt>
      <trkpt lat="43.56743" lon="6.6539">
        <ele>235.6602783</ele>
        <time>2010-06-26T05:54:38Z</time>
      </trkpt>
      <trkpt lat="43.5673" lon="6.65377">
        <ele>239.0249023</ele>
        <time>2010-06-26T05:54:48Z</time>
      </trkpt>
      <trkpt lat="43.56714" lon="6.65357">
        <ele>241.9089355</ele>
        <time>2010-06-26T05:55:01Z</time>
      </trkpt>
      <trkpt lat="43.56713" lon="6.65356">
        <ele>242.3896484</ele>
        <time>2010-06-26T05:55:02Z</time>
      </trkpt>
      <trkpt lat="43.56695" lon="6.65336">
        <ele>245.2734375</ele>
        <time>2010-06-26T05:55:16Z</time>
      </trkpt>
      <trkpt lat="43.56677" lon="6.65313">
        <ele>248.1575928</ele>
        <time>2010-06-26T05:55:30Z</time>
      </trkpt>
      <trkpt lat="43.56671" lon="6.65304">
        <ele>249.5994873</ele>
        <time>2010-06-26T05:55:35Z</time>
      </trkpt>
      <trkpt lat="43.56669" lon="6.653">
        <ele>250.560791</ele>
        <time>2010-06-26T05:55:37Z</time>
      </trkpt>
      <trkpt lat="43.56658" lon="6.65282">
        <ele>253.925415</ele>
        <time>2010-06-26T05:55:47Z</time>
      </trkpt>
      <trkpt lat="43.56639" lon="6.65247">
        <ele>256.8093262</ele>
        <time>2010-06-26T05:56:05Z</time>
      </trkpt>
      <trkpt lat="43.56637" lon="6.65242">
        <ele>257.770752</ele>
        <time>2010-06-26T05:56:07Z</time>
      </trkpt>
      <trkpt lat="43.56634" lon="6.65232">
        <ele>260.654541</ele>
        <time>2010-06-26T05:56:12Z</time>
      </trkpt>
      <trkpt lat="43.56634" lon="6.6523">
        <ele>260.1739502</ele>
        <time>2010-06-26T05:56:13Z</time>
      </trkpt>
      <trkpt lat="43.56637" lon="6.65228">
        <ele>261.1352539</ele>
        <time>2010-06-26T05:56:17Z</time>
      </trkpt>
      <trkpt lat="43.5664" lon="6.65232">
        <ele>260.1739502</ele>
        <time>2010-06-26T05:56:19Z</time>
      </trkpt>
      <trkpt lat="43.56641" lon="6.65241">
        <ele>259.2126465</ele>
        <time>2010-06-26T05:56:23Z</time>
      </trkpt>
      <trkpt lat="43.56639" lon="6.65255">
        <ele>256.8093262</ele>
        <time>2010-06-26T05:56:32Z</time>
      </trkpt>
      <trkpt lat="43.5664" lon="6.65255">
        <ele>257.2900391</ele>
        <time>2010-06-26T05:56:41Z</time>
      </trkpt>
      <trkpt lat="43.56642" lon="6.65255">
        <ele>256.8093262</ele>
        <time>2010-06-26T05:56:44Z</time>
      </trkpt>
      <trkpt lat="43.56642" lon="6.65252">
        <ele>257.2900391</ele>
        <time>2010-06-26T05:56:46Z</time>
      </trkpt>
      <trkpt lat="43.56633" lon="6.65237">
        <ele>259.6933594</ele>
        <time>2010-06-26T05:56:53Z</time>
      </trkpt>
      <trkpt lat="43.56633" lon="6.65232">
        <ele>260.654541</ele>
        <time>2010-06-26T05:56:55Z</time>
      </trkpt>
      <trkpt lat="43.56642" lon="6.6523">
        <ele>259.6933594</ele>
        <time>2010-06-26T05:57:00Z</time>
      </trkpt>
      <trkpt lat="43.56665" lon="6.65222">
        <ele>259.6933594</ele>
        <time>2010-06-26T05:57:17Z</time>
      </trkpt>
      <trkpt lat="43.56667" lon="6.65222">
        <ele>259.6933594</ele>
        <time>2010-06-26T05:57:36Z</time>
      </trkpt>
      <trkpt lat="43.56668" lon="6.65223">
        <ele>260.654541</ele>
        <time>2010-06-26T05:58:26Z</time>
      </trkpt>
      <trkpt lat="43.56659" lon="6.65223">
        <ele>260.654541</ele>
        <time>2010-06-26T05:58:33Z</time>
      </trkpt>
      <trkpt lat="43.56627" lon="6.65227">
        <ele>259.2126465</ele>
        <time>2010-06-26T05:58:46Z</time>
      </trkpt>
      <trkpt lat="43.56613" lon="6.65187">
        <ele>261.1352539</ele>
        <time>2010-06-26T05:58:57Z</time>
      </trkpt>
      <trkpt lat="43.56611" lon="6.65131">
        <ele>260.654541</ele>
        <time>2010-06-26T05:59:10Z</time>
      </trkpt>
      <trkpt lat="43.56614" lon="6.65119">
        <ele>259.6933594</ele>
        <time>2010-06-26T05:59:12Z</time>
      </trkpt>
      <trkpt lat="43.56619" lon="6.65081">
        <ele>258.2513428</ele>
        <time>2010-06-26T05:59:18Z</time>
      </trkpt>
      <trkpt lat="43.5662" lon="6.65064">
        <ele>256.8093262</ele>
        <time>2010-06-26T05:59:20Z</time>
      </trkpt>
      <trkpt lat="43.56623" lon="6.65043">
        <ele>255.8480225</ele>
        <time>2010-06-26T05:59:23Z</time>
      </trkpt>
      <trkpt lat="43.56629" lon="6.64984">
        <ele>254.4060059</ele>
        <time>2010-06-26T05:59:32Z</time>
      </trkpt>
      <trkpt lat="43.56622" lon="6.64944">
        <ele>252.0028076</ele>
        <time>2010-06-26T05:59:37Z</time>
      </trkpt>
      <trkpt lat="43.56606" lon="6.64905">
        <ele>247.6767578</ele>
        <time>2010-06-26T05:59:41Z</time>
      </trkpt>
      <trkpt lat="43.56602" lon="6.64895">
        <ele>246.7154541</ele>
        <time>2010-06-26T05:59:42Z</time>
      </trkpt>
      <trkpt lat="43.56601" lon="6.64842">
        <ele>246.2348633</ele>
        <time>2010-06-26T05:59:49Z</time>
      </trkpt>
      <trkpt lat="43.56603" lon="6.64835">
        <ele>244.7928467</ele>
        <time>2010-06-26T05:59:50Z</time>
      </trkpt>
      <trkpt lat="43.56607" lon="6.64808">
        <ele>239.5054932</ele>
        <time>2010-06-26T05:59:54Z</time>
      </trkpt>
      <trkpt lat="43.56609" lon="6.64793">
        <ele>237.5828857</ele>
        <time>2010-06-26T05:59:56Z</time>
      </trkpt>
      <trkpt lat="43.56611" lon="6.64767">
        <ele>236.1409912</ele>
        <time>2010-06-26T05:59:59Z</time>
      </trkpt>
      <trkpt lat="43.56611" lon="6.6476">
        <ele>235.6602783</ele>
        <time>2010-06-26T06:00:00Z</time>
      </trkpt>
      <trkpt lat="43.56636" lon="6.64757">
        <ele>235.1796875</ele>
        <time>2010-06-26T06:00:08Z</time>
      </trkpt>
      <trkpt lat="43.56646" lon="6.64751">
        <ele>231.8149414</ele>
        <time>2010-06-26T06:00:12Z</time>
      </trkpt>
      <trkpt lat="43.56655" lon="6.64743">
        <ele>230.8537598</ele>
        <time>2010-06-26T06:00:14Z</time>
      </trkpt>
      <trkpt lat="43.56664" lon="6.64734">
        <ele>229.892334</ele>
        <time>2010-06-26T06:00:16Z</time>
      </trkpt>
      <trkpt lat="43.5669" lon="6.64711">
        <ele>225.5665283</ele>
        <time>2010-06-26T06:00:22Z</time>
      </trkpt>
      <trkpt lat="43.56698" lon="6.64708">
        <ele>224.1245117</ele>
        <time>2010-06-26T06:00:24Z</time>
      </trkpt>
      <trkpt lat="43.56713" lon="6.64705">
        <ele>222.6824951</ele>
        <time>2010-06-26T06:00:27Z</time>
      </trkpt>
      <trkpt lat="43.56727" lon="6.64706">
        <ele>220.2791748</ele>
        <time>2010-06-26T06:00:30Z</time>
      </trkpt>
      <trkpt lat="43.56744" lon="6.64705">
        <ele>216.9146729</ele>
        <time>2010-06-26T06:00:36Z</time>
      </trkpt>
      <trkpt lat="43.56757" lon="6.64705">
        <ele>213.5500488</ele>
        <time>2010-06-26T06:00:41Z</time>
      </trkpt>
      <trkpt lat="43.56766" lon="6.6471">
        <ele>212.1080322</ele>
        <time>2010-06-26T06:00:44Z</time>
      </trkpt>
      <trkpt lat="43.56781" lon="6.64726">
        <ele>208.2628174</ele>
        <time>2010-06-26T06:00:48Z</time>
      </trkpt>
      <trkpt lat="43.56785" lon="6.64728">
        <ele>208.2628174</ele>
        <time>2010-06-26T06:00:49Z</time>
      </trkpt>
      <trkpt lat="43.56795" lon="6.64735">
        <ele>206.3400879</ele>
        <time>2010-06-26T06:00:52Z</time>
      </trkpt>
      <trkpt lat="43.56803" lon="6.64741">
        <ele>203.9368896</ele>
        <time>2010-06-26T06:00:54Z</time>
      </trkpt>
      <trkpt lat="43.56816" lon="6.64747">
        <ele>202.494873</ele>
        <time>2010-06-26T06:00:57Z</time>
      </trkpt>
      <trkpt lat="43.56824" lon="6.64766">
        <ele>202.0142822</ele>
        <time>2010-06-26T06:01:02Z</time>
      </trkpt>
      <trkpt lat="43.56843" lon="6.64757">
        <ele>201.5335693</ele>
        <time>2010-06-26T06:01:10Z</time>
      </trkpt>
      <trkpt lat="43.56841" lon="6.64739">
        <ele>201.5335693</ele>
        <time>2010-06-26T06:01:14Z</time>
      </trkpt>
      <trkpt lat="43.56848" lon="6.64685">
        <ele>202.9754639</ele>
        <time>2010-06-26T06:01:28Z</time>
      </trkpt>
      <trkpt lat="43.56864" lon="6.64639">
        <ele>205.3787842</ele>
        <time>2010-06-26T06:01:44Z</time>
      </trkpt>
      <trkpt lat="43.56868" lon="6.64588">
        <ele>207.3013916</ele>
        <time>2010-06-26T06:02:00Z</time>
      </trkpt>
      <trkpt lat="43.56887" lon="6.64549">
        <ele>208.2628174</ele>
        <time>2010-06-26T06:02:14Z</time>
      </trkpt>
      <trkpt lat="43.56882" lon="6.64537">
        <ele>209.2241211</ele>
        <time>2010-06-26T06:02:18Z</time>
      </trkpt>
      <trkpt lat="43.56869" lon="6.64491">
        <ele>210.6660156</ele>
        <time>2010-06-26T06:02:35Z</time>
      </trkpt>
      <trkpt lat="43.56866" lon="6.64446">
        <ele>211.6274414</ele>
        <time>2010-06-26T06:02:48Z</time>
      </trkpt>
      <trkpt lat="43.56885" lon="6.64402">
        <ele>212.588623</ele>
        <time>2010-06-26T06:03:01Z</time>
      </trkpt>
      <trkpt lat="43.56917" lon="6.64374">
        <ele>212.588623</ele>
        <time>2010-06-26T06:03:14Z</time>
      </trkpt>
      <trkpt lat="43.56955" lon="6.64361">
        <ele>213.0693359</ele>
        <time>2010-06-26T06:03:28Z</time>
      </trkpt>
      <trkpt lat="43.56975" lon="6.64385">
        <ele>212.588623</ele>
        <time>2010-06-26T06:03:36Z</time>
      </trkpt>
      <trkpt lat="43.56985" lon="6.64374">
        <ele>213.0693359</ele>
        <time>2010-06-26T06:03:42Z</time>
      </trkpt>
      <trkpt lat="43.56997" lon="6.64334">
        <ele>214.0306396</ele>
        <time>2010-06-26T06:03:53Z</time>
      </trkpt>
      <trkpt lat="43.57041" lon="6.64294">
        <ele>214.5112305</ele>
        <time>2010-06-26T06:04:11Z</time>
      </trkpt>
      <trkpt lat="43.57063" lon="6.64285">
        <ele>213.0693359</ele>
        <time>2010-06-26T06:04:17Z</time>
      </trkpt>
      <trkpt lat="43.57085" lon="6.64286">
        <ele>213.0693359</ele>
        <time>2010-06-26T06:04:22Z</time>
      </trkpt>
      <trkpt lat="43.57083" lon="6.64261">
        <ele>213.0693359</ele>
        <time>2010-06-26T06:04:29Z</time>
      </trkpt>
      <trkpt lat="43.57073" lon="6.64254">
        <ele>214.0306396</ele>
        <time>2010-06-26T06:04:33Z</time>
      </trkpt>
      <trkpt lat="43.57038" lon="6.64244">
        <ele>214.5112305</ele>
        <time>2010-06-26T06:04:48Z</time>
      </trkpt>
      <trkpt lat="43.56982" lon="6.64256">
        <ele>215.9532471</ele>
        <time>2010-06-26T06:05:06Z</time>
      </trkpt>
      <trkpt lat="43.56974" lon="6.6424">
        <ele>215.9532471</ele>
        <time>2010-06-26T06:05:11Z</time>
      </trkpt>
      <trkpt lat="43.56987" lon="6.64176">
        <ele>214.0306396</ele>
        <time>2010-06-26T06:05:25Z</time>
      </trkpt>
      <trkpt lat="43.56993" lon="6.64167">
        <ele>213.5500488</ele>
        <time>2010-06-26T06:05:27Z</time>
      </trkpt>
      <trkpt lat="43.57009" lon="6.64123">
        <ele>212.588623</ele>
        <time>2010-06-26T06:05:35Z</time>
      </trkpt>
      <trkpt lat="43.57011" lon="6.64111">
        <ele>212.1080322</ele>
        <time>2010-06-26T06:05:37Z</time>
      </trkpt>
      <trkpt lat="43.57013" lon="6.64099">
        <ele>212.1080322</ele>
        <time>2010-06-26T06:05:39Z</time>
      </trkpt>
      <trkpt lat="43.57028" lon="6.64074">
        <ele>210.6660156</ele>
        <time>2010-06-26T06:05:44Z</time>
      </trkpt>
      <trkpt lat="43.57059" lon="6.64066">
        <ele>208.7434082</ele>
        <time>2010-06-26T06:05:50Z</time>
      </trkpt>
      <trkpt lat="43.57088" lon="6.64069">
        <ele>207.7821045</ele>
        <time>2010-06-26T06:05:56Z</time>
      </trkpt>
      <trkpt lat="43.57092" lon="6.64026">
        <ele>206.3400879</ele>
        <time>2010-06-26T06:06:03Z</time>
      </trkpt>
      <trkpt lat="43.57133" lon="6.63995">
        <ele>204.4174805</ele>
        <time>2010-06-26T06:06:12Z</time>
      </trkpt>
      <trkpt lat="43.57149" lon="6.64007">
        <ele>202.0142822</ele>
        <time>2010-06-26T06:06:15Z</time>
      </trkpt>
      <trkpt lat="43.57158" lon="6.6402">
        <ele>201.0528564</ele>
        <time>2010-06-26T06:06:17Z</time>
      </trkpt>
      <trkpt lat="43.57168" lon="6.6403">
        <ele>200.5722656</ele>
        <time>2010-06-26T06:06:19Z</time>
      </trkpt>
      <trkpt lat="43.57182" lon="6.6404">
        <ele>200.5722656</ele>
        <time>2010-06-26T06:06:22Z</time>
      </trkpt>
      <trkpt lat="43.5721" lon="6.64051">
        <ele>199.6108398</ele>
        <time>2010-06-26T06:06:30Z</time>
      </trkpt>
      <trkpt lat="43.5721" lon="6.64019">
        <ele>201.5335693</ele>
        <time>2010-06-26T06:06:38Z</time>
      </trkpt>
      <trkpt lat="43.57199" lon="6.63957">
        <ele>203.9368896</ele>
        <time>2010-06-26T06:06:56Z</time>
      </trkpt>
      <trkpt lat="43.57229" lon="6.63924">
        <ele>204.4174805</ele>
        <time>2010-06-26T06:07:11Z</time>
      </trkpt>
      <trkpt lat="43.5726" lon="6.63915">
        <ele>205.8594971</ele>
        <time>2010-06-26T06:07:25Z</time>
      </trkpt>
      <trkpt lat="43.57271" lon="6.63907">
        <ele>206.8206787</ele>
        <time>2010-06-26T06:07:33Z</time>
      </trkpt>
      <trkpt lat="43.57266" lon="6.6392">
        <ele>208.2628174</ele>
        <time>2010-06-26T06:07:42Z</time>
      </trkpt>
      <trkpt lat="43.57263" lon="6.63923">
        <ele>208.2628174</ele>
        <time>2010-06-26T06:07:44Z</time>
      </trkpt>
      <trkpt lat="43.57247" lon="6.6395">
        <ele>211.6274414</ele>
        <time>2010-06-26T06:07:59Z</time>
      </trkpt>
      <trkpt lat="43.57249" lon="6.6399">
        <ele>214.5112305</ele>
        <time>2010-06-26T06:08:16Z</time>
      </trkpt>
      <trkpt lat="43.57274" lon="6.64001">
        <ele>215.9532471</ele>
        <time>2010-06-26T06:08:30Z</time>
      </trkpt>
      <trkpt lat="43.57284" lon="6.63974">
        <ele>219.3179932</ele>
        <time>2010-06-26T06:08:43Z</time>
      </trkpt>
      <trkpt lat="43.57305" lon="6.63945">
        <ele>221.7211914</ele>
        <time>2010-06-26T06:08:59Z</time>
      </trkpt>
      <trkpt lat="43.57328" lon="6.63944">
        <ele>225.0859375</ele>
        <time>2010-06-26T06:09:11Z</time>
      </trkpt>
      <trkpt lat="43.57371" lon="6.63942">
        <ele>228.4504395</ele>
        <time>2010-06-26T06:09:31Z</time>
      </trkpt>
      <trkpt lat="43.57406" lon="6.63945">
        <ele>231.8149414</ele>
        <time>2010-06-26T06:09:48Z</time>
      </trkpt>
      <trkpt lat="43.57428" lon="6.63975">
        <ele>232.7764893</ele>
        <time>2010-06-26T06:10:02Z</time>
      </trkpt>
      <trkpt lat="43.57433" lon="6.64008">
        <ele>235.6602783</ele>
        <time>2010-06-26T06:10:13Z</time>
      </trkpt>
      <trkpt lat="43.57439" lon="6.64035">
        <ele>238.5443115</ele>
        <time>2010-06-26T06:10:22Z</time>
      </trkpt>
      <trkpt lat="43.57449" lon="6.64085">
        <ele>239.5054932</ele>
        <time>2010-06-26T06:10:38Z</time>
      </trkpt>
      <trkpt lat="43.57469" lon="6.64117">
        <ele>239.9862061</ele>
        <time>2010-06-26T06:10:51Z</time>
      </trkpt>
      <trkpt lat="43.57501" lon="6.64137">
        <ele>240.9476318</ele>
        <time>2010-06-26T06:11:05Z</time>
      </trkpt>
      <trkpt lat="43.57511" lon="6.64157">
        <ele>244.3122559</ele>
        <time>2010-06-26T06:11:12Z</time>
      </trkpt>
      <trkpt lat="43.57535" lon="6.64193">
        <ele>245.7541504</ele>
        <time>2010-06-26T06:11:27Z</time>
      </trkpt>
      <trkpt lat="43.57585" lon="6.64192">
        <ele>247.1960449</ele>
        <time>2010-06-26T06:11:46Z</time>
      </trkpt>
      <trkpt lat="43.57603" lon="6.64167">
        <ele>250.560791</ele>
        <time>2010-06-26T06:11:56Z</time>
      </trkpt>
      <trkpt lat="43.57632" lon="6.64164">
        <ele>250.560791</ele>
        <time>2010-06-26T06:12:09Z</time>
      </trkpt>
      <trkpt lat="43.57664" lon="6.64195">
        <ele>251.5220947</ele>
        <time>2010-06-26T06:12:24Z</time>
      </trkpt>
      <trkpt lat="43.57699" lon="6.64222">
        <ele>253.4447021</ele>
        <time>2010-06-26T06:12:39Z</time>
      </trkpt>
      <trkpt lat="43.5771" lon="6.64229">
        <ele>253.4447021</ele>
        <time>2010-06-26T06:12:47Z</time>
      </trkpt>
      <trkpt lat="43.57705" lon="6.64226">
        <ele>253.4447021</ele>
        <time>2010-06-26T06:13:00Z</time>
      </trkpt>
      <trkpt lat="43.57707" lon="6.64226">
        <ele>253.4447021</ele>
        <time>2010-06-26T06:13:26Z</time>
      </trkpt>
      <trkpt lat="43.57709" lon="6.64227">
        <ele>252.9639893</ele>
        <time>2010-06-26T06:13:30Z</time>
      </trkpt>
      <trkpt lat="43.57733" lon="6.6425">
        <ele>253.4447021</ele>
        <time>2010-06-26T06:13:41Z</time>
      </trkpt>
      <trkpt lat="43.57757" lon="6.6428">
        <ele>256.3287354</ele>
        <time>2010-06-26T06:13:53Z</time>
      </trkpt>
      <trkpt lat="43.57762" lon="6.64283">
        <ele>257.770752</ele>
        <time>2010-06-26T06:13:56Z</time>
      </trkpt>
      <trkpt lat="43.57781" lon="6.64317">
        <ele>258.7319336</ele>
        <time>2010-06-26T06:14:10Z</time>
      </trkpt>
      <trkpt lat="43.57803" lon="6.64351">
        <ele>260.1739502</ele>
        <time>2010-06-26T06:14:24Z</time>
      </trkpt>
      <trkpt lat="43.57808" lon="6.64365">
        <ele>259.6933594</ele>
        <time>2010-06-26T06:14:30Z</time>
      </trkpt>
      <trkpt lat="43.57808" lon="6.6438">
        <ele>260.1739502</ele>
        <time>2010-06-26T06:14:35Z</time>
      </trkpt>
      <trkpt lat="43.57804" lon="6.64433">
        <ele>261.6159668</ele>
        <time>2010-06-26T06:14:50Z</time>
      </trkpt>
      <trkpt lat="43.5781" lon="6.64471">
        <ele>263.5385742</ele>
        <time>2010-06-26T06:15:05Z</time>
      </trkpt>
      <trkpt lat="43.57828" lon="6.645">
        <ele>264.0192871</ele>
        <time>2010-06-26T06:15:18Z</time>
      </trkpt>
      <trkpt lat="43.57835" lon="6.64507">
        <ele>264.0192871</ele>
        <time>2010-06-26T06:15:22Z</time>
      </trkpt>
      <trkpt lat="43.57845" lon="6.64493">
        <ele>264.4998779</ele>
        <time>2010-06-26T06:15:32Z</time>
      </trkpt>
      <trkpt lat="43.57847" lon="6.64469">
        <ele>265.9418945</ele>
        <time>2010-06-26T06:15:42Z</time>
      </trkpt>
      <trkpt lat="43.57847" lon="6.64465">
        <ele>266.9031982</ele>
        <time>2010-06-26T06:15:44Z</time>
      </trkpt>
      <trkpt lat="43.57853" lon="6.6445">
        <ele>268.8258057</ele>
        <time>2010-06-26T06:15:52Z</time>
      </trkpt>
      <trkpt lat="43.57856" lon="6.64449">
        <ele>269.7871094</ele>
        <time>2010-06-26T06:15:54Z</time>
      </trkpt>
      <trkpt lat="43.57868" lon="6.64445">
        <ele>270.7484131</ele>
        <time>2010-06-26T06:16:02Z</time>
      </trkpt>
      <trkpt lat="43.57878" lon="6.64453">
        <ele>272.1904297</ele>
        <time>2010-06-26T06:16:08Z</time>
      </trkpt>
      <trkpt lat="43.57901" lon="6.64463">
        <ele>273.6324463</ele>
        <time>2010-06-26T06:16:22Z</time>
      </trkpt>
      <trkpt lat="43.57905" lon="6.64463">
        <ele>273.1518555</ele>
        <time>2010-06-26T06:16:24Z</time>
      </trkpt>
      <trkpt lat="43.57912" lon="6.6446">
        <ele>273.1518555</ele>
        <time>2010-06-26T06:16:29Z</time>
      </trkpt>
      <trkpt lat="43.57942" lon="6.64441">
        <ele>274.59375</ele>
        <time>2010-06-26T06:16:46Z</time>
      </trkpt>
      <trkpt lat="43.57975" lon="6.64429">
        <ele>274.1130371</ele>
        <time>2010-06-26T06:17:00Z</time>
      </trkpt>
      <trkpt lat="43.57983" lon="6.64428">
        <ele>273.1518555</ele>
        <time>2010-06-26T06:17:02Z</time>
      </trkpt>
      <trkpt lat="43.58003" lon="6.64424">
        <ele>274.59375</ele>
        <time>2010-06-26T06:17:11Z</time>
      </trkpt>
      <trkpt lat="43.58004" lon="6.64421">
        <ele>275.0744629</ele>
        <time>2010-06-26T06:17:13Z</time>
      </trkpt>
      <trkpt lat="43.58003" lon="6.64417">
        <ele>275.5550537</ele>
        <time>2010-06-26T06:17:15Z</time>
      </trkpt>
      <trkpt lat="43.57993" lon="6.64387">
        <ele>278.9196777</ele>
        <time>2010-06-26T06:17:29Z</time>
      </trkpt>
      <trkpt lat="43.57997" lon="6.6435">
        <ele>278.9196777</ele>
        <time>2010-06-26T06:17:43Z</time>
      </trkpt>
      <trkpt lat="43.57998" lon="6.64343">
        <ele>278.4389648</ele>
        <time>2010-06-26T06:17:45Z</time>
      </trkpt>
      <trkpt lat="43.5799" lon="6.64328">
        <ele>276.5163574</ele>
        <time>2010-06-26T06:17:50Z</time>
      </trkpt>
      <trkpt lat="43.57986" lon="6.64293">
        <ele>273.6324463</ele>
        <time>2010-06-26T06:17:59Z</time>
      </trkpt>
      <trkpt lat="43.57985" lon="6.6429">
        <ele>273.6324463</ele>
        <time>2010-06-26T06:18:00Z</time>
      </trkpt>
      <trkpt lat="43.57966" lon="6.64273">
        <ele>269.7871094</ele>
        <time>2010-06-26T06:18:09Z</time>
      </trkpt>
      <trkpt lat="43.57965" lon="6.6427">
        <ele>269.7871094</ele>
        <time>2010-06-26T06:18:10Z</time>
      </trkpt>
      <trkpt lat="43.57952" lon="6.64247">
        <ele>266.4224854</ele>
        <time>2010-06-26T06:18:19Z</time>
      </trkpt>
      <trkpt lat="43.5795" lon="6.64244">
        <ele>266.4224854</ele>
        <time>2010-06-26T06:18:20Z</time>
      </trkpt>
      <trkpt lat="43.57933" lon="6.64223">
        <ele>263.5385742</ele>
        <time>2010-06-26T06:18:27Z</time>
      </trkpt>
      <trkpt lat="43.57929" lon="6.64218">
        <ele>262.5771484</ele>
        <time>2010-06-26T06:18:29Z</time>
      </trkpt>
      <trkpt lat="43.57923" lon="6.64194">
        <ele>260.654541</ele>
        <time>2010-06-26T06:18:36Z</time>
      </trkpt>
      <trkpt lat="43.57922" lon="6.64186">
        <ele>260.1739502</ele>
        <time>2010-06-26T06:18:39Z</time>
      </trkpt>
      <trkpt lat="43.5792" lon="6.64168">
        <ele>257.770752</ele>
        <time>2010-06-26T06:18:44Z</time>
      </trkpt>
      <trkpt lat="43.57918" lon="6.64162">
        <ele>257.2900391</ele>
        <time>2010-06-26T06:18:53Z</time>
      </trkpt>
      <trkpt lat="43.57918" lon="6.6416">
        <ele>256.3287354</ele>
        <time>2010-06-26T06:19:13Z</time>
      </trkpt>
      <trkpt lat="43.57916" lon="6.64158">
        <ele>256.3287354</ele>
        <time>2010-06-26T06:19:15Z</time>
      </trkpt>
      <trkpt lat="43.57899" lon="6.64125">
        <ele>254.4060059</ele>
        <time>2010-06-26T06:19:25Z</time>
      </trkpt>
      <trkpt lat="43.57892" lon="6.64083">
        <ele>252.4833984</ele>
        <time>2010-06-26T06:19:35Z</time>
      </trkpt>
      <trkpt lat="43.57879" lon="6.64046">
        <ele>248.6381836</ele>
        <time>2010-06-26T06:19:44Z</time>
      </trkpt>
      <trkpt lat="43.57871" lon="6.64031">
        <ele>245.2734375</ele>
        <time>2010-06-26T06:19:48Z</time>
      </trkpt>
      <trkpt lat="43.57867" lon="6.64016">
        <ele>243.3508301</ele>
        <time>2010-06-26T06:19:53Z</time>
      </trkpt>
      <trkpt lat="43.57864" lon="6.6401">
        <ele>239.9862061</ele>
        <time>2010-06-26T06:19:55Z</time>
      </trkpt>
      <trkpt lat="43.57861" lon="6.64006">
        <ele>239.9862061</ele>
        <time>2010-06-26T06:19:56Z</time>
      </trkpt>
      <trkpt lat="43.57846" lon="6.63986">
        <ele>237.1022949</ele>
        <time>2010-06-26T06:20:02Z</time>
      </trkpt>
      <trkpt lat="43.5784" lon="6.63961">
        <ele>234.6990967</ele>
        <time>2010-06-26T06:20:07Z</time>
      </trkpt>
      <trkpt lat="43.57843" lon="6.63948">
        <ele>233.2570801</ele>
        <time>2010-06-26T06:20:10Z</time>
      </trkpt>
      <trkpt lat="43.5784" lon="6.63914">
        <ele>229.892334</ele>
        <time>2010-06-26T06:20:16Z</time>
      </trkpt>
      <trkpt lat="43.57834" lon="6.63874">
        <ele>227.0085449</ele>
        <time>2010-06-26T06:20:24Z</time>
      </trkpt>
      <trkpt lat="43.57819" lon="6.63853">
        <ele>223.6437988</ele>
        <time>2010-06-26T06:20:30Z</time>
      </trkpt>
      <trkpt lat="43.5781" lon="6.63848">
        <ele>222.6824951</ele>
        <time>2010-06-26T06:20:32Z</time>
      </trkpt>
      <trkpt lat="43.57793" lon="6.63838">
        <ele>222.6824951</ele>
        <time>2010-06-26T06:20:37Z</time>
      </trkpt>
      <trkpt lat="43.57784" lon="6.63825">
        <ele>219.798584</ele>
        <time>2010-06-26T06:20:41Z</time>
      </trkpt>
      <trkpt lat="43.57773" lon="6.63807">
        <ele>215.9532471</ele>
        <time>2010-06-26T06:20:46Z</time>
      </trkpt>
      <trkpt lat="43.57768" lon="6.63798">
        <ele>215.4726563</ele>
        <time>2010-06-26T06:20:48Z</time>
      </trkpt>
      <trkpt lat="43.57754" lon="6.63779">
        <ele>214.5112305</ele>
        <time>2010-06-26T06:20:52Z</time>
      </trkpt>
      <trkpt lat="43.57748" lon="6.63768">
        <ele>213.5500488</ele>
        <time>2010-06-26T06:20:54Z</time>
      </trkpt>
      <trkpt lat="43.5773" lon="6.63758">
        <ele>213.5500488</ele>
        <time>2010-06-26T06:20:59Z</time>
      </trkpt>
      <trkpt lat="43.57694" lon="6.63769">
        <ele>213.0693359</ele>
        <time>2010-06-26T06:21:14Z</time>
      </trkpt>
      <trkpt lat="43.57664" lon="6.63784">
        <ele>210.1854248</ele>
        <time>2010-06-26T06:21:23Z</time>
      </trkpt>
      <trkpt lat="43.57657" lon="6.63788">
        <ele>209.2241211</ele>
        <time>2010-06-26T06:21:25Z</time>
      </trkpt>
      <trkpt lat="43.5765" lon="6.6379">
        <ele>208.7434082</ele>
        <time>2010-06-26T06:21:27Z</time>
      </trkpt>
      <trkpt lat="43.57626" lon="6.63784">
        <ele>210.6660156</ele>
        <time>2010-06-26T06:21:38Z</time>
      </trkpt>
      <trkpt lat="43.5759" lon="6.638">
        <ele>210.6660156</ele>
        <time>2010-06-26T06:21:54Z</time>
      </trkpt>
      <trkpt lat="43.57556" lon="6.63824">
        <ele>209.2241211</ele>
        <time>2010-06-26T06:22:08Z</time>
      </trkpt>
      <trkpt lat="43.57525" lon="6.6385">
        <ele>206.3400879</ele>
        <time>2010-06-26T06:22:19Z</time>
      </trkpt>
      <trkpt lat="43.57519" lon="6.63856">
        <ele>206.3400879</ele>
        <time>2010-06-26T06:22:21Z</time>
      </trkpt>
      <trkpt lat="43.57517" lon="6.6386">
        <ele>206.8206787</ele>
        <time>2010-06-26T06:22:35Z</time>
      </trkpt>
      <trkpt lat="43.57507" lon="6.63863">
        <ele>206.3400879</ele>
        <time>2010-06-26T06:22:58Z</time>
      </trkpt>
      <trkpt lat="43.57488" lon="6.63872">
        <ele>205.3787842</ele>
        <time>2010-06-26T06:23:07Z</time>
      </trkpt>
      <trkpt lat="43.57482" lon="6.6387">
        <ele>206.8206787</ele>
        <time>2010-06-26T06:24:33Z</time>
      </trkpt>
      <trkpt lat="43.57466" lon="6.6387">
        <ele>204.8980713</ele>
        <time>2010-06-26T06:24:43Z</time>
      </trkpt>
      <trkpt lat="43.5746" lon="6.63871">
        <ele>202.9754639</ele>
        <time>2010-06-26T06:24:47Z</time>
      </trkpt>
      <trkpt lat="43.57456" lon="6.6387">
        <ele>202.9754639</ele>
        <time>2010-06-26T06:24:50Z</time>
      </trkpt>
      <trkpt lat="43.57452" lon="6.63859">
        <ele>201.5335693</ele>
        <time>2010-06-26T06:25:03Z</time>
      </trkpt>
      <trkpt lat="43.57448" lon="6.63855">
        <ele>201.5335693</ele>
        <time>2010-06-26T06:25:19Z</time>
      </trkpt>
      <trkpt lat="43.57447" lon="6.63854">
        <ele>202.0142822</ele>
        <time>2010-06-26T06:26:11Z</time>
      </trkpt>
      <trkpt lat="43.57441" lon="6.63851">
        <ele>202.9754639</ele>
        <time>2010-06-26T06:26:28Z</time>
      </trkpt>
      <trkpt lat="43.57438" lon="6.63849">
        <ele>202.9754639</ele>
        <time>2010-06-26T06:26:41Z</time>
      </trkpt>
      <trkpt lat="43.5743" lon="6.63849">
        <ele>202.9754639</ele>
        <time>2010-06-26T06:26:48Z</time>
      </trkpt>
      <trkpt lat="43.5742" lon="6.63842">
        <ele>202.9754639</ele>
        <time>2010-06-26T06:26:54Z</time>
      </trkpt>
      <trkpt lat="43.57399" lon="6.63841">
        <ele>202.9754639</ele>
        <time>2010-06-26T06:27:03Z</time>
      </trkpt>
      <trkpt lat="43.57387" lon="6.63839">
        <ele>200.5722656</ele>
        <time>2010-06-26T06:27:06Z</time>
      </trkpt>
      <trkpt lat="43.5735" lon="6.63826">
        <ele>202.494873</ele>
        <time>2010-06-26T06:27:18Z</time>
      </trkpt>
      <trkpt lat="43.5732" lon="6.63806">
        <ele>205.8594971</ele>
        <time>2010-06-26T06:27:32Z</time>
      </trkpt>
      <trkpt lat="43.57318" lon="6.63805">
        <ele>206.3400879</ele>
        <time>2010-06-26T06:27:33Z</time>
      </trkpt>
      <trkpt lat="43.57301" lon="6.63795">
        <ele>207.3013916</ele>
        <time>2010-06-26T06:27:42Z</time>
      </trkpt>
      <trkpt lat="43.57294" lon="6.6377">
        <ele>209.2241211</ele>
        <time>2010-06-26T06:27:52Z</time>
      </trkpt>
      <trkpt lat="43.57294" lon="6.63731">
        <ele>211.6274414</ele>
        <time>2010-06-26T06:28:07Z</time>
      </trkpt>
      <trkpt lat="43.57288" lon="6.63705">
        <ele>212.1080322</ele>
        <time>2010-06-26T06:28:19Z</time>
      </trkpt>
      <trkpt lat="43.57275" lon="6.63685">
        <ele>211.6274414</ele>
        <time>2010-06-26T06:28:27Z</time>
      </trkpt>
      <trkpt lat="43.57251" lon="6.63678">
        <ele>210.6660156</ele>
        <time>2010-06-26T06:28:38Z</time>
      </trkpt>
      <trkpt lat="43.57233" lon="6.63676">
        <ele>206.3400879</ele>
        <time>2010-06-26T06:28:46Z</time>
      </trkpt>
      <trkpt lat="43.5723" lon="6.63675">
        <ele>206.3400879</ele>
        <time>2010-06-26T06:28:47Z</time>
      </trkpt>
      <trkpt lat="43.57225" lon="6.63676">
        <ele>204.8980713</ele>
        <time>2010-06-26T06:28:49Z</time>
      </trkpt>
      <trkpt lat="43.57208" lon="6.63675">
        <ele>203.4561768</ele>
        <time>2010-06-26T06:28:54Z</time>
      </trkpt>
      <trkpt lat="43.57201" lon="6.63679">
        <ele>202.0142822</ele>
        <time>2010-06-26T06:28:56Z</time>
      </trkpt>
      <trkpt lat="43.57193" lon="6.63683">
        <ele>201.0528564</ele>
        <time>2010-06-26T06:28:59Z</time>
      </trkpt>
      <trkpt lat="43.5719" lon="6.63679">
        <ele>200.0916748</ele>
        <time>2010-06-26T06:29:12Z</time>
      </trkpt>
      <trkpt lat="43.57191" lon="6.63676">
        <ele>200.0916748</ele>
        <time>2010-06-26T06:29:30Z</time>
      </trkpt>
      <trkpt lat="43.57192" lon="6.63676">
        <ele>200.5722656</ele>
        <time>2010-06-26T06:30:15Z</time>
      </trkpt>
      <trkpt lat="43.57208" lon="6.6365">
        <ele>200.5722656</ele>
        <time>2010-06-26T06:30:28Z</time>
      </trkpt>
      <trkpt lat="43.57227" lon="6.63614">
        <ele>202.0142822</ele>
        <time>2010-06-26T06:30:43Z</time>
      </trkpt>
      <trkpt lat="43.57251" lon="6.63593">
        <ele>202.0142822</ele>
        <time>2010-06-26T06:30:55Z</time>
      </trkpt>
      <trkpt lat="43.57253" lon="6.63591">
        <ele>202.0142822</ele>
        <time>2010-06-26T06:30:56Z</time>
      </trkpt>
      <trkpt lat="43.57262" lon="6.63584">
        <ele>202.0142822</ele>
        <time>2010-06-26T06:31:02Z</time>
      </trkpt>
      <trkpt lat="43.57276" lon="6.63572">
        <ele>202.494873</ele>
        <time>2010-06-26T06:31:10Z</time>
      </trkpt>
      <trkpt lat="43.57287" lon="6.63564">
        <ele>202.494873</ele>
        <time>2010-06-26T06:31:16Z</time>
      </trkpt>
      <trkpt lat="43.573" lon="6.63551">
        <ele>203.9368896</ele>
        <time>2010-06-26T06:31:23Z</time>
      </trkpt>
      <trkpt lat="43.57304" lon="6.6354">
        <ele>203.9368896</ele>
        <time>2010-06-26T06:31:27Z</time>
      </trkpt>
      <trkpt lat="43.57321" lon="6.635">
        <ele>205.8594971</ele>
        <time>2010-06-26T06:31:43Z</time>
      </trkpt>
      <trkpt lat="43.5731" lon="6.63466">
        <ele>207.7821045</ele>
        <time>2010-06-26T06:31:57Z</time>
      </trkpt>
      <trkpt lat="43.57307" lon="6.63428">
        <ele>211.6274414</ele>
        <time>2010-06-26T06:32:12Z</time>
      </trkpt>
      <trkpt lat="43.57306" lon="6.63425">
        <ele>211.6274414</ele>
        <time>2010-06-26T06:32:13Z</time>
      </trkpt>
      <trkpt lat="43.57295" lon="6.63394">
        <ele>214.5112305</ele>
        <time>2010-06-26T06:32:26Z</time>
      </trkpt>
      <trkpt lat="43.57278" lon="6.63354">
        <ele>214.9919434</ele>
        <time>2010-06-26T06:32:43Z</time>
      </trkpt>
      <trkpt lat="43.57262" lon="6.6333">
        <ele>218.8372803</ele>
        <time>2010-06-26T06:32:57Z</time>
      </trkpt>
      <trkpt lat="43.5726" lon="6.63329">
        <ele>219.3179932</ele>
        <time>2010-06-26T06:32:58Z</time>
      </trkpt>
      <trkpt lat="43.57243" lon="6.63313">
        <ele>222.2017822</ele>
        <time>2010-06-26T06:33:11Z</time>
      </trkpt>
      <trkpt lat="43.57233" lon="6.63303">
        <ele>225.0859375</ele>
        <time>2010-06-26T06:33:18Z</time>
      </trkpt>
      <trkpt lat="43.57216" lon="6.63293">
        <ele>228.4504395</ele>
        <time>2010-06-26T06:33:29Z</time>
      </trkpt>
      <trkpt lat="43.57197" lon="6.63279">
        <ele>231.8149414</ele>
        <time>2010-06-26T06:33:42Z</time>
      </trkpt>
      <trkpt lat="43.57196" lon="6.63277">
        <ele>231.8149414</ele>
        <time>2010-06-26T06:33:43Z</time>
      </trkpt>
      <trkpt lat="43.57186" lon="6.63268">
        <ele>235.1796875</ele>
        <time>2010-06-26T06:33:53Z</time>
      </trkpt>
      <trkpt lat="43.5718" lon="6.63264">
        <ele>237.5828857</ele>
        <time>2010-06-26T06:34:08Z</time>
      </trkpt>
      <trkpt lat="43.57177" lon="6.63264">
        <ele>238.0635986</ele>
        <time>2010-06-26T06:34:11Z</time>
      </trkpt>
      <trkpt lat="43.57172" lon="6.63261">
        <ele>238.5443115</ele>
        <time>2010-06-26T06:34:15Z</time>
      </trkpt>
      <trkpt lat="43.57164" lon="6.6326">
        <ele>240.467041</ele>
        <time>2010-06-26T06:34:28Z</time>
      </trkpt>
      <trkpt lat="43.5715" lon="6.63259">
        <ele>241.9089355</ele>
        <time>2010-06-26T06:34:41Z</time>
      </trkpt>
      <trkpt lat="43.57142" lon="6.63259">
        <ele>242.8702393</ele>
        <time>2010-06-26T06:34:47Z</time>
      </trkpt>
      <trkpt lat="43.57133" lon="6.63262">
        <ele>244.3122559</ele>
        <time>2010-06-26T06:34:53Z</time>
      </trkpt>
      <trkpt lat="43.5712" lon="6.63259">
        <ele>246.7154541</ele>
        <time>2010-06-26T06:35:02Z</time>
      </trkpt>
      <trkpt lat="43.57109" lon="6.63248">
        <ele>247.6767578</ele>
        <time>2010-06-26T06:35:13Z</time>
      </trkpt>
      <trkpt lat="43.571" lon="6.63241">
        <ele>248.6381836</ele>
        <time>2010-06-26T06:35:20Z</time>
      </trkpt>
      <trkpt lat="43.57079" lon="6.63224">
        <ele>252.0028076</ele>
        <time>2010-06-26T06:35:35Z</time>
      </trkpt>
      <trkpt lat="43.57068" lon="6.6321">
        <ele>255.3673096</ele>
        <time>2010-06-26T06:35:44Z</time>
      </trkpt>
      <trkpt lat="43.57065" lon="6.63203">
        <ele>256.8093262</ele>
        <time>2010-06-26T06:35:48Z</time>
      </trkpt>
      <trkpt lat="43.57058" lon="6.63185">
        <ele>258.7319336</ele>
        <time>2010-06-26T06:35:58Z</time>
      </trkpt>
      <trkpt lat="43.57058" lon="6.63189">
        <ele>258.2513428</ele>
        <time>2010-06-26T06:36:05Z</time>
      </trkpt>
      <trkpt lat="43.5706" lon="6.63188">
        <ele>258.7319336</ele>
        <time>2010-06-26T06:36:07Z</time>
      </trkpt>
      <trkpt lat="43.57053" lon="6.63188">
        <ele>258.7319336</ele>
        <time>2010-06-26T06:36:18Z</time>
      </trkpt>
      <trkpt lat="43.5706" lon="6.63183">
        <ele>258.2513428</ele>
        <time>2010-06-26T06:36:27Z</time>
      </trkpt>
      <trkpt lat="43.57057" lon="6.63185">
        <ele>258.2513428</ele>
        <time>2010-06-26T06:36:29Z</time>
      </trkpt>
      <trkpt lat="43.57055" lon="6.6319">
        <ele>257.770752</ele>
        <time>2010-06-26T06:36:42Z</time>
      </trkpt>
      <trkpt lat="43.57051" lon="6.63188">
        <ele>257.2900391</ele>
        <time>2010-06-26T06:38:33Z</time>
      </trkpt>
      <trkpt lat="43.5705" lon="6.63188">
        <ele>257.2900391</ele>
        <time>2010-06-26T06:39:16Z</time>
      </trkpt>
      <trkpt lat="43.5705" lon="6.63188">
        <ele>257.770752</ele>
        <time>2010-06-26T06:39:54Z</time>
      </trkpt>
      <trkpt lat="43.57031" lon="6.63162">
        <ele>255.8480225</ele>
        <time>2010-06-26T06:40:06Z</time>
      </trkpt>
      <trkpt lat="43.57031" lon="6.6314">
        <ele>255.3673096</ele>
        <time>2010-06-26T06:40:14Z</time>
      </trkpt>
      <trkpt lat="43.57031" lon="6.63143">
        <ele>255.8480225</ele>
        <time>2010-06-26T06:41:04Z</time>
      </trkpt>
      <trkpt lat="43.57033" lon="6.63134">
        <ele>255.8480225</ele>
        <time>2010-06-26T06:41:25Z</time>
      </trkpt>
      <trkpt lat="43.57038" lon="6.63093">
        <ele>252.9639893</ele>
        <time>2010-06-26T06:41:33Z</time>
      </trkpt>
      <trkpt lat="43.5704" lon="6.63087">
        <ele>253.4447021</ele>
        <time>2010-06-26T06:41:34Z</time>
      </trkpt>
      <trkpt lat="43.57032" lon="6.63037">
        <ele>253.4447021</ele>
        <time>2010-06-26T06:41:43Z</time>
      </trkpt>
      <trkpt lat="43.57038" lon="6.62996">
        <ele>253.4447021</ele>
        <time>2010-06-26T06:41:51Z</time>
      </trkpt>
      <trkpt lat="43.57038" lon="6.62971">
        <ele>252.9639893</ele>
        <time>2010-06-26T06:41:56Z</time>
      </trkpt>
      <trkpt lat="43.57033" lon="6.62963">
        <ele>252.9639893</ele>
        <time>2010-06-26T06:41:58Z</time>
      </trkpt>
      <trkpt lat="43.57027" lon="6.62947">
        <ele>252.0028076</ele>
        <time>2010-06-26T06:42:01Z</time>
      </trkpt>
      <trkpt lat="43.57011" lon="6.62945">
        <ele>252.0028076</ele>
        <time>2010-06-26T06:42:08Z</time>
      </trkpt>
      <trkpt lat="43.57009" lon="6.62953">
        <ele>252.9639893</ele>
        <time>2010-06-26T06:42:10Z</time>
      </trkpt>
      <trkpt lat="43.56992" lon="6.6299">
        <ele>254.8865967</ele>
        <time>2010-06-26T06:42:21Z</time>
      </trkpt>
      <trkpt lat="43.5698" lon="6.63013">
        <ele>255.3673096</ele>
        <time>2010-06-26T06:42:29Z</time>
      </trkpt>
      <trkpt lat="43.56968" lon="6.63009">
        <ele>255.8480225</ele>
        <time>2010-06-26T06:42:38Z</time>
      </trkpt>
      <trkpt lat="43.56976" lon="6.62975">
        <ele>258.2513428</ele>
        <time>2010-06-26T06:42:51Z</time>
      </trkpt>
      <trkpt lat="43.56977" lon="6.62973">
        <ele>258.2513428</ele>
        <time>2010-06-26T06:42:52Z</time>
      </trkpt>
      <trkpt lat="43.56976" lon="6.62967">
        <ele>258.7319336</ele>
        <time>2010-06-26T06:43:09Z</time>
      </trkpt>
      <trkpt lat="43.56981" lon="6.62946">
        <ele>258.7319336</ele>
        <time>2010-06-26T06:43:47Z</time>
      </trkpt>
      <trkpt lat="43.56992" lon="6.62905">
        <ele>261.1352539</ele>
        <time>2010-06-26T06:44:01Z</time>
      </trkpt>
      <trkpt lat="43.57002" lon="6.6287">
        <ele>264.4998779</ele>
        <time>2010-06-26T06:44:15Z</time>
      </trkpt>
      <trkpt lat="43.57023" lon="6.62826">
        <ele>266.4224854</ele>
        <time>2010-06-26T06:44:35Z</time>
      </trkpt>
      <trkpt lat="43.57052" lon="6.62805">
        <ele>268.8258057</ele>
        <time>2010-06-26T06:44:52Z</time>
      </trkpt>
      <trkpt lat="43.57064" lon="6.62848">
        <ele>269.3065186</ele>
        <time>2010-06-26T06:45:07Z</time>
      </trkpt>
      <trkpt lat="43.5707" lon="6.62885">
        <ele>272.6711426</ele>
        <time>2010-06-26T06:45:20Z</time>
      </trkpt>
      <trkpt lat="43.57082" lon="6.62928">
        <ele>276.0356445</ele>
        <time>2010-06-26T06:45:37Z</time>
      </trkpt>
      <trkpt lat="43.57113" lon="6.62964">
        <ele>277.958252</ele>
        <time>2010-06-26T06:45:57Z</time>
      </trkpt>
      <trkpt lat="43.57137" lon="6.63006">
        <ele>280.8424072</ele>
        <time>2010-06-26T06:46:15Z</time>
      </trkpt>
      <trkpt lat="43.57151" lon="6.63022">
        <ele>282.7650146</ele>
        <time>2010-06-26T06:46:23Z</time>
      </trkpt>
      <trkpt lat="43.57158" lon="6.6301">
        <ele>283.7261963</ele>
        <time>2010-06-26T06:46:30Z</time>
      </trkpt>
      <trkpt lat="43.57156" lon="6.6297">
        <ele>285.6488037</ele>
        <time>2010-06-26T06:46:44Z</time>
      </trkpt>
      <trkpt lat="43.57157" lon="6.62949">
        <ele>289.0135498</ele>
        <time>2010-06-26T06:46:52Z</time>
      </trkpt>
      <trkpt lat="43.57159" lon="6.62895">
        <ele>291.8974609</ele>
        <time>2010-06-26T06:47:10Z</time>
      </trkpt>
      <trkpt lat="43.57167" lon="6.6286">
        <ele>294.7813721</ele>
        <time>2010-06-26T06:47:23Z</time>
      </trkpt>
      <trkpt lat="43.57188" lon="6.62807">
        <ele>294.7813721</ele>
        <time>2010-06-26T06:47:42Z</time>
      </trkpt>
      <trkpt lat="43.57202" lon="6.62765">
        <ele>298.1461182</ele>
        <time>2010-06-26T06:47:58Z</time>
      </trkpt>
      <trkpt lat="43.57223" lon="6.62721">
        <ele>298.626709</ele>
        <time>2010-06-26T06:48:15Z</time>
      </trkpt>
      <trkpt lat="43.57229" lon="6.62666">
        <ele>299.1072998</ele>
        <time>2010-06-26T06:48:33Z</time>
      </trkpt>
      <trkpt lat="43.57243" lon="6.62636">
        <ele>299.1072998</ele>
        <time>2010-06-26T06:48:47Z</time>
      </trkpt>
      <trkpt lat="43.57257" lon="6.62612">
        <ele>297.6654053</ele>
        <time>2010-06-26T06:48:54Z</time>
      </trkpt>
      <trkpt lat="43.57277" lon="6.62567">
        <ele>295.2619629</ele>
        <time>2010-06-26T06:49:02Z</time>
      </trkpt>
      <trkpt lat="43.57269" lon="6.62549">
        <ele>292.8587646</ele>
        <time>2010-06-26T06:49:08Z</time>
      </trkpt>
      <trkpt lat="43.57235" lon="6.62576">
        <ele>288.532959</ele>
        <time>2010-06-26T06:49:19Z</time>
      </trkpt>
      <trkpt lat="43.57208" lon="6.6261">
        <ele>286.1295166</ele>
        <time>2010-06-26T06:49:27Z</time>
      </trkpt>
      <trkpt lat="43.57186" lon="6.62634">
        <ele>284.6876221</ele>
        <time>2010-06-26T06:49:32Z</time>
      </trkpt>
      <trkpt lat="43.57168" lon="6.62643">
        <ele>283.7261963</ele>
        <time>2010-06-26T06:49:36Z</time>
      </trkpt>
      <trkpt lat="43.57161" lon="6.62645">
        <ele>282.2843018</ele>
        <time>2010-06-26T06:49:38Z</time>
      </trkpt>
      <trkpt lat="43.57152" lon="6.62638">
        <ele>280.8424072</ele>
        <time>2010-06-26T06:49:41Z</time>
      </trkpt>
      <trkpt lat="43.57153" lon="6.62623">
        <ele>279.4002686</ele>
        <time>2010-06-26T06:49:44Z</time>
      </trkpt>
      <trkpt lat="43.57162" lon="6.62591">
        <ele>277.4776611</ele>
        <time>2010-06-26T06:49:49Z</time>
      </trkpt>
      <trkpt lat="43.57164" lon="6.62554">
        <ele>274.59375</ele>
        <time>2010-06-26T06:49:53Z</time>
      </trkpt>
      <trkpt lat="43.57144" lon="6.62493">
        <ele>272.1904297</ele>
        <time>2010-06-26T06:50:00Z</time>
      </trkpt>
      <trkpt lat="43.57133" lon="6.62482">
        <ele>271.229126</ele>
        <time>2010-06-26T06:50:02Z</time>
      </trkpt>
      <trkpt lat="43.57114" lon="6.62468">
        <ele>270.7484131</ele>
        <time>2010-06-26T06:50:05Z</time>
      </trkpt>
      <trkpt lat="43.57088" lon="6.62433">
        <ele>268.8258057</ele>
        <time>2010-06-26T06:50:10Z</time>
      </trkpt>
      <trkpt lat="43.57064" lon="6.62436">
        <ele>266.9031982</ele>
        <time>2010-06-26T06:50:16Z</time>
      </trkpt>
      <trkpt lat="43.57048" lon="6.6245">
        <ele>264.4998779</ele>
        <time>2010-06-26T06:50:20Z</time>
      </trkpt>
      <trkpt lat="43.57037" lon="6.62447">
        <ele>263.0578613</ele>
        <time>2010-06-26T06:50:22Z</time>
      </trkpt>
      <trkpt lat="43.57027" lon="6.6244">
        <ele>262.0965576</ele>
        <time>2010-06-26T06:50:24Z</time>
      </trkpt>
      <trkpt lat="43.56983" lon="6.62438">
        <ele>257.770752</ele>
        <time>2010-06-26T06:50:32Z</time>
      </trkpt>
      <trkpt lat="43.56956" lon="6.62444">
        <ele>253.925415</ele>
        <time>2010-06-26T06:50:36Z</time>
      </trkpt>
      <trkpt lat="43.56894" lon="6.62433">
        <ele>250.560791</ele>
        <time>2010-06-26T06:50:44Z</time>
      </trkpt>
      <trkpt lat="43.56886" lon="6.6243">
        <ele>250.560791</ele>
        <time>2010-06-26T06:50:45Z</time>
      </trkpt>
      <trkpt lat="43.56872" lon="6.62426">
        <ele>249.1187744</ele>
        <time>2010-06-26T06:50:47Z</time>
      </trkpt>
      <trkpt lat="43.56866" lon="6.62425">
        <ele>248.6381836</ele>
        <time>2010-06-26T06:50:48Z</time>
      </trkpt>
      <trkpt lat="43.56855" lon="6.62419">
        <ele>248.6381836</ele>
        <time>2010-06-26T06:50:56Z</time>
      </trkpt>
      <trkpt lat="43.56839" lon="6.62405">
        <ele>247.1960449</ele>
        <time>2010-06-26T06:51:09Z</time>
      </trkpt>
      <trkpt lat="43.56821" lon="6.6239">
        <ele>245.7541504</ele>
        <time>2010-06-26T06:51:14Z</time>
      </trkpt>
      <trkpt lat="43.568" lon="6.62383">
        <ele>244.7928467</ele>
        <time>2010-06-26T06:51:19Z</time>
      </trkpt>
      <trkpt lat="43.56773" lon="6.62384">
        <ele>243.831543</ele>
        <time>2010-06-26T06:51:25Z</time>
      </trkpt>
      <trkpt lat="43.56728" lon="6.62409">
        <ele>242.3896484</ele>
        <time>2010-06-26T06:51:34Z</time>
      </trkpt>
      <trkpt lat="43.56716" lon="6.62415">
        <ele>240.9476318</ele>
        <time>2010-06-26T06:51:36Z</time>
      </trkpt>
      <trkpt lat="43.56703" lon="6.62421">
        <ele>240.467041</ele>
        <time>2010-06-26T06:51:38Z</time>
      </trkpt>
      <trkpt lat="43.56685" lon="6.62421">
        <ele>239.0249023</ele>
        <time>2010-06-26T06:51:41Z</time>
      </trkpt>
      <trkpt lat="43.56676" lon="6.62414">
        <ele>238.5443115</ele>
        <time>2010-06-26T06:51:43Z</time>
      </trkpt>
      <trkpt lat="43.56664" lon="6.6237">
        <ele>237.1022949</ele>
        <time>2010-06-26T06:51:50Z</time>
      </trkpt>
      <trkpt lat="43.56671" lon="6.62335">
        <ele>236.1409912</ele>
        <time>2010-06-26T06:51:55Z</time>
      </trkpt>
      <trkpt lat="43.56703" lon="6.62272">
        <ele>233.2570801</ele>
        <time>2010-06-26T06:52:05Z</time>
      </trkpt>
      <trkpt lat="43.56703" lon="6.62232">
        <ele>231.8149414</ele>
        <time>2010-06-26T06:52:11Z</time>
      </trkpt>
      <trkpt lat="43.56695" lon="6.62221">
        <ele>230.3730469</ele>
        <time>2010-06-26T06:52:13Z</time>
      </trkpt>
      <trkpt lat="43.56665" lon="6.62216">
        <ele>228.9311523</ele>
        <time>2010-06-26T06:52:19Z</time>
      </trkpt>
      <trkpt lat="43.56647" lon="6.62227">
        <ele>226.527832</ele>
        <time>2010-06-26T06:52:23Z</time>
      </trkpt>
      <trkpt lat="43.56606" lon="6.62225">
        <ele>223.6437988</ele>
        <time>2010-06-26T06:52:30Z</time>
      </trkpt>
      <trkpt lat="43.56578" lon="6.62228">
        <ele>220.2791748</ele>
        <time>2010-06-26T06:52:34Z</time>
      </trkpt>
      <trkpt lat="43.56551" lon="6.62244">
        <ele>216.9146729</ele>
        <time>2010-06-26T06:52:38Z</time>
      </trkpt>
      <trkpt lat="43.56533" lon="6.62261">
        <ele>216.43396</ele>
        <time>2010-06-26T06:52:41Z</time>
      </trkpt>
      <trkpt lat="43.56507" lon="6.62278">
        <ele>215.4726563</ele>
        <time>2010-06-26T06:52:46Z</time>
      </trkpt>
      <trkpt lat="43.56488" lon="6.62276">
        <ele>214.0306396</ele>
        <time>2010-06-26T06:52:50Z</time>
      </trkpt>
      <trkpt lat="43.56464" lon="6.62271">
        <ele>210.6660156</ele>
        <time>2010-06-26T06:52:55Z</time>
      </trkpt>
      <trkpt lat="43.56446" lon="6.62267">
        <ele>207.3013916</ele>
        <time>2010-06-26T06:52:58Z</time>
      </trkpt>
      <trkpt lat="43.56395" lon="6.62261">
        <ele>207.3013916</ele>
        <time>2010-06-26T06:53:09Z</time>
      </trkpt>
      <trkpt lat="43.56347" lon="6.62235">
        <ele>206.8206787</ele>
        <time>2010-06-26T06:53:23Z</time>
      </trkpt>
      <trkpt lat="43.56319" lon="6.62185">
        <ele>204.8980713</ele>
        <time>2010-06-26T06:53:34Z</time>
      </trkpt>
      <trkpt lat="43.56294" lon="6.62142">
        <ele>201.0528564</ele>
        <time>2010-06-26T06:53:42Z</time>
      </trkpt>
      <trkpt lat="43.56291" lon="6.62137">
        <ele>201.0528564</ele>
        <time>2010-06-26T06:53:43Z</time>
      </trkpt>
      <trkpt lat="43.56286" lon="6.62126">
        <ele>198.6495361</ele>
        <time>2010-06-26T06:53:45Z</time>
      </trkpt>
      <trkpt lat="43.56277" lon="6.62089">
        <ele>195.765625</ele>
        <time>2010-06-26T06:53:50Z</time>
      </trkpt>
      <trkpt lat="43.56274" lon="6.62081">
        <ele>195.765625</ele>
        <time>2010-06-26T06:53:51Z</time>
      </trkpt>
      <trkpt lat="43.56256" lon="6.62055">
        <ele>194.3237305</ele>
        <time>2010-06-26T06:53:56Z</time>
      </trkpt>
      <trkpt lat="43.56246" lon="6.62049">
        <ele>193.3623047</ele>
        <time>2010-06-26T06:53:58Z</time>
      </trkpt>
      <trkpt lat="43.56239" lon="6.62043">
        <ele>193.3623047</ele>
        <time>2010-06-26T06:54:00Z</time>
      </trkpt>
      <trkpt lat="43.56227" lon="6.62033">
        <ele>191.9202881</ele>
        <time>2010-06-26T06:54:03Z</time>
      </trkpt>
      <trkpt lat="43.56201" lon="6.62032">
        <ele>187.1137695</ele>
        <time>2010-06-26T06:54:09Z</time>
      </trkpt>
      <trkpt lat="43.56197" lon="6.62034">
        <ele>186.6331787</ele>
        <time>2010-06-26T06:54:10Z</time>
      </trkpt>
      <trkpt lat="43.56193" lon="6.62035">
        <ele>186.6331787</ele>
        <time>2010-06-26T06:54:11Z</time>
      </trkpt>
      <trkpt lat="43.5618" lon="6.62031">
        <ele>185.1911621</ele>
        <time>2010-06-26T06:54:14Z</time>
      </trkpt>
      <trkpt lat="43.56153" lon="6.62005">
        <ele>182.7878418</ele>
        <time>2010-06-26T06:54:20Z</time>
      </trkpt>
      <trkpt lat="43.56123" lon="6.61992">
        <ele>182.7878418</ele>
        <time>2010-06-26T06:54:26Z</time>
      </trkpt>
      <trkpt lat="43.56093" lon="6.61993">
        <ele>186.1524658</ele>
        <time>2010-06-26T06:54:34Z</time>
      </trkpt>
      <trkpt lat="43.56063" lon="6.61991">
        <ele>187.1137695</ele>
        <time>2010-06-26T06:54:46Z</time>
      </trkpt>
      <trkpt lat="43.56024" lon="6.6201">
        <ele>185.6717529</ele>
        <time>2010-06-26T06:55:00Z</time>
      </trkpt>
      <trkpt lat="43.56011" lon="6.62018">
        <ele>184.7105713</ele>
        <time>2010-06-26T06:55:10Z</time>
      </trkpt>
      <trkpt lat="43.5601" lon="6.62017">
        <ele>184.7105713</ele>
        <time>2010-06-26T06:55:34Z</time>
      </trkpt>
      <trkpt lat="43.5601" lon="6.62017">
        <ele>184.2298584</ele>
        <time>2010-06-26T06:56:14Z</time>
      </trkpt>
      <trkpt lat="43.56009" lon="6.62017">
        <ele>184.2298584</ele>
        <time>2010-06-26T06:56:44Z</time>
      </trkpt>
      <trkpt lat="43.56008" lon="6.62019">
        <ele>184.7105713</ele>
        <time>2010-06-26T06:57:03Z</time>
      </trkpt>
      <trkpt lat="43.56007" lon="6.6202">
        <ele>184.7105713</ele>
        <time>2010-06-26T06:57:34Z</time>
      </trkpt>
      <trkpt lat="43.56007" lon="6.62023">
        <ele>184.7105713</ele>
        <time>2010-06-26T06:58:02Z</time>
      </trkpt>
      <trkpt lat="43.56" lon="6.62024">
        <ele>184.2298584</ele>
        <time>2010-06-26T06:58:42Z</time>
      </trkpt>
      <trkpt lat="43.55964" lon="6.62033">
        <ele>182.3071289</ele>
        <time>2010-06-26T06:58:52Z</time>
      </trkpt>
      <trkpt lat="43.55952" lon="6.62036">
        <ele>180.8652344</ele>
        <time>2010-06-26T06:59:00Z</time>
      </trkpt>
      <trkpt lat="43.55942" lon="6.62033">
        <ele>179.9038086</ele>
        <time>2010-06-26T06:59:04Z</time>
      </trkpt>
      <trkpt lat="43.55939" lon="6.62026">
        <ele>178.942627</ele>
        <time>2010-06-26T06:59:06Z</time>
      </trkpt>
      <trkpt lat="43.55948" lon="6.62012">
        <ele>176.0585938</ele>
        <time>2010-06-26T06:59:12Z</time>
      </trkpt>
      <trkpt lat="43.55964" lon="6.61995">
        <ele>175.09729</ele>
        <time>2010-06-26T06:59:17Z</time>
      </trkpt>
      <trkpt lat="43.55974" lon="6.61973">
        <ele>173.6552734</ele>
        <time>2010-06-26T06:59:21Z</time>
      </trkpt>
      <trkpt lat="43.55977" lon="6.61968">
        <ele>173.6552734</ele>
        <time>2010-06-26T06:59:22Z</time>
      </trkpt>
      <trkpt lat="43.56001" lon="6.61928">
        <ele>171.732666</ele>
        <time>2010-06-26T06:59:31Z</time>
      </trkpt>
      <trkpt lat="43.56019" lon="6.6191">
        <ele>169.8100586</ele>
        <time>2010-06-26T06:59:36Z</time>
      </trkpt>
      <trkpt lat="43.56029" lon="6.61896">
        <ele>168.8487549</ele>
        <time>2010-06-26T06:59:39Z</time>
      </trkpt>
      <trkpt lat="43.56034" lon="6.61885">
        <ele>168.8487549</ele>
        <time>2010-06-26T06:59:41Z</time>
      </trkpt>
      <trkpt lat="43.56042" lon="6.6186">
        <ele>165.003418</ele>
        <time>2010-06-26T06:59:45Z</time>
      </trkpt>
      <trkpt lat="43.56044" lon="6.61848">
        <ele>164.5227051</ele>
        <time>2010-06-26T06:59:47Z</time>
      </trkpt>
      <trkpt lat="43.56048" lon="6.61809">
        <ele>160.6774902</ele>
        <time>2010-06-26T06:59:53Z</time>
      </trkpt>
      <trkpt lat="43.56049" lon="6.61803">
        <ele>160.6774902</ele>
        <time>2010-06-26T06:59:54Z</time>
      </trkpt>
      <trkpt lat="43.56057" lon="6.61782">
        <ele>159.2354736</ele>
        <time>2010-06-26T06:59:58Z</time>
      </trkpt>
      <trkpt lat="43.56063" lon="6.61774">
        <ele>158.2741699</ele>
        <time>2010-06-26T07:00:00Z</time>
      </trkpt>
      <trkpt lat="43.56099" lon="6.61747">
        <ele>155.8709717</ele>
        <time>2010-06-26T07:00:12Z</time>
      </trkpt>
      <trkpt lat="43.56116" lon="6.61734">
        <ele>152.9869385</ele>
        <time>2010-06-26T07:00:19Z</time>
      </trkpt>
      <trkpt lat="43.56119" lon="6.61732">
        <ele>152.5063477</ele>
        <time>2010-06-26T07:00:20Z</time>
      </trkpt>
      <trkpt lat="43.56137" lon="6.61706">
        <ele>151.5449219</ele>
        <time>2010-06-26T07:00:30Z</time>
      </trkpt>
      <trkpt lat="43.5613" lon="6.61678">
        <ele>151.064209</ele>
        <time>2010-06-26T07:00:57Z</time>
      </trkpt>
      <trkpt lat="43.56129" lon="6.61674">
        <ele>151.064209</ele>
        <time>2010-06-26T07:01:07Z</time>
      </trkpt>
      <trkpt lat="43.56127" lon="6.61672">
        <ele>151.064209</ele>
        <time>2010-06-26T07:01:15Z</time>
      </trkpt>
      <trkpt lat="43.56101" lon="6.61685">
        <ele>152.0257568</ele>
        <time>2010-06-26T07:01:29Z</time>
      </trkpt>
      <trkpt lat="43.56063" lon="6.61715">
        <ele>150.5836182</ele>
        <time>2010-06-26T07:01:43Z</time>
      </trkpt>
      <trkpt lat="43.56016" lon="6.61734">
        <ele>149.1416016</ele>
        <time>2010-06-26T07:01:57Z</time>
      </trkpt>
      <trkpt lat="43.55989" lon="6.61744">
        <ele>149.6223145</ele>
        <time>2010-06-26T07:02:07Z</time>
      </trkpt>
      <trkpt lat="43.55984" lon="6.61748">
        <ele>150.1030273</ele>
        <time>2010-06-26T07:02:17Z</time>
      </trkpt>
      <trkpt lat="43.55976" lon="6.61755">
        <ele>151.064209</ele>
        <time>2010-06-26T07:02:34Z</time>
      </trkpt>
      <trkpt lat="43.5597" lon="6.6176">
        <ele>151.5449219</ele>
        <time>2010-06-26T07:02:48Z</time>
      </trkpt>
      <trkpt lat="43.55964" lon="6.61768">
        <ele>152.0257568</ele>
        <time>2010-06-26T07:02:52Z</time>
      </trkpt>
      <trkpt lat="43.55958" lon="6.61773">
        <ele>152.5063477</ele>
        <time>2010-06-26T07:03:04Z</time>
      </trkpt>
      <trkpt lat="43.55954" lon="6.61786">
        <ele>152.5063477</ele>
        <time>2010-06-26T07:03:42Z</time>
      </trkpt>
      <trkpt lat="43.55929" lon="6.61807">
        <ele>154.4289551</ele>
        <time>2010-06-26T07:03:57Z</time>
      </trkpt>
      <trkpt lat="43.55886" lon="6.61803">
        <ele>153.9483643</ele>
        <time>2010-06-26T07:04:13Z</time>
      </trkpt>
      <trkpt lat="43.55851" lon="6.6179">
        <ele>153.9483643</ele>
        <time>2010-06-26T07:04:28Z</time>
      </trkpt>
      <trkpt lat="43.55811" lon="6.61784">
        <ele>154.9095459</ele>
        <time>2010-06-26T07:04:43Z</time>
      </trkpt>
      <trkpt lat="43.55784" lon="6.61796">
        <ele>154.4289551</ele>
        <time>2010-06-26T07:04:53Z</time>
      </trkpt>
      <trkpt lat="43.55749" lon="6.61811">
        <ele>156.3515625</ele>
        <time>2010-06-26T07:05:06Z</time>
      </trkpt>
      <trkpt lat="43.55729" lon="6.6179">
        <ele>156.3515625</ele>
        <time>2010-06-26T07:05:15Z</time>
      </trkpt>
      <trkpt lat="43.55716" lon="6.61764">
        <ele>157.3128662</ele>
        <time>2010-06-26T07:05:21Z</time>
      </trkpt>
      <trkpt lat="43.55715" lon="6.61762">
        <ele>156.8321533</ele>
        <time>2010-06-26T07:05:34Z</time>
      </trkpt>
      <trkpt lat="43.55717" lon="6.6176">
        <ele>156.3515625</ele>
        <time>2010-06-26T07:05:57Z</time>
      </trkpt>
      <trkpt lat="43.55721" lon="6.6177">
        <ele>155.8709717</ele>
        <time>2010-06-26T07:06:05Z</time>
      </trkpt>
      <trkpt lat="43.55717" lon="6.61768">
        <ele>154.9095459</ele>
        <time>2010-06-26T07:06:18Z</time>
      </trkpt>
      <trkpt lat="43.55716" lon="6.61767">
        <ele>157.7935791</ele>
        <time>2010-06-26T07:06:43Z</time>
      </trkpt>
      <trkpt lat="43.55706" lon="6.6175">
        <ele>159.2354736</ele>
        <time>2010-06-26T07:06:53Z</time>
      </trkpt>
      <trkpt lat="43.55683" lon="6.61706">
        <ele>157.3128662</ele>
        <time>2010-06-26T07:07:08Z</time>
      </trkpt>
      <trkpt lat="43.55662" lon="6.6165">
        <ele>157.3128662</ele>
        <time>2010-06-26T07:07:23Z</time>
      </trkpt>
      <trkpt lat="43.55643" lon="6.61586">
        <ele>156.3515625</ele>
        <time>2010-06-26T07:07:39Z</time>
      </trkpt>
      <trkpt lat="43.55626" lon="6.61516">
        <ele>155.8709717</ele>
        <time>2010-06-26T07:07:57Z</time>
      </trkpt>
      <trkpt lat="43.55624" lon="6.61502">
        <ele>155.8709717</ele>
        <time>2010-06-26T07:08:07Z</time>
      </trkpt>
      <trkpt lat="43.55622" lon="6.61499">
        <ele>155.3902588</ele>
        <time>2010-06-26T07:08:30Z</time>
      </trkpt>
      <trkpt lat="43.55607" lon="6.61459">
        <ele>154.9095459</ele>
        <time>2010-06-26T07:08:43Z</time>
      </trkpt>
      <trkpt lat="43.55582" lon="6.61382">
        <ele>153.9483643</ele>
        <time>2010-06-26T07:09:00Z</time>
      </trkpt>
      <trkpt lat="43.55575" lon="6.61333">
        <ele>154.9095459</ele>
        <time>2010-06-26T07:09:12Z</time>
      </trkpt>
      <trkpt lat="43.55587" lon="6.61308">
        <ele>156.3515625</ele>
        <time>2010-06-26T07:09:22Z</time>
      </trkpt>
      <trkpt lat="43.55592" lon="6.61294">
        <ele>155.8709717</ele>
        <time>2010-06-26T07:09:28Z</time>
      </trkpt>
      <trkpt lat="43.55574" lon="6.61285">
        <ele>157.3128662</ele>
        <time>2010-06-26T07:09:38Z</time>
      </trkpt>
      <trkpt lat="43.55567" lon="6.61284">
        <ele>157.7935791</ele>
        <time>2010-06-26T07:09:41Z</time>
      </trkpt>
      <trkpt lat="43.55538" lon="6.6125">
        <ele>158.7547607</ele>
        <time>2010-06-26T07:09:58Z</time>
      </trkpt>
      <trkpt lat="43.55525" lon="6.61237">
        <ele>159.2354736</ele>
        <time>2010-06-26T07:10:05Z</time>
      </trkpt>
      <trkpt lat="43.5551" lon="6.61193">
        <ele>160.6774902</ele>
        <time>2010-06-26T07:10:21Z</time>
      </trkpt>
      <trkpt lat="43.55505" lon="6.61181">
        <ele>162.1195068</ele>
        <time>2010-06-26T07:10:26Z</time>
      </trkpt>
      <trkpt lat="43.555" lon="6.61175">
        <ele>163.0808105</ele>
        <time>2010-06-26T07:10:30Z</time>
      </trkpt>
      <trkpt lat="43.55491" lon="6.61143">
        <ele>165.9647217</ele>
        <time>2010-06-26T07:10:43Z</time>
      </trkpt>
      <trkpt lat="43.55474" lon="6.61103">
        <ele>168.368042</ele>
        <time>2010-06-26T07:11:03Z</time>
      </trkpt>
      <trkpt lat="43.55465" lon="6.61072">
        <ele>168.368042</ele>
        <time>2010-06-26T07:11:17Z</time>
      </trkpt>
      <trkpt lat="43.5546" lon="6.6104">
        <ele>170.2906494</ele>
        <time>2010-06-26T07:11:32Z</time>
      </trkpt>
      <trkpt lat="43.5545" lon="6.61016">
        <ele>172.6939697</ele>
        <time>2010-06-26T07:11:44Z</time>
      </trkpt>
      <trkpt lat="43.55439" lon="6.60984">
        <ele>173.6552734</ele>
        <time>2010-06-26T07:11:58Z</time>
      </trkpt>
      <trkpt lat="43.55419" lon="6.60968">
        <ele>175.09729</ele>
        <time>2010-06-26T07:12:11Z</time>
      </trkpt>
      <trkpt lat="43.55389" lon="6.60945">
        <ele>175.09729</ele>
        <time>2010-06-26T07:12:27Z</time>
      </trkpt>
      <trkpt lat="43.55374" lon="6.60937">
        <ele>175.5778809</ele>
        <time>2010-06-26T07:12:39Z</time>
      </trkpt>
      <trkpt lat="43.55373" lon="6.60938">
        <ele>175.09729</ele>
        <time>2010-06-26T07:13:33Z</time>
      </trkpt>
      <trkpt lat="43.55343" lon="6.60919">
        <ele>173.1746826</ele>
        <time>2010-06-26T07:13:45Z</time>
      </trkpt>
      <trkpt lat="43.55331" lon="6.60909">
        <ele>170.7713623</ele>
        <time>2010-06-26T07:13:49Z</time>
      </trkpt>
      <trkpt lat="43.55326" lon="6.60905">
        <ele>169.3294678</ele>
        <time>2010-06-26T07:13:51Z</time>
      </trkpt>
      <trkpt lat="43.55323" lon="6.609">
        <ele>168.8487549</ele>
        <time>2010-06-26T07:13:53Z</time>
      </trkpt>
      <trkpt lat="43.55318" lon="6.60889">
        <ele>166.9260254</ele>
        <time>2010-06-26T07:13:56Z</time>
      </trkpt>
      <trkpt lat="43.55317" lon="6.60881">
        <ele>166.4453125</ele>
        <time>2010-06-26T07:13:58Z</time>
      </trkpt>
      <trkpt lat="43.55328" lon="6.60842">
        <ele>163.5615234</ele>
        <time>2010-06-26T07:14:10Z</time>
      </trkpt>
      <trkpt lat="43.5533" lon="6.60827">
        <ele>162.6000977</ele>
        <time>2010-06-26T07:14:14Z</time>
      </trkpt>
      <trkpt lat="43.55317" lon="6.60797">
        <ele>159.7161865</ele>
        <time>2010-06-26T07:14:20Z</time>
      </trkpt>
      <trkpt lat="43.55306" lon="6.60773">
        <ele>156.3515625</ele>
        <time>2010-06-26T07:14:27Z</time>
      </trkpt>
      <trkpt lat="43.55291" lon="6.60742">
        <ele>152.9869385</ele>
        <time>2010-06-26T07:14:37Z</time>
      </trkpt>
      <trkpt lat="43.55283" lon="6.60733">
        <ele>152.9869385</ele>
        <time>2010-06-26T07:14:47Z</time>
      </trkpt>
      <trkpt lat="43.55266" lon="6.6072">
        <ele>150.5836182</ele>
        <time>2010-06-26T07:15:01Z</time>
      </trkpt>
      <trkpt lat="43.55261" lon="6.60714">
        <ele>149.6223145</ele>
        <time>2010-06-26T07:15:04Z</time>
      </trkpt>
      <trkpt lat="43.55238" lon="6.6072">
        <ele>146.2578125</ele>
        <time>2010-06-26T07:15:15Z</time>
      </trkpt>
      <trkpt lat="43.55225" lon="6.60723">
        <ele>144.3352051</ele>
        <time>2010-06-26T07:15:26Z</time>
      </trkpt>
      <trkpt lat="43.55209" lon="6.60709">
        <ele>143.3736572</ele>
        <time>2010-06-26T07:15:35Z</time>
      </trkpt>
      <trkpt lat="43.55198" lon="6.60702">
        <ele>141.4510498</ele>
        <time>2010-06-26T07:15:44Z</time>
      </trkpt>
      <trkpt lat="43.55192" lon="6.60705">
        <ele>140.4898682</ele>
        <time>2010-06-26T07:15:57Z</time>
      </trkpt>
      <trkpt lat="43.55191" lon="6.60708">
        <ele>140.4898682</ele>
        <time>2010-06-26T07:16:12Z</time>
      </trkpt>
      <trkpt lat="43.55193" lon="6.60712">
        <ele>139.5284424</ele>
        <time>2010-06-26T07:16:18Z</time>
      </trkpt>
      <trkpt lat="43.55203" lon="6.60722">
        <ele>138.0865479</ele>
        <time>2010-06-26T07:16:24Z</time>
      </trkpt>
      <trkpt lat="43.5522" lon="6.60762">
        <ele>135.6831055</ele>
        <time>2010-06-26T07:16:35Z</time>
      </trkpt>
      <trkpt lat="43.55215" lon="6.60801">
        <ele>135.2025146</ele>
        <time>2010-06-26T07:16:42Z</time>
      </trkpt>
      <trkpt lat="43.55192" lon="6.60816">
        <ele>135.2025146</ele>
        <time>2010-06-26T07:16:53Z</time>
      </trkpt>
      <trkpt lat="43.55191" lon="6.6082">
        <ele>134.7219238</ele>
        <time>2010-06-26T07:17:08Z</time>
      </trkpt>
      <trkpt lat="43.55184" lon="6.60821">
        <ele>135.6831055</ele>
        <time>2010-06-26T07:21:03Z</time>
      </trkpt>
      <trkpt lat="43.55176" lon="6.60819">
        <ele>136.6446533</ele>
        <time>2010-06-26T07:21:07Z</time>
      </trkpt>
      <trkpt lat="43.55156" lon="6.60793">
        <ele>138.5672607</ele>
        <time>2010-06-26T07:21:22Z</time>
      </trkpt>
      <trkpt lat="43.55138" lon="6.60779">
        <ele>141.4510498</ele>
        <time>2010-06-26T07:21:35Z</time>
      </trkpt>
      <trkpt lat="43.55129" lon="6.60787">
        <ele>142.4124756</ele>
        <time>2010-06-26T07:21:42Z</time>
      </trkpt>
      <trkpt lat="43.55127" lon="6.60793">
        <ele>143.3736572</ele>
        <time>2010-06-26T07:21:45Z</time>
      </trkpt>
      <trkpt lat="43.55123" lon="6.60825">
        <ele>146.7384033</ele>
        <time>2010-06-26T07:21:59Z</time>
      </trkpt>
      <trkpt lat="43.55112" lon="6.60858">
        <ele>149.1416016</ele>
        <time>2010-06-26T07:22:17Z</time>
      </trkpt>
      <trkpt lat="43.55106" lon="6.60872">
        <ele>152.0257568</ele>
        <time>2010-06-26T07:22:24Z</time>
      </trkpt>
      <trkpt lat="43.55097" lon="6.60898">
        <ele>153.9483643</ele>
        <time>2010-06-26T07:22:38Z</time>
      </trkpt>
      <trkpt lat="43.55091" lon="6.60926">
        <ele>156.3515625</ele>
        <time>2010-06-26T07:22:52Z</time>
      </trkpt>
      <trkpt lat="43.55093" lon="6.60974">
        <ele>159.2354736</ele>
        <time>2010-06-26T07:23:12Z</time>
      </trkpt>
      <trkpt lat="43.55105" lon="6.61006">
        <ele>162.1195068</ele>
        <time>2010-06-26T07:23:28Z</time>
      </trkpt>
      <trkpt lat="43.55119" lon="6.61026">
        <ele>165.4841309</ele>
        <time>2010-06-26T07:23:39Z</time>
      </trkpt>
      <trkpt lat="43.55138" lon="6.61053">
        <ele>166.9260254</ele>
        <time>2010-06-26T07:23:54Z</time>
      </trkpt>
      <trkpt lat="43.55141" lon="6.61064">
        <ele>169.3294678</ele>
        <time>2010-06-26T07:23:59Z</time>
      </trkpt>
      <trkpt lat="43.55151" lon="6.61106">
        <ele>171.2520752</ele>
        <time>2010-06-26T07:24:17Z</time>
      </trkpt>
      <trkpt lat="43.55153" lon="6.61136">
        <ele>174.6165771</ele>
        <time>2010-06-26T07:24:29Z</time>
      </trkpt>
      <trkpt lat="43.55159" lon="6.61176">
        <ele>177.9812012</ele>
        <time>2010-06-26T07:24:46Z</time>
      </trkpt>
      <trkpt lat="43.55171" lon="6.61221">
        <ele>180.3845215</ele>
        <time>2010-06-26T07:25:04Z</time>
      </trkpt>
      <trkpt lat="43.55179" lon="6.61261">
        <ele>183.7490234</ele>
        <time>2010-06-26T07:25:18Z</time>
      </trkpt>
      <trkpt lat="43.5518" lon="6.61263">
        <ele>183.7490234</ele>
        <time>2010-06-26T07:25:19Z</time>
      </trkpt>
      <trkpt lat="43.55187" lon="6.61301">
        <ele>186.6331787</ele>
        <time>2010-06-26T07:25:33Z</time>
      </trkpt>
      <trkpt lat="43.55186" lon="6.61343">
        <ele>189.9976807</ele>
        <time>2010-06-26T07:25:48Z</time>
      </trkpt>
      <trkpt lat="43.55183" lon="6.61389">
        <ele>192.401123</ele>
        <time>2010-06-26T07:26:03Z</time>
      </trkpt>
      <trkpt lat="43.55181" lon="6.61431">
        <ele>189.036377</ele>
        <time>2010-06-26T07:26:18Z</time>
      </trkpt>
      <trkpt lat="43.55181" lon="6.61434">
        <ele>193.8430176</ele>
        <time>2010-06-26T07:26:19Z</time>
      </trkpt>
      <trkpt lat="43.55185" lon="6.61462">
        <ele>194.8043213</ele>
        <time>2010-06-26T07:26:30Z</time>
      </trkpt>
      <trkpt lat="43.55192" lon="6.61504">
        <ele>194.3237305</ele>
        <time>2010-06-26T07:26:47Z</time>
      </trkpt>
      <trkpt lat="43.55209" lon="6.61541">
        <ele>195.765625</ele>
        <time>2010-06-26T07:27:03Z</time>
      </trkpt>
      <trkpt lat="43.55226" lon="6.61574">
        <ele>199.130127</ele>
        <time>2010-06-26T07:27:17Z</time>
      </trkpt>
      <trkpt lat="43.55227" lon="6.61579">
        <ele>199.6108398</ele>
        <time>2010-06-26T07:27:19Z</time>
      </trkpt>
      <trkpt lat="43.5524" lon="6.61605">
        <ele>202.9754639</ele>
        <time>2010-06-26T07:27:30Z</time>
      </trkpt>
      <trkpt lat="43.55252" lon="6.61653">
        <ele>203.9368896</ele>
        <time>2010-06-26T07:27:48Z</time>
      </trkpt>
      <trkpt lat="43.55255" lon="6.617">
        <ele>203.9368896</ele>
        <time>2010-06-26T07:28:04Z</time>
      </trkpt>
      <trkpt lat="43.55269" lon="6.61744">
        <ele>206.3400879</ele>
        <time>2010-06-26T07:28:20Z</time>
      </trkpt>
      <trkpt lat="43.55277" lon="6.61766">
        <ele>204.8980713</ele>
        <time>2010-06-26T07:28:27Z</time>
      </trkpt>
      <trkpt lat="43.55281" lon="6.61777">
        <ele>203.9368896</ele>
        <time>2010-06-26T07:28:29Z</time>
      </trkpt>
      <trkpt lat="43.55283" lon="6.61783">
        <ele>203.9368896</ele>
        <time>2010-06-26T07:28:30Z</time>
      </trkpt>
      <trkpt lat="43.55289" lon="6.61802">
        <ele>202.494873</ele>
        <time>2010-06-26T07:28:33Z</time>
      </trkpt>
      <trkpt lat="43.55291" lon="6.61825">
        <ele>203.4561768</ele>
        <time>2010-06-26T07:28:37Z</time>
      </trkpt>
      <trkpt lat="43.55298" lon="6.61868">
        <ele>207.3013916</ele>
        <time>2010-06-26T07:28:49Z</time>
      </trkpt>
      <trkpt lat="43.55313" lon="6.61906">
        <ele>209.2241211</ele>
        <time>2010-06-26T07:29:03Z</time>
      </trkpt>
      <trkpt lat="43.55312" lon="6.61925">
        <ele>205.8594971</ele>
        <time>2010-06-26T07:29:14Z</time>
      </trkpt>
      <trkpt lat="43.55312" lon="6.61925">
        <ele>209.704834</ele>
        <time>2010-06-26T07:29:15Z</time>
      </trkpt>
      <trkpt lat="43.55309" lon="6.61931">
        <ele>210.1854248</ele>
        <time>2010-06-26T07:29:51Z</time>
      </trkpt>
      <trkpt lat="43.55302" lon="6.61986">
        <ele>209.704834</ele>
        <time>2010-06-26T07:30:10Z</time>
      </trkpt>
      <trkpt lat="43.55287" lon="6.62024">
        <ele>207.7821045</ele>
        <time>2010-06-26T07:30:18Z</time>
      </trkpt>
      <trkpt lat="43.55268" lon="6.62054">
        <ele>206.8206787</ele>
        <time>2010-06-26T07:30:25Z</time>
      </trkpt>
      <trkpt lat="43.55256" lon="6.62072">
        <ele>205.8594971</ele>
        <time>2010-06-26T07:30:29Z</time>
      </trkpt>
      <trkpt lat="43.5524" lon="6.62108">
        <ele>204.8980713</ele>
        <time>2010-06-26T07:30:39Z</time>
      </trkpt>
      <trkpt lat="43.55232" lon="6.62125">
        <ele>203.9368896</ele>
        <time>2010-06-26T07:30:43Z</time>
      </trkpt>
      <trkpt lat="43.55209" lon="6.62133">
        <ele>203.4561768</ele>
        <time>2010-06-26T07:30:49Z</time>
      </trkpt>
      <trkpt lat="43.55197" lon="6.62131">
        <ele>202.494873</ele>
        <time>2010-06-26T07:30:52Z</time>
      </trkpt>
      <trkpt lat="43.55173" lon="6.62135">
        <ele>200.5722656</ele>
        <time>2010-06-26T07:30:57Z</time>
      </trkpt>
      <trkpt lat="43.55161" lon="6.62158">
        <ele>199.6108398</ele>
        <time>2010-06-26T07:31:02Z</time>
      </trkpt>
      <trkpt lat="43.55148" lon="6.62198">
        <ele>198.6495361</ele>
        <time>2010-06-26T07:31:10Z</time>
      </trkpt>
      <trkpt lat="43.55138" lon="6.62252">
        <ele>198.1689453</ele>
        <time>2010-06-26T07:31:22Z</time>
      </trkpt>
      <trkpt lat="43.5513" lon="6.62262">
        <ele>196.7269287</ele>
        <time>2010-06-26T07:31:25Z</time>
      </trkpt>
      <trkpt lat="43.55119" lon="6.62262">
        <ele>195.2849121</ele>
        <time>2010-06-26T07:31:28Z</time>
      </trkpt>
      <trkpt lat="43.55106" lon="6.6226">
        <ele>195.2849121</ele>
        <time>2010-06-26T07:31:31Z</time>
      </trkpt>
      <trkpt lat="43.55095" lon="6.62278">
        <ele>194.3237305</ele>
        <time>2010-06-26T07:31:36Z</time>
      </trkpt>
      <trkpt lat="43.551" lon="6.62297">
        <ele>193.3623047</ele>
        <time>2010-06-26T07:31:39Z</time>
      </trkpt>
      <trkpt lat="43.55099" lon="6.62326">
        <ele>192.8817139</ele>
        <time>2010-06-26T07:31:43Z</time>
      </trkpt>
      <trkpt lat="43.55095" lon="6.6236">
        <ele>190.9589844</ele>
        <time>2010-06-26T07:31:49Z</time>
      </trkpt>
      <trkpt lat="43.55095" lon="6.62364">
        <ele>189.9976807</ele>
        <time>2010-06-26T07:31:50Z</time>
      </trkpt>
      <trkpt lat="43.55086" lon="6.62358">
        <ele>190.9589844</ele>
        <time>2010-06-26T07:31:59Z</time>
      </trkpt>
      <trkpt lat="43.55063" lon="6.62312">
        <ele>194.3237305</ele>
        <time>2010-06-26T07:32:17Z</time>
      </trkpt>
      <trkpt lat="43.55045" lon="6.62267">
        <ele>196.2463379</ele>
        <time>2010-06-26T07:32:33Z</time>
      </trkpt>
      <trkpt lat="43.55037" lon="6.62209">
        <ele>199.6108398</ele>
        <time>2010-06-26T07:32:51Z</time>
      </trkpt>
      <trkpt lat="43.55037" lon="6.62206">
        <ele>199.6108398</ele>
        <time>2010-06-26T07:32:52Z</time>
      </trkpt>
      <trkpt lat="43.55025" lon="6.62207">
        <ele>201.0528564</ele>
        <time>2010-06-26T07:32:59Z</time>
      </trkpt>
      <trkpt lat="43.55011" lon="6.62232">
        <ele>200.0916748</ele>
        <time>2010-06-26T07:33:08Z</time>
      </trkpt>
      <trkpt lat="43.55002" lon="6.62223">
        <ele>201.5335693</ele>
        <time>2010-06-26T07:33:15Z</time>
      </trkpt>
      <trkpt lat="43.54995" lon="6.62172">
        <ele>202.494873</ele>
        <time>2010-06-26T07:33:32Z</time>
      </trkpt>
      <trkpt lat="43.54973" lon="6.62146">
        <ele>204.4174805</ele>
        <time>2010-06-26T07:33:45Z</time>
      </trkpt>
      <trkpt lat="43.54938" lon="6.62157">
        <ele>206.3400879</ele>
        <time>2010-06-26T07:33:59Z</time>
      </trkpt>
      <trkpt lat="43.54923" lon="6.62163">
        <ele>207.7821045</ele>
        <time>2010-06-26T07:34:05Z</time>
      </trkpt>
      <trkpt lat="43.54916" lon="6.62167">
        <ele>207.7821045</ele>
        <time>2010-06-26T07:34:08Z</time>
      </trkpt>
      <trkpt lat="43.54897" lon="6.6221">
        <ele>210.1854248</ele>
        <time>2010-06-26T07:34:23Z</time>
      </trkpt>
      <trkpt lat="43.5488" lon="6.62234">
        <ele>212.1080322</ele>
        <time>2010-06-26T07:34:32Z</time>
      </trkpt>
      <trkpt lat="43.54867" lon="6.62239">
        <ele>212.588623</ele>
        <time>2010-06-26T07:34:38Z</time>
      </trkpt>
      <trkpt lat="43.54865" lon="6.62235">
        <ele>212.1080322</ele>
        <time>2010-06-26T07:34:40Z</time>
      </trkpt>
      <trkpt lat="43.54866" lon="6.62219">
        <ele>212.1080322</ele>
        <time>2010-06-26T07:34:45Z</time>
      </trkpt>
      <trkpt lat="43.54871" lon="6.62207">
        <ele>212.1080322</ele>
        <time>2010-06-26T07:34:49Z</time>
      </trkpt>
      <trkpt lat="43.54878" lon="6.6215">
        <ele>213.0693359</ele>
        <time>2010-06-26T07:35:05Z</time>
      </trkpt>
      <trkpt lat="43.54873" lon="6.6211">
        <ele>214.9919434</ele>
        <time>2010-06-26T07:35:16Z</time>
      </trkpt>
      <trkpt lat="43.54869" lon="6.62108">
        <ele>215.9532471</ele>
        <time>2010-06-26T07:35:18Z</time>
      </trkpt>
      <trkpt lat="43.54866" lon="6.62123">
        <ele>217.3953857</ele>
        <time>2010-06-26T07:35:24Z</time>
      </trkpt>
      <trkpt lat="43.54869" lon="6.62157">
        <ele>218.3565674</ele>
        <time>2010-06-26T07:35:36Z</time>
      </trkpt>
      <trkpt lat="43.54864" lon="6.62183">
        <ele>219.3179932</ele>
        <time>2010-06-26T07:36:00Z</time>
      </trkpt>
      <trkpt lat="43.54842" lon="6.62235">
        <ele>220.2791748</ele>
        <time>2010-06-26T07:36:17Z</time>
      </trkpt>
      <trkpt lat="43.54817" lon="6.62281">
        <ele>222.6824951</ele>
        <time>2010-06-26T07:36:34Z</time>
      </trkpt>
      <trkpt lat="43.54807" lon="6.623">
        <ele>224.1245117</ele>
        <time>2010-06-26T07:36:42Z</time>
      </trkpt>
      <trkpt lat="43.54794" lon="6.62335">
        <ele>226.527832</ele>
        <time>2010-06-26T07:36:54Z</time>
      </trkpt>
      <trkpt lat="43.54788" lon="6.62338">
        <ele>227.4891357</ele>
        <time>2010-06-26T07:36:57Z</time>
      </trkpt>
      <trkpt lat="43.54793" lon="6.62358">
        <ele>227.9697266</ele>
        <time>2010-06-26T07:37:07Z</time>
      </trkpt>
      <trkpt lat="43.54826" lon="6.62344">
        <ele>228.9311523</ele>
        <time>2010-06-26T07:37:21Z</time>
      </trkpt>
      <trkpt lat="43.54863" lon="6.62327">
        <ele>230.3730469</ele>
        <time>2010-06-26T07:37:38Z</time>
      </trkpt>
      <trkpt lat="43.54884" lon="6.62311">
        <ele>231.3343506</ele>
        <time>2010-06-26T07:37:49Z</time>
      </trkpt>
      <trkpt lat="43.5489" lon="6.6234">
        <ele>233.7376709</ele>
        <time>2010-06-26T07:38:00Z</time>
      </trkpt>
      <trkpt lat="43.54891" lon="6.62343">
        <ele>233.7376709</ele>
        <time>2010-06-26T07:38:01Z</time>
      </trkpt>
      <trkpt lat="43.54895" lon="6.62368">
        <ele>234.6990967</ele>
        <time>2010-06-26T07:38:09Z</time>
      </trkpt>
      <trkpt lat="43.54912" lon="6.62361">
        <ele>235.6602783</ele>
        <time>2010-06-26T07:38:19Z</time>
      </trkpt>
      <trkpt lat="43.5493" lon="6.62374">
        <ele>237.1022949</ele>
        <time>2010-06-26T07:38:29Z</time>
      </trkpt>
      <trkpt lat="43.54928" lon="6.62387">
        <ele>238.5443115</ele>
        <time>2010-06-26T07:38:33Z</time>
      </trkpt>
      <trkpt lat="43.54923" lon="6.6241">
        <ele>239.9862061</ele>
        <time>2010-06-26T07:38:40Z</time>
      </trkpt>
      <trkpt lat="43.54926" lon="6.62423">
        <ele>239.9862061</ele>
        <time>2010-06-26T07:38:44Z</time>
      </trkpt>
      <trkpt lat="43.54926" lon="6.62472">
        <ele>242.3896484</ele>
        <time>2010-06-26T07:38:58Z</time>
      </trkpt>
      <trkpt lat="43.54922" lon="6.62513">
        <ele>244.7928467</ele>
        <time>2010-06-26T07:39:10Z</time>
      </trkpt>
      <trkpt lat="43.54913" lon="6.62558">
        <ele>246.7154541</ele>
        <time>2010-06-26T07:39:23Z</time>
      </trkpt>
      <trkpt lat="43.54905" lon="6.62583">
        <ele>247.6767578</ele>
        <time>2010-06-26T07:39:31Z</time>
      </trkpt>
      <trkpt lat="43.54899" lon="6.62595">
        <ele>248.1575928</ele>
        <time>2010-06-26T07:39:35Z</time>
      </trkpt>
      <trkpt lat="43.54884" lon="6.62627">
        <ele>248.6381836</ele>
        <time>2010-06-26T07:39:48Z</time>
      </trkpt>
      <trkpt lat="43.54877" lon="6.62674">
        <ele>250.0802002</ele>
        <time>2010-06-26T07:40:03Z</time>
      </trkpt>
      <trkpt lat="43.54903" lon="6.62689">
        <ele>251.0413818</ele>
        <time>2010-06-26T07:40:15Z</time>
      </trkpt>
      <trkpt lat="43.54913" lon="6.62696">
        <ele>252.4833984</ele>
        <time>2010-06-26T07:40:20Z</time>
      </trkpt>
      <trkpt lat="43.54922" lon="6.6271">
        <ele>252.4833984</ele>
        <time>2010-06-26T07:40:26Z</time>
      </trkpt>
      <trkpt lat="43.54925" lon="6.62718">
        <ele>253.925415</ele>
        <time>2010-06-26T07:40:29Z</time>
      </trkpt>
      <trkpt lat="43.54922" lon="6.62729">
        <ele>254.4060059</ele>
        <time>2010-06-26T07:40:34Z</time>
      </trkpt>
      <trkpt lat="43.54905" lon="6.62773">
        <ele>256.8093262</ele>
        <time>2010-06-26T07:40:50Z</time>
      </trkpt>
      <trkpt lat="43.549" lon="6.62809">
        <ele>258.2513428</ele>
        <time>2010-06-26T07:41:02Z</time>
      </trkpt>
      <trkpt lat="43.54927" lon="6.62821">
        <ele>259.2126465</ele>
        <time>2010-06-26T07:41:14Z</time>
      </trkpt>
      <trkpt lat="43.5496" lon="6.62831">
        <ele>261.6159668</ele>
        <time>2010-06-26T07:41:27Z</time>
      </trkpt>
      <trkpt lat="43.54961" lon="6.62834">
        <ele>262.5771484</ele>
        <time>2010-06-26T07:41:28Z</time>
      </trkpt>
      <trkpt lat="43.54944" lon="6.62878">
        <ele>263.0578613</ele>
        <time>2010-06-26T07:41:42Z</time>
      </trkpt>
      <trkpt lat="43.54918" lon="6.62903">
        <ele>265.4613037</ele>
        <time>2010-06-26T07:41:54Z</time>
      </trkpt>
      <trkpt lat="43.54902" lon="6.62951">
        <ele>266.4224854</ele>
        <time>2010-06-26T07:42:08Z</time>
      </trkpt>
      <trkpt lat="43.54888" lon="6.62979">
        <ele>267.864502</ele>
        <time>2010-06-26T07:42:18Z</time>
      </trkpt>
      <trkpt lat="43.54885" lon="6.62979">
        <ele>268.3450928</ele>
        <time>2010-06-26T07:42:19Z</time>
      </trkpt>
      <trkpt lat="43.5486" lon="6.62939">
        <ele>271.229126</ele>
        <time>2010-06-26T07:42:34Z</time>
      </trkpt>
      <trkpt lat="43.54844" lon="6.62927">
        <ele>273.1518555</ele>
        <time>2010-06-26T07:42:41Z</time>
      </trkpt>
      <trkpt lat="43.54815" lon="6.62923">
        <ele>275.0744629</ele>
        <time>2010-06-26T07:42:53Z</time>
      </trkpt>
      <trkpt lat="43.54795" lon="6.62941">
        <ele>277.958252</ele>
        <time>2010-06-26T07:43:03Z</time>
      </trkpt>
      <trkpt lat="43.54765" lon="6.62941">
        <ele>280.8424072</ele>
        <time>2010-06-26T07:43:17Z</time>
      </trkpt>
      <trkpt lat="43.54741" lon="6.62951">
        <ele>281.322998</ele>
        <time>2010-06-26T07:43:31Z</time>
      </trkpt>
      <trkpt lat="43.54739" lon="6.62952">
        <ele>281.8035889</ele>
        <time>2010-06-26T07:43:32Z</time>
      </trkpt>
      <trkpt lat="43.54736" lon="6.62959">
        <ele>283.2456055</ele>
        <time>2010-06-26T07:43:46Z</time>
      </trkpt>
      <trkpt lat="43.54735" lon="6.62962">
        <ele>282.7650146</ele>
        <time>2010-06-26T07:43:49Z</time>
      </trkpt>
      <trkpt lat="43.54734" lon="6.62978">
        <ele>283.2456055</ele>
        <time>2010-06-26T07:44:00Z</time>
      </trkpt>
      <trkpt lat="43.54718" lon="6.63">
        <ele>285.1682129</ele>
        <time>2010-06-26T07:44:14Z</time>
      </trkpt>
      <trkpt lat="43.54715" lon="6.63003">
        <ele>284.6876221</ele>
        <time>2010-06-26T07:44:16Z</time>
      </trkpt>
      <trkpt lat="43.54712" lon="6.63012">
        <ele>285.1682129</ele>
        <time>2010-06-26T07:44:20Z</time>
      </trkpt>
      <trkpt lat="43.54713" lon="6.63022">
        <ele>285.6488037</ele>
        <time>2010-06-26T07:44:24Z</time>
      </trkpt>
      <trkpt lat="43.54714" lon="6.63037">
        <ele>286.6102295</ele>
        <time>2010-06-26T07:44:29Z</time>
      </trkpt>
      <trkpt lat="43.54726" lon="6.63071">
        <ele>287.5714111</ele>
        <time>2010-06-26T07:44:43Z</time>
      </trkpt>
      <trkpt lat="43.54727" lon="6.63073">
        <ele>288.0522461</ele>
        <time>2010-06-26T07:44:44Z</time>
      </trkpt>
      <trkpt lat="43.5473" lon="6.63092">
        <ele>291.8974609</ele>
        <time>2010-06-26T07:44:52Z</time>
      </trkpt>
      <trkpt lat="43.54726" lon="6.63131">
        <ele>289.9748535</ele>
        <time>2010-06-26T07:45:06Z</time>
      </trkpt>
      <trkpt lat="43.54717" lon="6.63173">
        <ele>291.416748</ele>
        <time>2010-06-26T07:45:20Z</time>
      </trkpt>
      <trkpt lat="43.54707" lon="6.63201">
        <ele>292.3781738</ele>
        <time>2010-06-26T07:45:30Z</time>
      </trkpt>
      <trkpt lat="43.54707" lon="6.63201">
        <ele>292.3781738</ele>
        <time>2010-06-26T07:45:34Z</time>
      </trkpt>
      <trkpt lat="43.54706" lon="6.63208">
        <ele>292.3781738</ele>
        <time>2010-06-26T07:45:38Z</time>
      </trkpt>
      <trkpt lat="43.54683" lon="6.63243">
        <ele>293.8200684</ele>
        <time>2010-06-26T07:45:53Z</time>
      </trkpt>
      <trkpt lat="43.5467" lon="6.63252">
        <ele>295.2619629</ele>
        <time>2010-06-26T07:46:00Z</time>
      </trkpt>
      <trkpt lat="43.54667" lon="6.63248">
        <ele>295.7426758</ele>
        <time>2010-06-26T07:46:10Z</time>
      </trkpt>
      <trkpt lat="43.54667" lon="6.63247">
        <ele>295.2619629</ele>
        <time>2010-06-26T07:46:21Z</time>
      </trkpt>
      <trkpt lat="43.54666" lon="6.63245">
        <ele>294.7813721</ele>
        <time>2010-06-26T07:46:34Z</time>
      </trkpt>
      <trkpt lat="43.5467" lon="6.63248">
        <ele>294.7813721</ele>
        <time>2010-06-26T07:48:16Z</time>
      </trkpt>
      <trkpt lat="43.54683" lon="6.63223">
        <ele>295.7426758</ele>
        <time>2010-06-26T07:48:30Z</time>
      </trkpt>
      <trkpt lat="43.54689" lon="6.63205">
        <ele>296.7041016</ele>
        <time>2010-06-26T07:48:38Z</time>
      </trkpt>
      <trkpt lat="43.54694" lon="6.63169">
        <ele>299.5880127</ele>
        <time>2010-06-26T07:48:52Z</time>
      </trkpt>
      <trkpt lat="43.54694" lon="6.63159">
        <ele>302.4719238</ele>
        <time>2010-06-26T07:48:56Z</time>
      </trkpt>
      <trkpt lat="43.54694" lon="6.63156">
        <ele>302.4719238</ele>
        <time>2010-06-26T07:48:57Z</time>
      </trkpt>
      <trkpt lat="43.5469" lon="6.63114">
        <ele>304.3946533</ele>
        <time>2010-06-26T07:49:11Z</time>
      </trkpt>
      <trkpt lat="43.54677" lon="6.63063">
        <ele>305.8366699</ele>
        <time>2010-06-26T07:49:29Z</time>
      </trkpt>
      <trkpt lat="43.54664" lon="6.63011">
        <ele>308.2398682</ele>
        <time>2010-06-26T07:49:45Z</time>
      </trkpt>
      <trkpt lat="43.54675" lon="6.62977">
        <ele>309.2011719</ele>
        <time>2010-06-26T07:49:56Z</time>
      </trkpt>
      <trkpt lat="43.54682" lon="6.62933">
        <ele>311.1237793</ele>
        <time>2010-06-26T07:50:09Z</time>
      </trkpt>
      <trkpt lat="43.54703" lon="6.62891">
        <ele>313.5272217</ele>
        <time>2010-06-26T07:50:24Z</time>
      </trkpt>
      <trkpt lat="43.54731" lon="6.6286">
        <ele>314.4884033</ele>
        <time>2010-06-26T07:50:38Z</time>
      </trkpt>
      <trkpt lat="43.54738" lon="6.62812">
        <ele>316.4110107</ele>
        <time>2010-06-26T07:50:53Z</time>
      </trkpt>
      <trkpt lat="43.54737" lon="6.62769">
        <ele>317.8530273</ele>
        <time>2010-06-26T07:51:05Z</time>
      </trkpt>
      <trkpt lat="43.54727" lon="6.62734">
        <ele>319.2950439</ele>
        <time>2010-06-26T07:51:16Z</time>
      </trkpt>
      <trkpt lat="43.54709" lon="6.62684">
        <ele>320.7370605</ele>
        <time>2010-06-26T07:51:32Z</time>
      </trkpt>
      <trkpt lat="43.54692" lon="6.62658">
        <ele>322.1789551</ele>
        <time>2010-06-26T07:51:42Z</time>
      </trkpt>
      <trkpt lat="43.54676" lon="6.62664">
        <ele>322.659668</ele>
        <time>2010-06-26T07:51:49Z</time>
      </trkpt>
      <trkpt lat="43.54631" lon="6.62684">
        <ele>325.0629883</ele>
        <time>2010-06-26T07:52:07Z</time>
      </trkpt>
      <trkpt lat="43.54592" lon="6.6267">
        <ele>326.5048828</ele>
        <time>2010-06-26T07:52:22Z</time>
      </trkpt>
      <trkpt lat="43.54561" lon="6.62642">
        <ele>326.9855957</ele>
        <time>2010-06-26T07:52:35Z</time>
      </trkpt>
      <trkpt lat="43.54532" lon="6.62625">
        <ele>329.8695068</ele>
        <time>2010-06-26T07:52:48Z</time>
      </trkpt>
      <trkpt lat="43.54532" lon="6.62584">
        <ele>330.8309326</ele>
        <time>2010-06-26T07:52:59Z</time>
      </trkpt>
      <trkpt lat="43.54536" lon="6.62535">
        <ele>333.2341309</ele>
        <time>2010-06-26T07:53:12Z</time>
      </trkpt>
      <trkpt lat="43.54521" lon="6.62482">
        <ele>336.598877</ele>
        <time>2010-06-26T07:53:27Z</time>
      </trkpt>
      <trkpt lat="43.54518" lon="6.62468">
        <ele>337.5600586</ele>
        <time>2010-06-26T07:53:31Z</time>
      </trkpt>
      <trkpt lat="43.54504" lon="6.62452">
        <ele>337.5600586</ele>
        <time>2010-06-26T07:53:39Z</time>
      </trkpt>
      <trkpt lat="43.5448" lon="6.62463">
        <ele>339.482666</ele>
        <time>2010-06-26T07:53:52Z</time>
      </trkpt>
      <trkpt lat="43.54474" lon="6.62474">
        <ele>341.4052734</ele>
        <time>2010-06-26T07:53:57Z</time>
      </trkpt>
      <trkpt lat="43.54459" lon="6.62508">
        <ele>343.8085938</ele>
        <time>2010-06-26T07:54:11Z</time>
      </trkpt>
      <trkpt lat="43.54453" lon="6.62526">
        <ele>345.2506104</ele>
        <time>2010-06-26T07:54:18Z</time>
      </trkpt>
      <trkpt lat="43.54436" lon="6.62576">
        <ele>347.1732178</ele>
        <time>2010-06-26T07:54:36Z</time>
      </trkpt>
      <trkpt lat="43.5441" lon="6.62613">
        <ele>350.057251</ele>
        <time>2010-06-26T07:54:50Z</time>
      </trkpt>
      <trkpt lat="43.54377" lon="6.62663">
        <ele>353.421875</ele>
        <time>2010-06-26T07:55:08Z</time>
      </trkpt>
      <trkpt lat="43.54369" lon="6.62706">
        <ele>356.786377</ele>
        <time>2010-06-26T07:55:20Z</time>
      </trkpt>
      <trkpt lat="43.54366" lon="6.62769">
        <ele>359.1896973</ele>
        <time>2010-06-26T07:55:36Z</time>
      </trkpt>
      <trkpt lat="43.5436" lon="6.62824">
        <ele>360.6317139</ele>
        <time>2010-06-26T07:55:52Z</time>
      </trkpt>
      <trkpt lat="43.5435" lon="6.62865">
        <ele>361.1124268</ele>
        <time>2010-06-26T07:56:07Z</time>
      </trkpt>
      <trkpt lat="43.54337" lon="6.62904">
        <ele>363.0350342</ele>
        <time>2010-06-26T07:56:21Z</time>
      </trkpt>
      <trkpt lat="43.54325" lon="6.62925">
        <ele>366.3995361</ele>
        <time>2010-06-26T07:56:30Z</time>
      </trkpt>
      <trkpt lat="43.54292" lon="6.62959">
        <ele>369.2836914</ele>
        <time>2010-06-26T07:56:49Z</time>
      </trkpt>
      <trkpt lat="43.54255" lon="6.6297">
        <ele>372.1674805</ele>
        <time>2010-06-26T07:57:07Z</time>
      </trkpt>
      <trkpt lat="43.54235" lon="6.62976">
        <ele>374.0900879</ele>
        <time>2010-06-26T07:57:16Z</time>
      </trkpt>
      <trkpt lat="43.54224" lon="6.62965">
        <ele>375.5321045</ele>
        <time>2010-06-26T07:57:22Z</time>
      </trkpt>
      <trkpt lat="43.54207" lon="6.62924">
        <ele>378.8968506</ele>
        <time>2010-06-26T07:57:36Z</time>
      </trkpt>
      <trkpt lat="43.54194" lon="6.62873">
        <ele>380.819458</ele>
        <time>2010-06-26T07:57:53Z</time>
      </trkpt>
      <trkpt lat="43.54181" lon="6.62824">
        <ele>382.7420654</ele>
        <time>2010-06-26T07:58:10Z</time>
      </trkpt>
      <trkpt lat="43.54171" lon="6.6278">
        <ele>383.7032471</ele>
        <time>2010-06-26T07:58:25Z</time>
      </trkpt>
      <trkpt lat="43.54163" lon="6.62724">
        <ele>386.1066895</ele>
        <time>2010-06-26T07:58:42Z</time>
      </trkpt>
      <trkpt lat="43.54151" lon="6.62661">
        <ele>389.9519043</ele>
        <time>2010-06-26T07:59:01Z</time>
      </trkpt>
      <trkpt lat="43.54132" lon="6.62604">
        <ele>392.3553467</ele>
        <time>2010-06-26T07:59:18Z</time>
      </trkpt>
      <trkpt lat="43.54123" lon="6.6256">
        <ele>393.7972412</ele>
        <time>2010-06-26T07:59:32Z</time>
      </trkpt>
      <trkpt lat="43.54122" lon="6.62546">
        <ele>395.2391357</ele>
        <time>2010-06-26T07:59:38Z</time>
      </trkpt>
      <trkpt lat="43.54124" lon="6.62544">
        <ele>394.7585449</ele>
        <time>2010-06-26T07:59:40Z</time>
      </trkpt>
      <trkpt lat="43.54125" lon="6.6255">
        <ele>394.2779541</ele>
        <time>2010-06-26T07:59:44Z</time>
      </trkpt>
      <trkpt lat="43.54124" lon="6.62554">
        <ele>394.2779541</ele>
        <time>2010-06-26T07:59:46Z</time>
      </trkpt>
      <trkpt lat="43.54124" lon="6.62565">
        <ele>393.3165283</ele>
        <time>2010-06-26T08:00:00Z</time>
      </trkpt>
      <trkpt lat="43.54124" lon="6.62568">
        <ele>393.7972412</ele>
        <time>2010-06-26T08:01:04Z</time>
      </trkpt>
      <trkpt lat="43.54125" lon="6.62564">
        <ele>394.2779541</ele>
        <time>2010-06-26T08:01:17Z</time>
      </trkpt>
      <trkpt lat="43.54123" lon="6.6256">
        <ele>394.2779541</ele>
        <time>2010-06-26T08:02:31Z</time>
      </trkpt>
      <trkpt lat="43.54124" lon="6.62556">
        <ele>393.3165283</ele>
        <time>2010-06-26T08:02:56Z</time>
      </trkpt>
      <trkpt lat="43.54125" lon="6.62556">
        <ele>392.3553467</ele>
        <time>2010-06-26T08:04:47Z</time>
      </trkpt>
      <trkpt lat="43.54121" lon="6.62556">
        <ele>393.7972412</ele>
        <time>2010-06-26T08:07:31Z</time>
      </trkpt>
      <trkpt lat="43.54123" lon="6.62555">
        <ele>396.6811523</ele>
        <time>2010-06-26T08:11:51Z</time>
      </trkpt>
      <trkpt lat="43.54123" lon="6.62555">
        <ele>396.6811523</ele>
        <time>2010-06-26T08:11:52Z</time>
      </trkpt>
      <trkpt lat="43.54121" lon="6.62559">
        <ele>395.7198486</ele>
        <time>2010-06-26T08:12:13Z</time>
      </trkpt>
      <trkpt lat="43.54116" lon="6.6256">
        <ele>396.2005615</ele>
        <time>2010-06-26T08:13:03Z</time>
      </trkpt>
      <trkpt lat="43.54115" lon="6.62525">
        <ele>397.6424561</ele>
        <time>2010-06-26T08:13:18Z</time>
      </trkpt>
      <trkpt lat="43.54112" lon="6.62484">
        <ele>399.0843506</ele>
        <time>2010-06-26T08:13:32Z</time>
      </trkpt>
      <trkpt lat="43.54117" lon="6.62446">
        <ele>400.0458984</ele>
        <time>2010-06-26T08:13:46Z</time>
      </trkpt>
      <trkpt lat="43.54122" lon="6.62411">
        <ele>402.4490967</ele>
        <time>2010-06-26T08:13:58Z</time>
      </trkpt>
      <trkpt lat="43.54122" lon="6.62362">
        <ele>404.3717041</ele>
        <time>2010-06-26T08:14:16Z</time>
      </trkpt>
      <trkpt lat="43.54119" lon="6.62314">
        <ele>404.8522949</ele>
        <time>2010-06-26T08:14:30Z</time>
      </trkpt>
      <trkpt lat="43.54119" lon="6.6231">
        <ele>405.3330078</ele>
        <time>2010-06-26T08:14:41Z</time>
      </trkpt>
      <trkpt lat="43.54119" lon="6.6231">
        <ele>405.3330078</ele>
        <time>2010-06-26T08:14:52Z</time>
      </trkpt>
      <trkpt lat="43.54121" lon="6.62314">
        <ele>405.3330078</ele>
        <time>2010-06-26T08:15:10Z</time>
      </trkpt>
      <trkpt lat="43.54122" lon="6.62317">
        <ele>404.8522949</ele>
        <time>2010-06-26T08:15:35Z</time>
      </trkpt>
      <trkpt lat="43.54121" lon="6.62317">
        <ele>404.3717041</ele>
        <time>2010-06-26T08:16:06Z</time>
      </trkpt>
      <trkpt lat="43.54121" lon="6.62317">
        <ele>404.3717041</ele>
        <time>2010-06-26T08:17:07Z</time>
      </trkpt>
      <trkpt lat="43.54121" lon="6.62318">
        <ele>406.2943115</ele>
        <time>2010-06-26T08:20:01Z</time>
      </trkpt>
      <trkpt lat="43.54119" lon="6.6232">
        <ele>406.2943115</ele>
        <time>2010-06-26T08:20:14Z</time>
      </trkpt>
      <trkpt lat="43.54119" lon="6.62342">
        <ele>404.8522949</ele>
        <time>2010-06-26T08:20:21Z</time>
      </trkpt>
      <trkpt lat="43.54126" lon="6.62398">
        <ele>403.4104004</ele>
        <time>2010-06-26T08:20:34Z</time>
      </trkpt>
      <trkpt lat="43.54117" lon="6.62483">
        <ele>400.0458984</ele>
        <time>2010-06-26T08:20:45Z</time>
      </trkpt>
      <trkpt lat="43.54117" lon="6.62506">
        <ele>399.5650635</ele>
        <time>2010-06-26T08:20:48Z</time>
      </trkpt>
      <trkpt lat="43.54117" lon="6.62537">
        <ele>398.1231689</ele>
        <time>2010-06-26T08:20:54Z</time>
      </trkpt>
      <trkpt lat="43.54116" lon="6.62559">
        <ele>399.0843506</ele>
        <time>2010-06-26T08:21:02Z</time>
      </trkpt>
      <trkpt lat="43.54117" lon="6.62605">
        <ele>402.4490967</ele>
        <time>2010-06-26T08:21:18Z</time>
      </trkpt>
      <trkpt lat="43.54116" lon="6.62639">
        <ele>405.8137207</ele>
        <time>2010-06-26T08:21:31Z</time>
      </trkpt>
      <trkpt lat="43.54119" lon="6.62683">
        <ele>408.217041</ele>
        <time>2010-06-26T08:21:50Z</time>
      </trkpt>
      <trkpt lat="43.54119" lon="6.62693">
        <ele>408.6976318</ele>
        <time>2010-06-26T08:21:54Z</time>
      </trkpt>
      <trkpt lat="43.54119" lon="6.62704">
        <ele>409.6590576</ele>
        <time>2010-06-26T08:21:58Z</time>
      </trkpt>
      <trkpt lat="43.54114" lon="6.62739">
        <ele>411.1009521</ele>
        <time>2010-06-26T08:22:14Z</time>
      </trkpt>
      <trkpt lat="43.54111" lon="6.62767">
        <ele>411.581665</ele>
        <time>2010-06-26T08:22:25Z</time>
      </trkpt>
      <trkpt lat="43.54107" lon="6.62804">
        <ele>412.5428467</ele>
        <time>2010-06-26T08:22:40Z</time>
      </trkpt>
      <trkpt lat="43.54109" lon="6.62852">
        <ele>412.5428467</ele>
        <time>2010-06-26T08:22:53Z</time>
      </trkpt>
      <trkpt lat="43.54111" lon="6.62902">
        <ele>412.5428467</ele>
        <time>2010-06-26T08:23:07Z</time>
      </trkpt>
      <trkpt lat="43.54107" lon="6.62936">
        <ele>413.5042725</ele>
        <time>2010-06-26T08:23:17Z</time>
      </trkpt>
      <trkpt lat="43.54103" lon="6.62952">
        <ele>413.9848633</ele>
        <time>2010-06-26T08:23:23Z</time>
      </trkpt>
      <trkpt lat="43.54095" lon="6.62982">
        <ele>415.9074707</ele>
        <time>2010-06-26T08:23:35Z</time>
      </trkpt>
      <trkpt lat="43.54091" lon="6.62994">
        <ele>416.8688965</ele>
        <time>2010-06-26T08:23:40Z</time>
      </trkpt>
      <trkpt lat="43.54081" lon="6.63021">
        <ele>419.2722168</ele>
        <time>2010-06-26T08:23:53Z</time>
      </trkpt>
      <trkpt lat="43.54073" lon="6.63043">
        <ele>420.7141113</ele>
        <time>2010-06-26T08:24:05Z</time>
      </trkpt>
      <trkpt lat="43.54071" lon="6.63048">
        <ele>421.1948242</ele>
        <time>2010-06-26T08:24:08Z</time>
      </trkpt>
      <trkpt lat="43.54069" lon="6.63057">
        <ele>421.675415</ele>
        <time>2010-06-26T08:24:12Z</time>
      </trkpt>
      <trkpt lat="43.5407" lon="6.63061">
        <ele>421.675415</ele>
        <time>2010-06-26T08:24:14Z</time>
      </trkpt>
      <trkpt lat="43.54069" lon="6.63073">
        <ele>422.1560059</ele>
        <time>2010-06-26T08:24:19Z</time>
      </trkpt>
      <trkpt lat="43.54068" lon="6.63092">
        <ele>423.5980225</ele>
        <time>2010-06-26T08:24:29Z</time>
      </trkpt>
      <trkpt lat="43.54067" lon="6.63103">
        <ele>424.0787354</ele>
        <time>2010-06-26T08:24:35Z</time>
      </trkpt>
      <trkpt lat="43.54065" lon="6.63117">
        <ele>426.0013428</ele>
        <time>2010-06-26T08:24:41Z</time>
      </trkpt>
      <trkpt lat="43.54058" lon="6.63149">
        <ele>428.4046631</ele>
        <time>2010-06-26T08:24:57Z</time>
      </trkpt>
      <trkpt lat="43.54058" lon="6.63154">
        <ele>428.885376</ele>
        <time>2010-06-26T08:24:59Z</time>
      </trkpt>
      <trkpt lat="43.5405" lon="6.63187">
        <ele>432.25</ele>
        <time>2010-06-26T08:25:17Z</time>
      </trkpt>
      <trkpt lat="43.54042" lon="6.63217">
        <ele>433.6918945</ele>
        <time>2010-06-26T08:25:34Z</time>
      </trkpt>
      <trkpt lat="43.54034" lon="6.63243">
        <ele>435.1339111</ele>
        <time>2010-06-26T08:25:48Z</time>
      </trkpt>
      <trkpt lat="43.54027" lon="6.63244">
        <ele>435.614502</ele>
        <time>2010-06-26T08:25:52Z</time>
      </trkpt>
      <trkpt lat="43.5402" lon="6.63242">
        <ele>435.1339111</ele>
        <time>2010-06-26T08:25:55Z</time>
      </trkpt>
      <trkpt lat="43.5401" lon="6.63257">
        <ele>433.2113037</ele>
        <time>2010-06-26T08:26:02Z</time>
      </trkpt>
      <trkpt lat="43.54007" lon="6.63322">
        <ele>431.769165</ele>
        <time>2010-06-26T08:26:14Z</time>
      </trkpt>
      <trkpt lat="43.54001" lon="6.63343">
        <ele>429.8465576</ele>
        <time>2010-06-26T08:26:18Z</time>
      </trkpt>
      <trkpt lat="43.53971" lon="6.63393">
        <ele>429.3659668</ele>
        <time>2010-06-26T08:26:31Z</time>
      </trkpt>
      <trkpt lat="43.53943" lon="6.63419">
        <ele>428.885376</ele>
        <time>2010-06-26T08:26:42Z</time>
      </trkpt>
      <trkpt lat="43.539" lon="6.63438">
        <ele>427.9239502</ele>
        <time>2010-06-26T08:26:54Z</time>
      </trkpt>
      <trkpt lat="43.53891" lon="6.63459">
        <ele>426.9627686</ele>
        <time>2010-06-26T08:27:02Z</time>
      </trkpt>
      <trkpt lat="43.53894" lon="6.63474">
        <ele>426.0013428</ele>
        <time>2010-06-26T08:27:05Z</time>
      </trkpt>
      <trkpt lat="43.53901" lon="6.63505">
        <ele>423.5980225</ele>
        <time>2010-06-26T08:27:10Z</time>
      </trkpt>
      <trkpt lat="43.53883" lon="6.63558">
        <ele>422.6367188</ele>
        <time>2010-06-26T08:27:19Z</time>
      </trkpt>
      <trkpt lat="43.53879" lon="6.6356">
        <ele>422.6367188</ele>
        <time>2010-06-26T08:27:20Z</time>
      </trkpt>
      <trkpt lat="43.53862" lon="6.63573">
        <ele>422.1560059</ele>
        <time>2010-06-26T08:27:25Z</time>
      </trkpt>
      <trkpt lat="43.53852" lon="6.63597">
        <ele>421.675415</ele>
        <time>2010-06-26T08:27:30Z</time>
      </trkpt>
      <trkpt lat="43.5383" lon="6.63662">
        <ele>419.2722168</ele>
        <time>2010-06-26T08:27:42Z</time>
      </trkpt>
      <trkpt lat="43.53821" lon="6.63682">
        <ele>417.8302002</ele>
        <time>2010-06-26T08:27:46Z</time>
      </trkpt>
      <trkpt lat="43.53814" lon="6.63704">
        <ele>416.8688965</ele>
        <time>2010-06-26T08:27:50Z</time>
      </trkpt>
      <trkpt lat="43.53812" lon="6.63725">
        <ele>414.946167</ele>
        <time>2010-06-26T08:27:53Z</time>
      </trkpt>
      <trkpt lat="43.53831" lon="6.63748">
        <ele>414.4654541</ele>
        <time>2010-06-26T08:27:58Z</time>
      </trkpt>
      <trkpt lat="43.53872" lon="6.63786">
        <ele>412.5428467</ele>
        <time>2010-06-26T08:28:09Z</time>
      </trkpt>
      <trkpt lat="43.53873" lon="6.6379">
        <ele>412.5428467</ele>
        <time>2010-06-26T08:28:10Z</time>
      </trkpt>
      <trkpt lat="43.53867" lon="6.6381">
        <ele>411.1009521</ele>
        <time>2010-06-26T08:28:15Z</time>
      </trkpt>
      <trkpt lat="43.53857" lon="6.63856">
        <ele>410.1396484</ele>
        <time>2010-06-26T08:28:24Z</time>
      </trkpt>
      <trkpt lat="43.5385" lon="6.63868">
        <ele>408.6976318</ele>
        <time>2010-06-26T08:28:28Z</time>
      </trkpt>
      <trkpt lat="43.53841" lon="6.63887">
        <ele>408.217041</ele>
        <time>2010-06-26T08:28:34Z</time>
      </trkpt>
      <trkpt lat="43.53846" lon="6.63903">
        <ele>407.2556152</ele>
        <time>2010-06-26T08:28:39Z</time>
      </trkpt>
      <trkpt lat="43.5389" lon="6.63935">
        <ele>405.8137207</ele>
        <time>2010-06-26T08:28:51Z</time>
      </trkpt>
      <trkpt lat="43.53909" lon="6.63973">
        <ele>405.8137207</ele>
        <time>2010-06-26T08:29:00Z</time>
      </trkpt>
      <trkpt lat="43.53906" lon="6.63984">
        <ele>405.8137207</ele>
        <time>2010-06-26T08:29:02Z</time>
      </trkpt>
      <trkpt lat="43.53886" lon="6.64025">
        <ele>404.8522949</ele>
        <time>2010-06-26T08:29:12Z</time>
      </trkpt>
      <trkpt lat="43.53853" lon="6.64066">
        <ele>404.3717041</ele>
        <time>2010-06-26T08:29:24Z</time>
      </trkpt>
      <trkpt lat="43.53821" lon="6.64095">
        <ele>405.3330078</ele>
        <time>2010-06-26T08:29:35Z</time>
      </trkpt>
      <trkpt lat="43.53795" lon="6.64113">
        <ele>405.8137207</ele>
        <time>2010-06-26T08:29:45Z</time>
      </trkpt>
      <trkpt lat="43.53777" lon="6.64131">
        <ele>406.2943115</ele>
        <time>2010-06-26T08:29:53Z</time>
      </trkpt>
      <trkpt lat="43.53792" lon="6.64146">
        <ele>404.3717041</ele>
        <time>2010-06-26T08:30:01Z</time>
      </trkpt>
      <trkpt lat="43.53819" lon="6.64167">
        <ele>403.8911133</ele>
        <time>2010-06-26T08:30:11Z</time>
      </trkpt>
      <trkpt lat="43.53847" lon="6.64177">
        <ele>401.487793</ele>
        <time>2010-06-26T08:30:20Z</time>
      </trkpt>
      <trkpt lat="43.53851" lon="6.64176">
        <ele>400.5264893</ele>
        <time>2010-06-26T08:30:22Z</time>
      </trkpt>
      <trkpt lat="43.53881" lon="6.64165">
        <ele>399.0843506</ele>
        <time>2010-06-26T08:30:31Z</time>
      </trkpt>
      <trkpt lat="43.53909" lon="6.64158">
        <ele>398.1231689</ele>
        <time>2010-06-26T08:30:40Z</time>
      </trkpt>
      <trkpt lat="43.53936" lon="6.64144">
        <ele>397.1617432</ele>
        <time>2010-06-26T08:30:49Z</time>
      </trkpt>
      <trkpt lat="43.53967" lon="6.64149">
        <ele>396.2005615</ele>
        <time>2010-06-26T08:30:57Z</time>
      </trkpt>
      <trkpt lat="43.53985" lon="6.64144">
        <ele>395.7198486</ele>
        <time>2010-06-26T08:31:02Z</time>
      </trkpt>
      <trkpt lat="43.53998" lon="6.6413">
        <ele>395.2391357</ele>
        <time>2010-06-26T08:31:06Z</time>
      </trkpt>
      <trkpt lat="43.54016" lon="6.6412">
        <ele>394.2779541</ele>
        <time>2010-06-26T08:31:10Z</time>
      </trkpt>
      <trkpt lat="43.54025" lon="6.64115">
        <ele>394.7585449</ele>
        <time>2010-06-26T08:31:12Z</time>
      </trkpt>
      <trkpt lat="43.5404" lon="6.64097">
        <ele>394.7585449</ele>
        <time>2010-06-26T08:31:16Z</time>
      </trkpt>
      <trkpt lat="43.54061" lon="6.64074">
        <ele>395.7198486</ele>
        <time>2010-06-26T08:31:22Z</time>
      </trkpt>
      <trkpt lat="43.54093" lon="6.64056">
        <ele>394.7585449</ele>
        <time>2010-06-26T08:31:30Z</time>
      </trkpt>
      <trkpt lat="43.54107" lon="6.64052">
        <ele>394.2779541</ele>
        <time>2010-06-26T08:31:33Z</time>
      </trkpt>
      <trkpt lat="43.54122" lon="6.6404">
        <ele>393.7972412</ele>
        <time>2010-06-26T08:31:37Z</time>
      </trkpt>
      <trkpt lat="43.54136" lon="6.64023">
        <ele>394.2779541</ele>
        <time>2010-06-26T08:31:41Z</time>
      </trkpt>
      <trkpt lat="43.54141" lon="6.64013">
        <ele>394.2779541</ele>
        <time>2010-06-26T08:31:43Z</time>
      </trkpt>
      <trkpt lat="43.54166" lon="6.64011">
        <ele>394.2779541</ele>
        <time>2010-06-26T08:31:50Z</time>
      </trkpt>
      <trkpt lat="43.54169" lon="6.64021">
        <ele>394.7585449</ele>
        <time>2010-06-26T08:31:52Z</time>
      </trkpt>
      <trkpt lat="43.54177" lon="6.64042">
        <ele>394.2779541</ele>
        <time>2010-06-26T08:31:56Z</time>
      </trkpt>
      <trkpt lat="43.54184" lon="6.64052">
        <ele>393.3165283</ele>
        <time>2010-06-26T08:31:58Z</time>
      </trkpt>
      <trkpt lat="43.54251" lon="6.64082">
        <ele>390.4326172</ele>
        <time>2010-06-26T08:32:11Z</time>
      </trkpt>
      <trkpt lat="43.54277" lon="6.64089">
        <ele>388.5100098</ele>
        <time>2010-06-26T08:32:17Z</time>
      </trkpt>
      <trkpt lat="43.54296" lon="6.64098">
        <ele>388.0292969</ele>
        <time>2010-06-26T08:32:21Z</time>
      </trkpt>
      <trkpt lat="43.54314" lon="6.64147">
        <ele>386.1066895</ele>
        <time>2010-06-26T08:32:30Z</time>
      </trkpt>
      <trkpt lat="43.54297" lon="6.64201">
        <ele>386.1066895</ele>
        <time>2010-06-26T08:32:40Z</time>
      </trkpt>
      <trkpt lat="43.54279" lon="6.64246">
        <ele>387.548584</ele>
        <time>2010-06-26T08:32:51Z</time>
      </trkpt>
      <trkpt lat="43.54259" lon="6.64291">
        <ele>389.9519043</ele>
        <time>2010-06-26T08:33:04Z</time>
      </trkpt>
      <trkpt lat="43.54255" lon="6.64308">
        <ele>390.4326172</ele>
        <time>2010-06-26T08:33:09Z</time>
      </trkpt>
      <trkpt lat="43.54263" lon="6.64317">
        <ele>388.9906006</ele>
        <time>2010-06-26T08:33:12Z</time>
      </trkpt>
      <trkpt lat="43.54283" lon="6.64315">
        <ele>388.0292969</ele>
        <time>2010-06-26T08:33:17Z</time>
      </trkpt>
      <trkpt lat="43.54309" lon="6.64311">
        <ele>384.6647949</ele>
        <time>2010-06-26T08:33:22Z</time>
      </trkpt>
      <trkpt lat="43.54321" lon="6.64311">
        <ele>383.7032471</ele>
        <time>2010-06-26T08:33:24Z</time>
      </trkpt>
      <trkpt lat="43.54342" lon="6.64292">
        <ele>383.2226563</ele>
        <time>2010-06-26T08:33:29Z</time>
      </trkpt>
      <trkpt lat="43.54366" lon="6.64267">
        <ele>382.7420654</ele>
        <time>2010-06-26T08:33:35Z</time>
      </trkpt>
      <trkpt lat="43.54417" lon="6.64253">
        <ele>381.7806396</ele>
        <time>2010-06-26T08:33:50Z</time>
      </trkpt>
      <trkpt lat="43.54438" lon="6.64252">
        <ele>380.3387451</ele>
        <time>2010-06-26T08:33:56Z</time>
      </trkpt>
      <trkpt lat="43.5446" lon="6.64242">
        <ele>380.3387451</ele>
        <time>2010-06-26T08:34:01Z</time>
      </trkpt>
      <trkpt lat="43.54496" lon="6.64212">
        <ele>380.3387451</ele>
        <time>2010-06-26T08:34:10Z</time>
      </trkpt>
      <trkpt lat="43.54529" lon="6.64149">
        <ele>380.819458</ele>
        <time>2010-06-26T08:34:25Z</time>
      </trkpt>
      <trkpt lat="43.54552" lon="6.64103">
        <ele>381.3000488</ele>
        <time>2010-06-26T08:34:36Z</time>
      </trkpt>
      <trkpt lat="43.54564" lon="6.64121">
        <ele>381.3000488</ele>
        <time>2010-06-26T08:34:42Z</time>
      </trkpt>
      <trkpt lat="43.54563" lon="6.64159">
        <ele>381.3000488</ele>
        <time>2010-06-26T08:34:49Z</time>
      </trkpt>
      <trkpt lat="43.5457" lon="6.64197">
        <ele>380.819458</ele>
        <time>2010-06-26T08:34:56Z</time>
      </trkpt>
      <trkpt lat="43.54598" lon="6.64247">
        <ele>380.819458</ele>
        <time>2010-06-26T08:35:06Z</time>
      </trkpt>
      <trkpt lat="43.54606" lon="6.64272">
        <ele>379.8580322</ele>
        <time>2010-06-26T08:35:10Z</time>
      </trkpt>
      <trkpt lat="43.5461" lon="6.64284">
        <ele>380.3387451</ele>
        <time>2010-06-26T08:35:12Z</time>
      </trkpt>
      <trkpt lat="43.54635" lon="6.64292">
        <ele>378.8968506</ele>
        <time>2010-06-26T08:35:18Z</time>
      </trkpt>
      <trkpt lat="43.54652" lon="6.64279">
        <ele>377.9354248</ele>
        <time>2010-06-26T08:35:22Z</time>
      </trkpt>
      <trkpt lat="43.54675" lon="6.64235">
        <ele>377.454834</ele>
        <time>2010-06-26T08:35:30Z</time>
      </trkpt>
      <trkpt lat="43.54694" lon="6.64235">
        <ele>375.0515137</ele>
        <time>2010-06-26T08:35:36Z</time>
      </trkpt>
      <trkpt lat="43.54703" lon="6.64251">
        <ele>374.0900879</ele>
        <time>2010-06-26T08:35:40Z</time>
      </trkpt>
      <trkpt lat="43.54721" lon="6.64265">
        <ele>371.2062988</ele>
        <time>2010-06-26T08:35:45Z</time>
      </trkpt>
      <trkpt lat="43.54729" lon="6.64262">
        <ele>370.244873</ele>
        <time>2010-06-26T08:35:47Z</time>
      </trkpt>
      <trkpt lat="43.54737" lon="6.64259">
        <ele>370.244873</ele>
        <time>2010-06-26T08:35:49Z</time>
      </trkpt>
      <trkpt lat="43.54746" lon="6.64257">
        <ele>368.3222656</ele>
        <time>2010-06-26T08:35:51Z</time>
      </trkpt>
      <trkpt lat="43.54755" lon="6.64254">
        <ele>366.880249</ele>
        <time>2010-06-26T08:35:53Z</time>
      </trkpt>
      <trkpt lat="43.54782" lon="6.64253">
        <ele>364.4769287</ele>
        <time>2010-06-26T08:36:00Z</time>
      </trkpt>
      <trkpt lat="43.54823" lon="6.64263">
        <ele>361.5931396</ele>
        <time>2010-06-26T08:36:11Z</time>
      </trkpt>
      <trkpt lat="43.54847" lon="6.6425">
        <ele>358.2283936</ele>
        <time>2010-06-26T08:36:17Z</time>
      </trkpt>
      <trkpt lat="43.54852" lon="6.6424">
        <ele>356.786377</ele>
        <time>2010-06-26T08:36:19Z</time>
      </trkpt>
      <trkpt lat="43.54886" lon="6.64219">
        <ele>354.8637695</ele>
        <time>2010-06-26T08:36:26Z</time>
      </trkpt>
      <trkpt lat="43.54948" lon="6.64215">
        <ele>352.4605713</ele>
        <time>2010-06-26T08:36:36Z</time>
      </trkpt>
      <trkpt lat="43.54964" lon="6.64211">
        <ele>351.0184326</ele>
        <time>2010-06-26T08:36:39Z</time>
      </trkpt>
      <trkpt lat="43.54968" lon="6.64208">
        <ele>349.5765381</ele>
        <time>2010-06-26T08:36:40Z</time>
      </trkpt>
      <trkpt lat="43.54982" lon="6.642">
        <ele>349.0958252</ele>
        <time>2010-06-26T08:36:43Z</time>
      </trkpt>
      <trkpt lat="43.54996" lon="6.64187">
        <ele>347.1732178</ele>
        <time>2010-06-26T08:36:46Z</time>
      </trkpt>
      <trkpt lat="43.5502" lon="6.64174">
        <ele>343.8085938</ele>
        <time>2010-06-26T08:36:51Z</time>
      </trkpt>
      <trkpt lat="43.55036" lon="6.64179">
        <ele>342.84729</ele>
        <time>2010-06-26T08:36:54Z</time>
      </trkpt>
      <trkpt lat="43.55059" lon="6.64185">
        <ele>340.4440918</ele>
        <time>2010-06-26T08:36:58Z</time>
      </trkpt>
      <trkpt lat="43.55078" lon="6.64191">
        <ele>339.482666</ele>
        <time>2010-06-26T08:37:01Z</time>
      </trkpt>
      <trkpt lat="43.55103" lon="6.64203">
        <ele>335.1567383</ele>
        <time>2010-06-26T08:37:06Z</time>
      </trkpt>
      <trkpt lat="43.55121" lon="6.64218">
        <ele>333.7147217</ele>
        <time>2010-06-26T08:37:10Z</time>
      </trkpt>
      <trkpt lat="43.5515" lon="6.64256">
        <ele>329.388916</ele>
        <time>2010-06-26T08:37:19Z</time>
      </trkpt>
      <trkpt lat="43.55154" lon="6.64262">
        <ele>329.8695068</ele>
        <time>2010-06-26T08:37:20Z</time>
      </trkpt>
      <trkpt lat="43.55162" lon="6.64273">
        <ele>327.9467773</ele>
        <time>2010-06-26T08:37:22Z</time>
      </trkpt>
      <trkpt lat="43.55176" lon="6.64292">
        <ele>326.5048828</ele>
        <time>2010-06-26T08:37:25Z</time>
      </trkpt>
      <trkpt lat="43.55195" lon="6.6433">
        <ele>326.0241699</ele>
        <time>2010-06-26T08:37:33Z</time>
      </trkpt>
      <trkpt lat="43.55189" lon="6.64344">
        <ele>326.0241699</ele>
        <time>2010-06-26T08:37:37Z</time>
      </trkpt>
      <trkpt lat="43.5518" lon="6.64354">
        <ele>326.5048828</ele>
        <time>2010-06-26T08:37:40Z</time>
      </trkpt>
      <trkpt lat="43.55171" lon="6.64391">
        <ele>324.5822754</ele>
        <time>2010-06-26T08:37:46Z</time>
      </trkpt>
      <trkpt lat="43.55167" lon="6.6442">
        <ele>324.1015625</ele>
        <time>2010-06-26T08:37:50Z</time>
      </trkpt>
      <trkpt lat="43.55164" lon="6.64435">
        <ele>322.659668</ele>
        <time>2010-06-26T08:37:52Z</time>
      </trkpt>
      <trkpt lat="43.55142" lon="6.64487">
        <ele>320.2563477</ele>
        <time>2010-06-26T08:37:59Z</time>
      </trkpt>
      <trkpt lat="43.55124" lon="6.64531">
        <ele>319.2950439</ele>
        <time>2010-06-26T08:38:05Z</time>
      </trkpt>
      <trkpt lat="43.55124" lon="6.64556">
        <ele>317.8530273</ele>
        <time>2010-06-26T08:38:08Z</time>
      </trkpt>
      <trkpt lat="43.55142" lon="6.64598">
        <ele>315.9304199</ele>
        <time>2010-06-26T08:38:13Z</time>
      </trkpt>
      <trkpt lat="43.55164" lon="6.64613">
        <ele>314.0078125</ele>
        <time>2010-06-26T08:38:16Z</time>
      </trkpt>
      <trkpt lat="43.55191" lon="6.6465">
        <ele>311.6044922</ele>
        <time>2010-06-26T08:38:23Z</time>
      </trkpt>
      <trkpt lat="43.5519" lon="6.64657">
        <ele>311.6044922</ele>
        <time>2010-06-26T08:38:24Z</time>
      </trkpt>
      <trkpt lat="43.55183" lon="6.64689">
        <ele>310.1624756</ele>
        <time>2010-06-26T08:38:28Z</time>
      </trkpt>
      <trkpt lat="43.55175" lon="6.6471">
        <ele>308.2398682</ele>
        <time>2010-06-26T08:38:31Z</time>
      </trkpt>
      <trkpt lat="43.55168" lon="6.64721">
        <ele>306.7978516</ele>
        <time>2010-06-26T08:38:33Z</time>
      </trkpt>
      <trkpt lat="43.55147" lon="6.64767">
        <ele>305.355957</ele>
        <time>2010-06-26T08:38:40Z</time>
      </trkpt>
      <trkpt lat="43.55132" lon="6.64797">
        <ele>300.5493164</ele>
        <time>2010-06-26T08:38:44Z</time>
      </trkpt>
      <trkpt lat="43.55127" lon="6.64807">
        <ele>300.0687256</ele>
        <time>2010-06-26T08:38:46Z</time>
      </trkpt>
      <trkpt lat="43.5511" lon="6.64823">
        <ele>298.626709</ele>
        <time>2010-06-26T08:38:50Z</time>
      </trkpt>
      <trkpt lat="43.55107" lon="6.64849">
        <ele>298.626709</ele>
        <time>2010-06-26T08:38:55Z</time>
      </trkpt>
      <trkpt lat="43.5512" lon="6.64861">
        <ele>299.1072998</ele>
        <time>2010-06-26T08:39:03Z</time>
      </trkpt>
      <trkpt lat="43.55119" lon="6.64861">
        <ele>298.626709</ele>
        <time>2010-06-26T08:39:15Z</time>
      </trkpt>
      <trkpt lat="43.55125" lon="6.64871">
        <ele>298.626709</ele>
        <time>2010-06-26T08:39:20Z</time>
      </trkpt>
      <trkpt lat="43.55136" lon="6.64888">
        <ele>297.1846924</ele>
        <time>2010-06-26T08:39:24Z</time>
      </trkpt>
      <trkpt lat="43.55154" lon="6.64903">
        <ele>296.7041016</ele>
        <time>2010-06-26T08:39:29Z</time>
      </trkpt>
      <trkpt lat="43.55162" lon="6.64906">
        <ele>297.1846924</ele>
        <time>2010-06-26T08:39:31Z</time>
      </trkpt>
      <trkpt lat="43.55186" lon="6.64901">
        <ele>296.7041016</ele>
        <time>2010-06-26T08:39:37Z</time>
      </trkpt>
      <trkpt lat="43.55224" lon="6.64886">
        <ele>298.1461182</ele>
        <time>2010-06-26T08:39:50Z</time>
      </trkpt>
      <trkpt lat="43.55252" lon="6.64876">
        <ele>301.5106201</ele>
        <time>2010-06-26T08:40:02Z</time>
      </trkpt>
      <trkpt lat="43.55256" lon="6.64875">
        <ele>301.991333</ele>
        <time>2010-06-26T08:40:04Z</time>
      </trkpt>
      <trkpt lat="43.55277" lon="6.6489">
        <ele>303.9139404</ele>
        <time>2010-06-26T08:40:17Z</time>
      </trkpt>
      <trkpt lat="43.55293" lon="6.64938">
        <ele>303.4332275</ele>
        <time>2010-06-26T08:40:32Z</time>
      </trkpt>
      <trkpt lat="43.55314" lon="6.64978">
        <ele>304.8752441</ele>
        <time>2010-06-26T08:40:45Z</time>
      </trkpt>
      <trkpt lat="43.55333" lon="6.65018">
        <ele>307.7592773</ele>
        <time>2010-06-26T08:41:01Z</time>
      </trkpt>
      <trkpt lat="43.55351" lon="6.65055">
        <ele>310.6430664</ele>
        <time>2010-06-26T08:41:18Z</time>
      </trkpt>
      <trkpt lat="43.55358" lon="6.65061">
        <ele>310.6430664</ele>
        <time>2010-06-26T08:41:29Z</time>
      </trkpt>
      <trkpt lat="43.55357" lon="6.65061">
        <ele>307.2785645</ele>
        <time>2010-06-26T08:41:40Z</time>
      </trkpt>
      <trkpt lat="43.55357" lon="6.65061">
        <ele>307.2785645</ele>
        <time>2010-06-26T08:41:41Z</time>
      </trkpt>
      <trkpt lat="43.55357" lon="6.65061">
        <ele>310.1624756</ele>
        <time>2010-06-26T08:41:42Z</time>
      </trkpt>
      <trkpt lat="43.55357" lon="6.65061">
        <ele>309.2011719</ele>
        <time>2010-06-26T08:41:43Z</time>
      </trkpt>
      <trkpt lat="43.55357" lon="6.65062">
        <ele>309.6818848</ele>
        <time>2010-06-26T08:41:50Z</time>
      </trkpt>
      <trkpt lat="43.55371" lon="6.65086">
        <ele>308.720459</ele>
        <time>2010-06-26T08:42:03Z</time>
      </trkpt>
      <trkpt lat="43.55375" lon="6.65089">
        <ele>308.720459</ele>
        <time>2010-06-26T08:42:16Z</time>
      </trkpt>
      <trkpt lat="43.5538" lon="6.65094">
        <ele>307.7592773</ele>
        <time>2010-06-26T08:42:20Z</time>
      </trkpt>
      <trkpt lat="43.554" lon="6.65108">
        <ele>303.9139404</ele>
        <time>2010-06-26T08:42:26Z</time>
      </trkpt>
      <trkpt lat="43.55414" lon="6.65116">
        <ele>300.0687256</ele>
        <time>2010-06-26T08:42:29Z</time>
      </trkpt>
      <trkpt lat="43.55419" lon="6.65119">
        <ele>298.626709</ele>
        <time>2010-06-26T08:42:30Z</time>
      </trkpt>
      <trkpt lat="43.55435" lon="6.65131">
        <ele>296.2235107</ele>
        <time>2010-06-26T08:42:33Z</time>
      </trkpt>
      <trkpt lat="43.55468" lon="6.65153">
        <ele>297.1846924</ele>
        <time>2010-06-26T08:42:40Z</time>
      </trkpt>
      <trkpt lat="43.55474" lon="6.65158">
        <ele>299.1072998</ele>
        <time>2010-06-26T08:42:43Z</time>
      </trkpt>
      <trkpt lat="43.55478" lon="6.65161">
        <ele>300.0687256</ele>
        <time>2010-06-26T08:42:45Z</time>
      </trkpt>
      <trkpt lat="43.55489" lon="6.65168">
        <ele>302.4719238</ele>
        <time>2010-06-26T08:42:51Z</time>
      </trkpt>
      <trkpt lat="43.55514" lon="6.65182">
        <ele>304.3946533</ele>
        <time>2010-06-26T08:43:04Z</time>
      </trkpt>
      <trkpt lat="43.5552" lon="6.65187">
        <ele>304.8752441</ele>
        <time>2010-06-26T08:43:16Z</time>
      </trkpt>
      <trkpt lat="43.55521" lon="6.65188">
        <ele>303.4332275</ele>
        <time>2010-06-26T08:43:17Z</time>
      </trkpt>
      <trkpt lat="43.55529" lon="6.65204">
        <ele>299.5880127</ele>
        <time>2010-06-26T08:43:23Z</time>
      </trkpt>
      <trkpt lat="43.55531" lon="6.65206">
        <ele>299.1072998</ele>
        <time>2010-06-26T08:43:24Z</time>
      </trkpt>
      <trkpt lat="43.55538" lon="6.65215">
        <ele>295.7426758</ele>
        <time>2010-06-26T08:43:28Z</time>
      </trkpt>
      <trkpt lat="43.55556" lon="6.65236">
        <ele>296.7041016</ele>
        <time>2010-06-26T08:43:39Z</time>
      </trkpt>
      <trkpt lat="43.55573" lon="6.65259">
        <ele>300.0687256</ele>
        <time>2010-06-26T08:43:53Z</time>
      </trkpt>
      <trkpt lat="43.55573" lon="6.6526">
        <ele>300.0687256</ele>
        <time>2010-06-26T08:43:54Z</time>
      </trkpt>
      <trkpt lat="43.55577" lon="6.65267">
        <ele>301.5106201</ele>
        <time>2010-06-26T08:44:10Z</time>
      </trkpt>
      <trkpt lat="43.55582" lon="6.65274">
        <ele>300.5493164</ele>
        <time>2010-06-26T08:44:19Z</time>
      </trkpt>
      <trkpt lat="43.55592" lon="6.65316">
        <ele>299.5880127</ele>
        <time>2010-06-26T08:44:33Z</time>
      </trkpt>
      <trkpt lat="43.556" lon="6.6534">
        <ele>295.7426758</ele>
        <time>2010-06-26T08:44:38Z</time>
      </trkpt>
      <trkpt lat="43.55602" lon="6.65347">
        <ele>295.2619629</ele>
        <time>2010-06-26T08:44:39Z</time>
      </trkpt>
      <trkpt lat="43.55619" lon="6.65389">
        <ele>293.3393555</ele>
        <time>2010-06-26T08:44:46Z</time>
      </trkpt>
      <trkpt lat="43.55632" lon="6.65403">
        <ele>290.4555664</ele>
        <time>2010-06-26T08:44:51Z</time>
      </trkpt>
      <trkpt lat="43.55638" lon="6.65408">
        <ele>289.0135498</ele>
        <time>2010-06-26T08:44:54Z</time>
      </trkpt>
      <trkpt lat="43.5564" lon="6.6541">
        <ele>288.532959</ele>
        <time>2010-06-26T08:44:55Z</time>
      </trkpt>
      <trkpt lat="43.55645" lon="6.65413">
        <ele>287.5714111</ele>
        <time>2010-06-26T08:44:57Z</time>
      </trkpt>
      <trkpt lat="43.5565" lon="6.65417">
        <ele>287.0908203</ele>
        <time>2010-06-26T08:44:59Z</time>
      </trkpt>
      <trkpt lat="43.55665" lon="6.65434">
        <ele>284.6876221</ele>
        <time>2010-06-26T08:45:06Z</time>
      </trkpt>
      <trkpt lat="43.55688" lon="6.65454">
        <ele>281.322998</ele>
        <time>2010-06-26T08:45:15Z</time>
      </trkpt>
      <trkpt lat="43.55698" lon="6.6546">
        <ele>280.3616943</ele>
        <time>2010-06-26T08:45:18Z</time>
      </trkpt>
      <trkpt lat="43.55714" lon="6.65469">
        <ele>276.9970703</ele>
        <time>2010-06-26T08:45:26Z</time>
      </trkpt>
      <trkpt lat="43.55723" lon="6.65476">
        <ele>274.1130371</ele>
        <time>2010-06-26T08:45:30Z</time>
      </trkpt>
      <trkpt lat="43.55725" lon="6.65478">
        <ele>274.1130371</ele>
        <time>2010-06-26T08:45:31Z</time>
      </trkpt>
      <trkpt lat="43.55737" lon="6.65483">
        <ele>271.7097168</ele>
        <time>2010-06-26T08:45:36Z</time>
      </trkpt>
      <trkpt lat="43.5576" lon="6.65489">
        <ele>266.9031982</ele>
        <time>2010-06-26T08:45:44Z</time>
      </trkpt>
      <trkpt lat="43.55777" lon="6.65497">
        <ele>264.0192871</ele>
        <time>2010-06-26T08:45:49Z</time>
      </trkpt>
      <trkpt lat="43.55794" lon="6.65504">
        <ele>261.6159668</ele>
        <time>2010-06-26T08:45:53Z</time>
      </trkpt>
      <trkpt lat="43.55804" lon="6.65506">
        <ele>260.1739502</ele>
        <time>2010-06-26T08:45:55Z</time>
      </trkpt>
      <trkpt lat="43.55822" lon="6.65509">
        <ele>258.7319336</ele>
        <time>2010-06-26T08:45:58Z</time>
      </trkpt>
      <trkpt lat="43.55845" lon="6.65512">
        <ele>256.8093262</ele>
        <time>2010-06-26T08:46:02Z</time>
      </trkpt>
      <trkpt lat="43.55858" lon="6.65514">
        <ele>256.3287354</ele>
        <time>2010-06-26T08:46:04Z</time>
      </trkpt>
      <trkpt lat="43.55885" lon="6.65522">
        <ele>256.3287354</ele>
        <time>2010-06-26T08:46:12Z</time>
      </trkpt>
      <trkpt lat="43.55889" lon="6.65523">
        <ele>256.3287354</ele>
        <time>2010-06-26T08:46:33Z</time>
      </trkpt>
      <trkpt lat="43.55881" lon="6.65525">
        <ele>255.8480225</ele>
        <time>2010-06-26T08:47:32Z</time>
      </trkpt>
      <trkpt lat="43.55876" lon="6.65522">
        <ele>256.3287354</ele>
        <time>2010-06-26T08:48:49Z</time>
      </trkpt>
      <trkpt lat="43.55885" lon="6.65527">
        <ele>257.2900391</ele>
        <time>2010-06-26T08:49:23Z</time>
      </trkpt>
      <trkpt lat="43.55887" lon="6.65529">
        <ele>257.770752</ele>
        <time>2010-06-26T08:49:55Z</time>
      </trkpt>
      <trkpt lat="43.55889" lon="6.65527">
        <ele>257.2900391</ele>
        <time>2010-06-26T08:50:02Z</time>
      </trkpt>
      <trkpt lat="43.55897" lon="6.65529">
        <ele>257.2900391</ele>
        <time>2010-06-26T08:50:07Z</time>
      </trkpt>
      <trkpt lat="43.55923" lon="6.65527">
        <ele>253.4447021</ele>
        <time>2010-06-26T08:50:16Z</time>
      </trkpt>
      <trkpt lat="43.55928" lon="6.65526">
        <ele>252.4833984</ele>
        <time>2010-06-26T08:50:18Z</time>
      </trkpt>
      <trkpt lat="43.55935" lon="6.65529">
        <ele>251.0413818</ele>
        <time>2010-06-26T08:50:21Z</time>
      </trkpt>
      <trkpt lat="43.55953" lon="6.65534">
        <ele>248.1575928</ele>
        <time>2010-06-26T08:50:27Z</time>
      </trkpt>
      <trkpt lat="43.55963" lon="6.65538">
        <ele>244.7928467</ele>
        <time>2010-06-26T08:50:31Z</time>
      </trkpt>
      <trkpt lat="43.55971" lon="6.65542">
        <ele>241.4282227</ele>
        <time>2010-06-26T08:50:34Z</time>
      </trkpt>
      <trkpt lat="43.55992" lon="6.65548">
        <ele>238.0635986</ele>
        <time>2010-06-26T08:50:40Z</time>
      </trkpt>
      <trkpt lat="43.56005" lon="6.65551">
        <ele>235.1796875</ele>
        <time>2010-06-26T08:50:43Z</time>
      </trkpt>
      <trkpt lat="43.56012" lon="6.65554">
        <ele>232.7764893</ele>
        <time>2010-06-26T08:50:45Z</time>
      </trkpt>
      <trkpt lat="43.56023" lon="6.65558">
        <ele>231.8149414</ele>
        <time>2010-06-26T08:50:47Z</time>
      </trkpt>
      <trkpt lat="43.56043" lon="6.65564">
        <ele>227.9697266</ele>
        <time>2010-06-26T08:50:52Z</time>
      </trkpt>
      <trkpt lat="43.56053" lon="6.65567">
        <ele>226.0471191</ele>
        <time>2010-06-26T08:50:54Z</time>
      </trkpt>
      <trkpt lat="43.56083" lon="6.65576">
        <ele>224.1245117</ele>
        <time>2010-06-26T08:51:03Z</time>
      </trkpt>
      <trkpt lat="43.56093" lon="6.65582">
        <ele>222.6824951</ele>
        <time>2010-06-26T08:51:07Z</time>
      </trkpt>
      <trkpt lat="43.56102" lon="6.65584">
        <ele>219.798584</ele>
        <time>2010-06-26T08:51:11Z</time>
      </trkpt>
      <trkpt lat="43.56115" lon="6.65589">
        <ele>215.9532471</ele>
        <time>2010-06-26T08:51:16Z</time>
      </trkpt>
      <trkpt lat="43.56115" lon="6.65592">
        <ele>215.4726563</ele>
        <time>2010-06-26T08:51:18Z</time>
      </trkpt>
      <trkpt lat="43.56119" lon="6.6559">
        <ele>213.0693359</ele>
        <time>2010-06-26T08:51:22Z</time>
      </trkpt>
      <trkpt lat="43.56121" lon="6.65588">
        <ele>210.1854248</ele>
        <time>2010-06-26T08:51:25Z</time>
      </trkpt>
      <trkpt lat="43.56135" lon="6.65589">
        <ele>208.7434082</ele>
        <time>2010-06-26T08:51:29Z</time>
      </trkpt>
      <trkpt lat="43.56146" lon="6.65578">
        <ele>207.3013916</ele>
        <time>2010-06-26T08:51:33Z</time>
      </trkpt>
      <trkpt lat="43.56169" lon="6.65574">
        <ele>205.8594971</ele>
        <time>2010-06-26T08:51:38Z</time>
      </trkpt>
      <trkpt lat="43.5618" lon="6.65574">
        <ele>204.4174805</ele>
        <time>2010-06-26T08:51:40Z</time>
      </trkpt>
      <trkpt lat="43.56211" lon="6.65574">
        <ele>201.0528564</ele>
        <time>2010-06-26T08:51:45Z</time>
      </trkpt>
      <trkpt lat="43.56273" lon="6.65579">
        <ele>200.0916748</ele>
        <time>2010-06-26T08:51:55Z</time>
      </trkpt>
      <trkpt lat="43.56326" lon="6.65586">
        <ele>200.5722656</ele>
        <time>2010-06-26T08:52:09Z</time>
      </trkpt>
      <trkpt lat="43.56344" lon="6.6559">
        <ele>200.0916748</ele>
        <time>2010-06-26T08:52:20Z</time>
      </trkpt>
      <trkpt lat="43.56348" lon="6.65594">
        <ele>200.5722656</ele>
        <time>2010-06-26T08:52:24Z</time>
      </trkpt>
      <trkpt lat="43.5636" lon="6.65598">
        <ele>200.5722656</ele>
        <time>2010-06-26T08:52:35Z</time>
      </trkpt>
      <trkpt lat="43.5636" lon="6.65593">
        <ele>200.0916748</ele>
        <time>2010-06-26T08:52:40Z</time>
      </trkpt>
      <trkpt lat="43.5635" lon="6.6559">
        <ele>200.5722656</ele>
        <time>2010-06-26T08:52:56Z</time>
      </trkpt>
      <trkpt lat="43.56345" lon="6.65588">
        <ele>200.0916748</ele>
        <time>2010-06-26T08:53:14Z</time>
      </trkpt>
      <trkpt lat="43.56344" lon="6.6559">
        <ele>200.0916748</ele>
        <time>2010-06-26T08:53:56Z</time>
      </trkpt>
      <trkpt lat="43.56351" lon="6.65588">
        <ele>199.6108398</ele>
        <time>2010-06-26T08:54:34Z</time>
      </trkpt>
      <trkpt lat="43.56359" lon="6.65588">
        <ele>200.0916748</ele>
        <time>2010-06-26T08:55:14Z</time>
      </trkpt>
      <trkpt lat="43.56351" lon="6.65586">
        <ele>199.6108398</ele>
        <time>2010-06-26T08:56:32Z</time>
      </trkpt>
      <trkpt lat="43.56356" lon="6.6559">
        <ele>199.6108398</ele>
        <time>2010-06-26T08:57:05Z</time>
      </trkpt>
      <trkpt lat="43.56346" lon="6.65591">
        <ele>200.0916748</ele>
        <time>2010-06-26T08:58:46Z</time>
      </trkpt>
      <trkpt lat="43.56346" lon="6.65591">
        <ele>195.765625</ele>
        <time>2010-06-26T08:58:52Z</time>
      </trkpt>
      <trkpt lat="43.56346" lon="6.65591">
        <ele>201.5335693</ele>
        <time>2010-06-26T08:58:54Z</time>
      </trkpt>
      <trkpt lat="43.56346" lon="6.65591">
        <ele>196.7269287</ele>
        <time>2010-06-26T08:58:55Z</time>
      </trkpt>
      <trkpt lat="43.56346" lon="6.65591">
        <ele>200.0916748</ele>
        <time>2010-06-26T08:58:57Z</time>
      </trkpt>
      <trkpt lat="43.56347" lon="6.65591">
        <ele>198.6495361</ele>
        <time>2010-06-26T08:59:35Z</time>
      </trkpt>
      <trkpt lat="43.56347" lon="6.65592">
        <ele>198.1689453</ele>
        <time>2010-06-26T08:59:52Z</time>
      </trkpt>
      <trkpt lat="43.56349" lon="6.65592">
        <ele>197.6882324</ele>
        <time>2010-06-26T09:00:16Z</time>
      </trkpt>
      <trkpt lat="43.56351" lon="6.65589">
        <ele>196.7269287</ele>
        <time>2010-06-26T09:03:14Z</time>
      </trkpt>
      <trkpt lat="43.56353" lon="6.65595">
        <ele>196.2463379</ele>
        <time>2010-06-26T09:05:56Z</time>
      </trkpt>
      <trkpt lat="43.56361" lon="6.65586">
        <ele>195.2849121</ele>
        <time>2010-06-26T09:07:22Z</time>
      </trkpt>
      <trkpt lat="43.56366" lon="6.65586">
        <ele>193.8430176</ele>
        <time>2010-06-26T09:08:23Z</time>
      </trkpt>
      <trkpt lat="43.56356" lon="6.65595">
        <ele>195.2849121</ele>
        <time>2010-06-26T09:08:58Z</time>
      </trkpt>
      <trkpt lat="43.56356" lon="6.65595">
        <ele>194.8043213</ele>
        <time>2010-06-26T09:09:02Z</time>
      </trkpt>
      <trkpt lat="43.56356" lon="6.65608">
        <ele>195.2849121</ele>
        <time>2010-06-26T09:09:11Z</time>
      </trkpt>
      <trkpt lat="43.5635" lon="6.6562">
        <ele>197.6882324</ele>
        <time>2010-06-26T09:09:19Z</time>
      </trkpt>
      <trkpt lat="43.56347" lon="6.65635">
        <ele>197.6882324</ele>
        <time>2010-06-26T09:09:34Z</time>
      </trkpt>
      <trkpt lat="43.56344" lon="6.65632">
        <ele>197.2075195</ele>
        <time>2010-06-26T09:09:56Z</time>
      </trkpt>
      <trkpt lat="43.56343" lon="6.65631">
        <ele>197.6882324</ele>
        <time>2010-06-26T09:12:37Z</time>
      </trkpt>
      <trkpt lat="43.56338" lon="6.65635">
        <ele>197.2075195</ele>
        <time>2010-06-26T09:12:45Z</time>
      </trkpt>
      <trkpt lat="43.56321" lon="6.65654">
        <ele>201.0528564</ele>
        <time>2010-06-26T09:13:01Z</time>
      </trkpt>
      <trkpt lat="43.56316" lon="6.6566">
        <ele>201.5335693</ele>
        <time>2010-06-26T09:13:06Z</time>
      </trkpt>
      <trkpt lat="43.56304" lon="6.65666">
        <ele>202.9754639</ele>
        <time>2010-06-26T09:13:17Z</time>
      </trkpt>
      <trkpt lat="43.56293" lon="6.65675">
        <ele>205.3787842</ele>
        <time>2010-06-26T09:13:33Z</time>
      </trkpt>
      <trkpt lat="43.56282" lon="6.65683">
        <ele>207.3013916</ele>
        <time>2010-06-26T09:13:45Z</time>
      </trkpt>
      <trkpt lat="43.56265" lon="6.65696">
        <ele>209.704834</ele>
        <time>2010-06-26T09:14:02Z</time>
      </trkpt>
      <trkpt lat="43.56256" lon="6.65701">
        <ele>210.1854248</ele>
        <time>2010-06-26T09:14:15Z</time>
      </trkpt>
      <trkpt lat="43.56245" lon="6.65711">
        <ele>212.1080322</ele>
        <time>2010-06-26T09:14:30Z</time>
      </trkpt>
      <trkpt lat="43.56247" lon="6.65725">
        <ele>214.9919434</ele>
        <time>2010-06-26T09:14:42Z</time>
      </trkpt>
      <trkpt lat="43.5625" lon="6.6575">
        <ele>218.3565674</ele>
        <time>2010-06-26T09:15:01Z</time>
      </trkpt>
      <trkpt lat="43.56247" lon="6.65766">
        <ele>221.2406006</ele>
        <time>2010-06-26T09:15:15Z</time>
      </trkpt>
      <trkpt lat="43.56235" lon="6.65782">
        <ele>222.6824951</ele>
        <time>2010-06-26T09:15:32Z</time>
      </trkpt>
      <trkpt lat="43.56222" lon="6.65791">
        <ele>225.0859375</ele>
        <time>2010-06-26T09:15:49Z</time>
      </trkpt>
      <trkpt lat="43.56203" lon="6.65802">
        <ele>227.4891357</ele>
        <time>2010-06-26T09:16:08Z</time>
      </trkpt>
      <trkpt lat="43.56187" lon="6.65806">
        <ele>229.4117432</ele>
        <time>2010-06-26T09:16:25Z</time>
      </trkpt>
      <trkpt lat="43.5617" lon="6.65806">
        <ele>231.3343506</ele>
        <time>2010-06-26T09:16:43Z</time>
      </trkpt>
      <trkpt lat="43.56154" lon="6.65806">
        <ele>233.2570801</ele>
        <time>2010-06-26T09:16:58Z</time>
      </trkpt>
      <trkpt lat="43.56151" lon="6.65806">
        <ele>233.7376709</ele>
        <time>2010-06-26T09:17:01Z</time>
      </trkpt>
      <trkpt lat="43.5613" lon="6.65807">
        <ele>236.1409912</ele>
        <time>2010-06-26T09:17:22Z</time>
      </trkpt>
      <trkpt lat="43.56111" lon="6.65799">
        <ele>239.0249023</ele>
        <time>2010-06-26T09:17:42Z</time>
      </trkpt>
      <trkpt lat="43.56093" lon="6.65794">
        <ele>241.9089355</ele>
        <time>2010-06-26T09:18:02Z</time>
      </trkpt>
      <trkpt lat="43.56091" lon="6.65796">
        <ele>239.0249023</ele>
        <time>2010-06-26T09:18:05Z</time>
      </trkpt>
      <trkpt lat="43.5609" lon="6.65797">
        <ele>242.3896484</ele>
        <time>2010-06-26T09:18:07Z</time>
      </trkpt>
      <trkpt lat="43.56088" lon="6.65801">
        <ele>245.7541504</ele>
        <time>2010-06-26T09:18:11Z</time>
      </trkpt>
      <trkpt lat="43.56087" lon="6.65802">
        <ele>239.5054932</ele>
        <time>2010-06-26T09:18:12Z</time>
      </trkpt>
      <trkpt lat="43.56087" lon="6.65803">
        <ele>243.831543</ele>
        <time>2010-06-26T09:18:13Z</time>
      </trkpt>
      <trkpt lat="43.56085" lon="6.65806">
        <ele>240.9476318</ele>
        <time>2010-06-26T09:18:17Z</time>
      </trkpt>
      <trkpt lat="43.56085" lon="6.65807">
        <ele>243.831543</ele>
        <time>2010-06-26T09:18:18Z</time>
      </trkpt>
      <trkpt lat="43.56079" lon="6.65819">
        <ele>243.831543</ele>
        <time>2010-06-26T09:18:31Z</time>
      </trkpt>
      <trkpt lat="43.56071" lon="6.65832">
        <ele>247.1960449</ele>
        <time>2010-06-26T09:18:43Z</time>
      </trkpt>
      <trkpt lat="43.56057" lon="6.65841">
        <ele>250.0802002</ele>
        <time>2010-06-26T09:19:01Z</time>
      </trkpt>
      <trkpt lat="43.56052" lon="6.6584">
        <ele>250.0802002</ele>
        <time>2010-06-26T09:19:07Z</time>
      </trkpt>
      <trkpt lat="43.5604" lon="6.65833">
        <ele>252.9639893</ele>
        <time>2010-06-26T09:19:19Z</time>
      </trkpt>
      <trkpt lat="43.56035" lon="6.6583">
        <ele>253.4447021</ele>
        <time>2010-06-26T09:19:24Z</time>
      </trkpt>
      <trkpt lat="43.56019" lon="6.6584">
        <ele>254.8865967</ele>
        <time>2010-06-26T09:19:42Z</time>
      </trkpt>
      <trkpt lat="43.56006" lon="6.65848">
        <ele>257.2900391</ele>
        <time>2010-06-26T09:19:58Z</time>
      </trkpt>
      <trkpt lat="43.55987" lon="6.65854">
        <ele>260.1739502</ele>
        <time>2010-06-26T09:20:20Z</time>
      </trkpt>
      <trkpt lat="43.55972" lon="6.65858">
        <ele>263.5385742</ele>
        <time>2010-06-26T09:20:39Z</time>
      </trkpt>
      <trkpt lat="43.55967" lon="6.65858">
        <ele>263.5385742</ele>
        <time>2010-06-26T09:20:47Z</time>
      </trkpt>
      <trkpt lat="43.55948" lon="6.65861">
        <ele>266.4224854</ele>
        <time>2010-06-26T09:21:05Z</time>
      </trkpt>
      <trkpt lat="43.55927" lon="6.65873">
        <ele>266.4224854</ele>
        <time>2010-06-26T09:21:25Z</time>
      </trkpt>
      <trkpt lat="43.55915" lon="6.65891">
        <ele>266.4224854</ele>
        <time>2010-06-26T09:21:46Z</time>
      </trkpt>
      <trkpt lat="43.55898" lon="6.65907">
        <ele>265.9418945</ele>
        <time>2010-06-26T09:22:02Z</time>
      </trkpt>
      <trkpt lat="43.55878" lon="6.65919">
        <ele>268.3450928</ele>
        <time>2010-06-26T09:22:15Z</time>
      </trkpt>
      <trkpt lat="43.55853" lon="6.65932">
        <ele>270.7484131</ele>
        <time>2010-06-26T09:22:32Z</time>
      </trkpt>
      <trkpt lat="43.55828" lon="6.65971">
        <ele>269.3065186</ele>
        <time>2010-06-26T09:22:48Z</time>
      </trkpt>
      <trkpt lat="43.55818" lon="6.66014">
        <ele>271.229126</ele>
        <time>2010-06-26T09:23:02Z</time>
      </trkpt>
      <trkpt lat="43.55814" lon="6.66047">
        <ele>272.6711426</ele>
        <time>2010-06-26T09:23:17Z</time>
      </trkpt>
      <trkpt lat="43.55805" lon="6.6607">
        <ele>276.0356445</ele>
        <time>2010-06-26T09:23:32Z</time>
      </trkpt>
      <trkpt lat="43.55802" lon="6.66076">
        <ele>276.5163574</ele>
        <time>2010-06-26T09:23:36Z</time>
      </trkpt>
      <trkpt lat="43.55792" lon="6.66099">
        <ele>277.958252</ele>
        <time>2010-06-26T09:23:52Z</time>
      </trkpt>
      <trkpt lat="43.55781" lon="6.66126">
        <ele>280.3616943</ele>
        <time>2010-06-26T09:24:09Z</time>
      </trkpt>
      <trkpt lat="43.55775" lon="6.66151">
        <ele>283.2456055</ele>
        <time>2010-06-26T09:24:24Z</time>
      </trkpt>
      <trkpt lat="43.55775" lon="6.66181">
        <ele>285.6488037</ele>
        <time>2010-06-26T09:24:38Z</time>
      </trkpt>
      <trkpt lat="43.55777" lon="6.66194">
        <ele>286.1295166</ele>
        <time>2010-06-26T09:24:46Z</time>
      </trkpt>
      <trkpt lat="43.55779" lon="6.66208">
        <ele>286.1295166</ele>
        <time>2010-06-26T09:24:58Z</time>
      </trkpt>
      <trkpt lat="43.55778" lon="6.66212">
        <ele>287.0908203</ele>
        <time>2010-06-26T09:25:00Z</time>
      </trkpt>
      <trkpt lat="43.55768" lon="6.66238">
        <ele>290.4555664</ele>
        <time>2010-06-26T09:25:14Z</time>
      </trkpt>
      <trkpt lat="43.55767" lon="6.6624">
        <ele>289.9748535</ele>
        <time>2010-06-26T09:25:15Z</time>
      </trkpt>
      <trkpt lat="43.55766" lon="6.66243">
        <ele>285.6488037</ele>
        <time>2010-06-26T09:25:17Z</time>
      </trkpt>
      <trkpt lat="43.55766" lon="6.66245">
        <ele>291.416748</ele>
        <time>2010-06-26T09:25:18Z</time>
      </trkpt>
      <trkpt lat="43.55765" lon="6.66246">
        <ele>288.532959</ele>
        <time>2010-06-26T09:25:19Z</time>
      </trkpt>
      <trkpt lat="43.55762" lon="6.66251">
        <ele>289.9748535</ele>
        <time>2010-06-26T09:25:22Z</time>
      </trkpt>
      <trkpt lat="43.55758" lon="6.66255">
        <ele>290.9361572</ele>
        <time>2010-06-26T09:25:26Z</time>
      </trkpt>
      <trkpt lat="43.55732" lon="6.66269">
        <ele>292.3781738</ele>
        <time>2010-06-26T09:25:44Z</time>
      </trkpt>
      <trkpt lat="43.55722" lon="6.66273">
        <ele>293.8200684</ele>
        <time>2010-06-26T09:25:52Z</time>
      </trkpt>
      <trkpt lat="43.55722" lon="6.66269">
        <ele>293.8200684</ele>
        <time>2010-06-26T09:25:55Z</time>
      </trkpt>
      <trkpt lat="43.55719" lon="6.66278">
        <ele>294.3007813</ele>
        <time>2010-06-26T09:26:05Z</time>
      </trkpt>
      <trkpt lat="43.55715" lon="6.6628">
        <ele>294.7813721</ele>
        <time>2010-06-26T09:26:10Z</time>
      </trkpt>
      <trkpt lat="43.55699" lon="6.66293">
        <ele>298.1461182</ele>
        <time>2010-06-26T09:26:24Z</time>
      </trkpt>
      <trkpt lat="43.5569" lon="6.66312">
        <ele>301.5106201</ele>
        <time>2010-06-26T09:26:38Z</time>
      </trkpt>
      <trkpt lat="43.55683" lon="6.66325">
        <ele>301.991333</ele>
        <time>2010-06-26T09:26:52Z</time>
      </trkpt>
      <trkpt lat="43.55683" lon="6.66331">
        <ele>301.991333</ele>
        <time>2010-06-26T09:27:18Z</time>
      </trkpt>
      <trkpt lat="43.55677" lon="6.6635">
        <ele>304.3946533</ele>
        <time>2010-06-26T09:27:37Z</time>
      </trkpt>
      <trkpt lat="43.55677" lon="6.66352">
        <ele>304.3946533</ele>
        <time>2010-06-26T09:27:38Z</time>
      </trkpt>
      <trkpt lat="43.5567" lon="6.66368">
        <ele>305.355957</ele>
        <time>2010-06-26T09:27:56Z</time>
      </trkpt>
      <trkpt lat="43.55668" lon="6.66368">
        <ele>307.2785645</ele>
        <time>2010-06-26T09:29:25Z</time>
      </trkpt>
      <trkpt lat="43.5566" lon="6.66377">
        <ele>306.7978516</ele>
        <time>2010-06-26T09:29:55Z</time>
      </trkpt>
      <trkpt lat="43.55638" lon="6.66395">
        <ele>305.8366699</ele>
        <time>2010-06-26T09:30:07Z</time>
      </trkpt>
      <trkpt lat="43.55628" lon="6.66401">
        <ele>303.9139404</ele>
        <time>2010-06-26T09:30:10Z</time>
      </trkpt>
      <trkpt lat="43.55615" lon="6.66407">
        <ele>300.5493164</ele>
        <time>2010-06-26T09:30:13Z</time>
      </trkpt>
      <trkpt lat="43.55611" lon="6.66409">
        <ele>301.0299072</ele>
        <time>2010-06-26T09:30:14Z</time>
      </trkpt>
      <trkpt lat="43.55598" lon="6.66415">
        <ele>298.626709</ele>
        <time>2010-06-26T09:30:17Z</time>
      </trkpt>
      <trkpt lat="43.5557" lon="6.66465">
        <ele>295.7426758</ele>
        <time>2010-06-26T09:30:26Z</time>
      </trkpt>
      <trkpt lat="43.5557" lon="6.66482">
        <ele>294.3007813</ele>
        <time>2010-06-26T09:30:28Z</time>
      </trkpt>
      <trkpt lat="43.55564" lon="6.66509">
        <ele>292.3781738</ele>
        <time>2010-06-26T09:30:31Z</time>
      </trkpt>
      <trkpt lat="43.55536" lon="6.66557">
        <ele>291.416748</ele>
        <time>2010-06-26T09:30:38Z</time>
      </trkpt>
      <trkpt lat="43.55484" lon="6.66588">
        <ele>290.9361572</ele>
        <time>2010-06-26T09:30:49Z</time>
      </trkpt>
      <trkpt lat="43.55465" lon="6.66625">
        <ele>288.532959</ele>
        <time>2010-06-26T09:30:57Z</time>
      </trkpt>
      <trkpt lat="43.5545" lon="6.66644">
        <ele>285.1682129</ele>
        <time>2010-06-26T09:31:02Z</time>
      </trkpt>
      <trkpt lat="43.5544" lon="6.6665">
        <ele>284.2069092</ele>
        <time>2010-06-26T09:31:04Z</time>
      </trkpt>
      <trkpt lat="43.5542" lon="6.66666">
        <ele>280.8424072</ele>
        <time>2010-06-26T09:31:08Z</time>
      </trkpt>
      <trkpt lat="43.55407" lon="6.6668">
        <ele>278.9196777</ele>
        <time>2010-06-26T09:31:11Z</time>
      </trkpt>
      <trkpt lat="43.55403" lon="6.66684">
        <ele>277.4776611</ele>
        <time>2010-06-26T09:31:12Z</time>
      </trkpt>
      <trkpt lat="43.55393" lon="6.667">
        <ele>276.9970703</ele>
        <time>2010-06-26T09:31:15Z</time>
      </trkpt>
      <trkpt lat="43.55387" lon="6.66712">
        <ele>275.0744629</ele>
        <time>2010-06-26T09:31:17Z</time>
      </trkpt>
      <trkpt lat="43.5538" lon="6.66726">
        <ele>273.6324463</ele>
        <time>2010-06-26T09:31:19Z</time>
      </trkpt>
      <trkpt lat="43.55361" lon="6.66757">
        <ele>272.6711426</ele>
        <time>2010-06-26T09:31:25Z</time>
      </trkpt>
      <trkpt lat="43.55346" lon="6.66769">
        <ele>271.7097168</ele>
        <time>2010-06-26T09:31:29Z</time>
      </trkpt>
      <trkpt lat="43.55321" lon="6.66769">
        <ele>269.7871094</ele>
        <time>2010-06-26T09:31:35Z</time>
      </trkpt>
      <trkpt lat="43.55308" lon="6.66761">
        <ele>268.8258057</ele>
        <time>2010-06-26T09:31:38Z</time>
      </trkpt>
      <trkpt lat="43.55293" lon="6.66754">
        <ele>267.3839111</ele>
        <time>2010-06-26T09:31:41Z</time>
      </trkpt>
      <trkpt lat="43.55268" lon="6.66761">
        <ele>265.9418945</ele>
        <time>2010-06-26T09:31:46Z</time>
      </trkpt>
      <trkpt lat="43.55255" lon="6.66774">
        <ele>266.9031982</ele>
        <time>2010-06-26T09:31:50Z</time>
      </trkpt>
      <trkpt lat="43.55231" lon="6.66789">
        <ele>265.4613037</ele>
        <time>2010-06-26T09:31:58Z</time>
      </trkpt>
      <trkpt lat="43.55212" lon="6.66841">
        <ele>263.0578613</ele>
        <time>2010-06-26T09:32:11Z</time>
      </trkpt>
      <trkpt lat="43.55205" lon="6.66852">
        <ele>263.0578613</ele>
        <time>2010-06-26T09:32:13Z</time>
      </trkpt>
      <trkpt lat="43.55199" lon="6.66863">
        <ele>261.6159668</ele>
        <time>2010-06-26T09:32:15Z</time>
      </trkpt>
      <trkpt lat="43.55181" lon="6.66891">
        <ele>259.6933594</ele>
        <time>2010-06-26T09:32:20Z</time>
      </trkpt>
      <trkpt lat="43.55145" lon="6.66948">
        <ele>263.5385742</ele>
        <time>2010-06-26T09:32:35Z</time>
      </trkpt>
      <trkpt lat="43.55122" lon="6.66982">
        <ele>264.9805908</ele>
        <time>2010-06-26T09:32:48Z</time>
      </trkpt>
      <trkpt lat="43.55094" lon="6.67015">
        <ele>266.9031982</ele>
        <time>2010-06-26T09:33:06Z</time>
      </trkpt>
      <trkpt lat="43.55069" lon="6.67016">
        <ele>270.2677002</ele>
        <time>2010-06-26T09:33:22Z</time>
      </trkpt>
      <trkpt lat="43.55034" lon="6.67007">
        <ele>269.7871094</ele>
        <time>2010-06-26T09:33:39Z</time>
      </trkpt>
      <trkpt lat="43.54971" lon="6.66991">
        <ele>267.3839111</ele>
        <time>2010-06-26T09:33:51Z</time>
      </trkpt>
      <trkpt lat="43.54962" lon="6.66988">
        <ele>266.9031982</ele>
        <time>2010-06-26T09:34:00Z</time>
      </trkpt>
      <trkpt lat="43.5496" lon="6.66989">
        <ele>267.864502</ele>
        <time>2010-06-26T09:34:17Z</time>
      </trkpt>
      <trkpt lat="43.5496" lon="6.66989">
        <ele>267.864502</ele>
        <time>2010-06-26T09:34:20Z</time>
      </trkpt>
      <trkpt lat="43.54954" lon="6.67015">
        <ele>267.864502</ele>
        <time>2010-06-26T09:34:32Z</time>
      </trkpt>
      <trkpt lat="43.54934" lon="6.67079">
        <ele>268.8258057</ele>
        <time>2010-06-26T09:34:50Z</time>
      </trkpt>
      <trkpt lat="43.54916" lon="6.6714">
        <ele>270.2677002</ele>
        <time>2010-06-26T09:35:07Z</time>
      </trkpt>
      <trkpt lat="43.54913" lon="6.67165">
        <ele>266.4224854</ele>
        <time>2010-06-26T09:35:13Z</time>
      </trkpt>
      <trkpt lat="43.54913" lon="6.67169">
        <ele>270.7484131</ele>
        <time>2010-06-26T09:35:14Z</time>
      </trkpt>
      <trkpt lat="43.54909" lon="6.67195">
        <ele>274.1130371</ele>
        <time>2010-06-26T09:35:21Z</time>
      </trkpt>
      <trkpt lat="43.54909" lon="6.67202">
        <ele>269.3065186</ele>
        <time>2010-06-26T09:35:23Z</time>
      </trkpt>
      <trkpt lat="43.54908" lon="6.67209">
        <ele>275.0744629</ele>
        <time>2010-06-26T09:35:25Z</time>
      </trkpt>
      <trkpt lat="43.54907" lon="6.67213">
        <ele>271.7097168</ele>
        <time>2010-06-26T09:35:26Z</time>
      </trkpt>
      <trkpt lat="43.54907" lon="6.6722">
        <ele>276.5163574</ele>
        <time>2010-06-26T09:35:28Z</time>
      </trkpt>
      <trkpt lat="43.54906" lon="6.67224">
        <ele>273.1518555</ele>
        <time>2010-06-26T09:35:29Z</time>
      </trkpt>
      <trkpt lat="43.54896" lon="6.67288">
        <ele>276.0356445</ele>
        <time>2010-06-26T09:35:46Z</time>
      </trkpt>
      <trkpt lat="43.54891" lon="6.67314">
        <ele>277.958252</ele>
        <time>2010-06-26T09:35:53Z</time>
      </trkpt>
      <trkpt lat="43.54885" lon="6.67357">
        <ele>278.9196777</ele>
        <time>2010-06-26T09:36:09Z</time>
      </trkpt>
      <trkpt lat="43.54884" lon="6.67358">
        <ele>275.5550537</ele>
        <time>2010-06-26T09:36:16Z</time>
      </trkpt>
      <trkpt lat="43.54884" lon="6.67359">
        <ele>278.9196777</ele>
        <time>2010-06-26T09:36:17Z</time>
      </trkpt>
      <trkpt lat="43.54884" lon="6.67359">
        <ele>275.5550537</ele>
        <time>2010-06-26T09:36:26Z</time>
      </trkpt>
      <trkpt lat="43.54884" lon="6.67359">
        <ele>278.9196777</ele>
        <time>2010-06-26T09:36:27Z</time>
      </trkpt>
      <trkpt lat="43.54883" lon="6.67359">
        <ele>275.0744629</ele>
        <time>2010-06-26T09:36:31Z</time>
      </trkpt>
      <trkpt lat="43.54883" lon="6.67359">
        <ele>278.4389648</ele>
        <time>2010-06-26T09:36:32Z</time>
      </trkpt>
      <trkpt lat="43.54882" lon="6.67365">
        <ele>278.4389648</ele>
        <time>2010-06-26T09:36:38Z</time>
      </trkpt>
      <trkpt lat="43.54877" lon="6.67392">
        <ele>276.9970703</ele>
        <time>2010-06-26T09:36:44Z</time>
      </trkpt>
      <trkpt lat="43.5486" lon="6.67468">
        <ele>273.6324463</ele>
        <time>2010-06-26T09:36:55Z</time>
      </trkpt>
      <trkpt lat="43.5485" lon="6.67505">
        <ele>270.7484131</ele>
        <time>2010-06-26T09:36:59Z</time>
      </trkpt>
      <trkpt lat="43.54835" lon="6.67561">
        <ele>269.7871094</ele>
        <time>2010-06-26T09:37:05Z</time>
      </trkpt>
      <trkpt lat="43.54805" lon="6.67628">
        <ele>271.229126</ele>
        <time>2010-06-26T09:37:17Z</time>
      </trkpt>
      <trkpt lat="43.54795" lon="6.67643">
        <ele>273.6324463</ele>
        <time>2010-06-26T09:37:21Z</time>
      </trkpt>
      <trkpt lat="43.54751" lon="6.67687">
        <ele>275.5550537</ele>
        <time>2010-06-26T09:37:38Z</time>
      </trkpt>
      <trkpt lat="43.54735" lon="6.67724">
        <ele>276.9970703</ele>
        <time>2010-06-26T09:37:52Z</time>
      </trkpt>
      <trkpt lat="43.54736" lon="6.67728">
        <ele>272.1904297</ele>
        <time>2010-06-26T09:37:53Z</time>
      </trkpt>
      <trkpt lat="43.54737" lon="6.67731">
        <ele>276.9970703</ele>
        <time>2010-06-26T09:37:54Z</time>
      </trkpt>
      <trkpt lat="43.54741" lon="6.67747">
        <ele>280.8424072</ele>
        <time>2010-06-26T09:37:59Z</time>
      </trkpt>
      <trkpt lat="43.54742" lon="6.6775">
        <ele>273.6324463</ele>
        <time>2010-06-26T09:38:00Z</time>
      </trkpt>
      <trkpt lat="43.54742" lon="6.67753">
        <ele>277.4776611</ele>
        <time>2010-06-26T09:38:01Z</time>
      </trkpt>
      <trkpt lat="43.54753" lon="6.67797">
        <ele>278.9196777</ele>
        <time>2010-06-26T09:38:15Z</time>
      </trkpt>
      <trkpt lat="43.54766" lon="6.67844">
        <ele>280.3616943</ele>
        <time>2010-06-26T09:38:31Z</time>
      </trkpt>
      <trkpt lat="43.54779" lon="6.67891">
        <ele>282.7650146</ele>
        <time>2010-06-26T09:38:50Z</time>
      </trkpt>
      <trkpt lat="43.54804" lon="6.67918">
        <ele>285.1682129</ele>
        <time>2010-06-26T09:39:07Z</time>
      </trkpt>
      <trkpt lat="43.54828" lon="6.67937">
        <ele>285.1682129</ele>
        <time>2010-06-26T09:39:22Z</time>
      </trkpt>
      <trkpt lat="43.54831" lon="6.67939">
        <ele>288.532959</ele>
        <time>2010-06-26T09:39:24Z</time>
      </trkpt>
      <trkpt lat="43.54835" lon="6.67942">
        <ele>292.3781738</ele>
        <time>2010-06-26T09:39:26Z</time>
      </trkpt>
      <trkpt lat="43.54836" lon="6.67943">
        <ele>285.6488037</ele>
        <time>2010-06-26T09:39:27Z</time>
      </trkpt>
      <trkpt lat="43.54839" lon="6.67946">
        <ele>290.4555664</ele>
        <time>2010-06-26T09:39:29Z</time>
      </trkpt>
      <trkpt lat="43.54841" lon="6.67947">
        <ele>289.0135498</ele>
        <time>2010-06-26T09:39:30Z</time>
      </trkpt>
      <trkpt lat="43.54863" lon="6.67978">
        <ele>290.9361572</ele>
        <time>2010-06-26T09:39:48Z</time>
      </trkpt>
      <trkpt lat="43.54877" lon="6.68001">
        <ele>294.3007813</ele>
        <time>2010-06-26T09:40:01Z</time>
      </trkpt>
      <trkpt lat="43.54898" lon="6.68021">
        <ele>296.2235107</ele>
        <time>2010-06-26T09:40:16Z</time>
      </trkpt>
      <trkpt lat="43.54907" lon="6.6806">
        <ele>296.2235107</ele>
        <time>2010-06-26T09:40:30Z</time>
      </trkpt>
      <trkpt lat="43.54903" lon="6.68114">
        <ele>296.7041016</ele>
        <time>2010-06-26T09:40:45Z</time>
      </trkpt>
      <trkpt lat="43.54901" lon="6.68175">
        <ele>297.1846924</ele>
        <time>2010-06-26T09:41:03Z</time>
      </trkpt>
      <trkpt lat="43.54899" lon="6.6822">
        <ele>298.626709</ele>
        <time>2010-06-26T09:41:18Z</time>
      </trkpt>
      <trkpt lat="43.54896" lon="6.68268">
        <ele>299.1072998</ele>
        <time>2010-06-26T09:41:33Z</time>
      </trkpt>
      <trkpt lat="43.54893" lon="6.6828">
        <ele>299.5880127</ele>
        <time>2010-06-26T09:41:47Z</time>
      </trkpt>
      <trkpt lat="43.54895" lon="6.68284">
        <ele>299.5880127</ele>
        <time>2010-06-26T09:43:28Z</time>
      </trkpt>
      <trkpt lat="43.54897" lon="6.68285">
        <ele>299.5880127</ele>
        <time>2010-06-26T09:44:49Z</time>
      </trkpt>
      <trkpt lat="43.54896" lon="6.68293">
        <ele>299.5880127</ele>
        <time>2010-06-26T09:44:56Z</time>
      </trkpt>
      <trkpt lat="43.54895" lon="6.68335">
        <ele>301.0299072</ele>
        <time>2010-06-26T09:45:14Z</time>
      </trkpt>
      <trkpt lat="43.54894" lon="6.68361">
        <ele>302.4719238</ele>
        <time>2010-06-26T09:45:24Z</time>
      </trkpt>
      <trkpt lat="43.54898" lon="6.68391">
        <ele>303.9139404</ele>
        <time>2010-06-26T09:45:37Z</time>
      </trkpt>
      <trkpt lat="43.54899" lon="6.6844">
        <ele>305.355957</ele>
        <time>2010-06-26T09:45:55Z</time>
      </trkpt>
      <trkpt lat="43.549" lon="6.68475">
        <ele>306.7978516</ele>
        <time>2010-06-26T09:46:08Z</time>
      </trkpt>
      <trkpt lat="43.54906" lon="6.68523">
        <ele>308.720459</ele>
        <time>2010-06-26T09:46:25Z</time>
      </trkpt>
      <trkpt lat="43.54912" lon="6.68558">
        <ele>311.6044922</ele>
        <time>2010-06-26T09:46:38Z</time>
      </trkpt>
      <trkpt lat="43.54922" lon="6.68598">
        <ele>314.0078125</ele>
        <time>2010-06-26T09:46:53Z</time>
      </trkpt>
      <trkpt lat="43.5493" lon="6.68642">
        <ele>314.9691162</ele>
        <time>2010-06-26T09:47:09Z</time>
      </trkpt>
      <trkpt lat="43.54933" lon="6.68691">
        <ele>315.9304199</ele>
        <time>2010-06-26T09:47:26Z</time>
      </trkpt>
      <trkpt lat="43.54941" lon="6.68752">
        <ele>318.3336182</ele>
        <time>2010-06-26T09:47:48Z</time>
      </trkpt>
      <trkpt lat="43.54939" lon="6.68799">
        <ele>319.7756348</ele>
        <time>2010-06-26T09:48:04Z</time>
      </trkpt>
      <trkpt lat="43.54927" lon="6.68851">
        <ele>320.7370605</ele>
        <time>2010-06-26T09:48:21Z</time>
      </trkpt>
      <trkpt lat="43.54919" lon="6.68903">
        <ele>317.8530273</ele>
        <time>2010-06-26T09:48:32Z</time>
      </trkpt>
      <trkpt lat="43.54913" lon="6.68988">
        <ele>318.3336182</ele>
        <time>2010-06-26T09:48:46Z</time>
      </trkpt>
      <trkpt lat="43.54909" lon="6.69037">
        <ele>324.1015625</ele>
        <time>2010-06-26T09:48:59Z</time>
      </trkpt>
      <trkpt lat="43.54909" lon="6.6904">
        <ele>317.8530273</ele>
        <time>2010-06-26T09:49:00Z</time>
      </trkpt>
      <trkpt lat="43.54909" lon="6.69043">
        <ele>321.6983643</ele>
        <time>2010-06-26T09:49:01Z</time>
      </trkpt>
      <trkpt lat="43.54909" lon="6.69046">
        <ele>324.5822754</ele>
        <time>2010-06-26T09:49:02Z</time>
      </trkpt>
      <trkpt lat="43.54909" lon="6.69049">
        <ele>321.2177734</ele>
        <time>2010-06-26T09:49:03Z</time>
      </trkpt>
      <trkpt lat="43.54908" lon="6.69052">
        <ele>317.8530273</ele>
        <time>2010-06-26T09:49:04Z</time>
      </trkpt>
      <trkpt lat="43.54908" lon="6.69055">
        <ele>321.6983643</ele>
        <time>2010-06-26T09:49:05Z</time>
      </trkpt>
      <trkpt lat="43.54908" lon="6.69067">
        <ele>325.0629883</ele>
        <time>2010-06-26T09:49:09Z</time>
      </trkpt>
      <trkpt lat="43.54908" lon="6.6907">
        <ele>321.6983643</ele>
        <time>2010-06-26T09:49:10Z</time>
      </trkpt>
      <trkpt lat="43.54908" lon="6.69079">
        <ele>326.5048828</ele>
        <time>2010-06-26T09:49:13Z</time>
      </trkpt>
      <trkpt lat="43.54908" lon="6.69082">
        <ele>323.1403809</ele>
        <time>2010-06-26T09:49:14Z</time>
      </trkpt>
      <trkpt lat="43.54907" lon="6.69118">
        <ele>326.5048828</ele>
        <time>2010-06-26T09:49:26Z</time>
      </trkpt>
      <trkpt lat="43.54911" lon="6.6917">
        <ele>328.4276123</ele>
        <time>2010-06-26T09:49:44Z</time>
      </trkpt>
      <trkpt lat="43.54911" lon="6.6921">
        <ele>330.3502197</ele>
        <time>2010-06-26T09:49:59Z</time>
      </trkpt>
      <trkpt lat="43.54911" lon="6.69233">
        <ele>332.75354</ele>
        <time>2010-06-26T09:50:08Z</time>
      </trkpt>
      <trkpt lat="43.54919" lon="6.69269">
        <ele>334.1954346</ele>
        <time>2010-06-26T09:50:22Z</time>
      </trkpt>
      <trkpt lat="43.54925" lon="6.6931">
        <ele>333.7147217</ele>
        <time>2010-06-26T09:50:38Z</time>
      </trkpt>
      <trkpt lat="43.54927" lon="6.69352">
        <ele>333.2341309</ele>
        <time>2010-06-26T09:50:52Z</time>
      </trkpt>
      <trkpt lat="43.54931" lon="6.69418">
        <ele>331.7921143</ele>
        <time>2010-06-26T09:51:06Z</time>
      </trkpt>
      <trkpt lat="43.54932" lon="6.69426">
        <ele>331.3115234</ele>
        <time>2010-06-26T09:51:07Z</time>
      </trkpt>
      <trkpt lat="43.5493" lon="6.69452">
        <ele>330.3502197</ele>
        <time>2010-06-26T09:51:11Z</time>
      </trkpt>
      <trkpt lat="43.54932" lon="6.69464">
        <ele>330.8309326</ele>
        <time>2010-06-26T09:51:14Z</time>
      </trkpt>
      <trkpt lat="43.54929" lon="6.69478">
        <ele>331.3115234</ele>
        <time>2010-06-26T09:51:18Z</time>
      </trkpt>
      <trkpt lat="43.54925" lon="6.69531">
        <ele>329.388916</ele>
        <time>2010-06-26T09:51:35Z</time>
      </trkpt>
      <trkpt lat="43.54925" lon="6.69536">
        <ele>332.75354</ele>
        <time>2010-06-26T09:51:37Z</time>
      </trkpt>
      <trkpt lat="43.54922" lon="6.69545">
        <ele>329.8695068</ele>
        <time>2010-06-26T09:51:40Z</time>
      </trkpt>
      <trkpt lat="43.54922" lon="6.69548">
        <ele>332.75354</ele>
        <time>2010-06-26T09:51:41Z</time>
      </trkpt>
      <trkpt lat="43.54916" lon="6.6958">
        <ele>334.1954346</ele>
        <time>2010-06-26T09:51:53Z</time>
      </trkpt>
      <trkpt lat="43.54916" lon="6.696">
        <ele>334.1954346</ele>
        <time>2010-06-26T09:52:01Z</time>
      </trkpt>
      <trkpt lat="43.54918" lon="6.69641">
        <ele>338.5214844</ele>
        <time>2010-06-26T09:52:16Z</time>
      </trkpt>
      <trkpt lat="43.54919" lon="6.69671">
        <ele>339.0020752</ele>
        <time>2010-06-26T09:52:29Z</time>
      </trkpt>
      <trkpt lat="43.54911" lon="6.69712">
        <ele>339.0020752</ele>
        <time>2010-06-26T09:52:45Z</time>
      </trkpt>
      <trkpt lat="43.54905" lon="6.69742">
        <ele>339.482666</ele>
        <time>2010-06-26T09:52:57Z</time>
      </trkpt>
      <trkpt lat="43.54897" lon="6.69773">
        <ele>341.8859863</ele>
        <time>2010-06-26T09:53:11Z</time>
      </trkpt>
      <trkpt lat="43.54891" lon="6.69788">
        <ele>345.2506104</ele>
        <time>2010-06-26T09:53:20Z</time>
      </trkpt>
      <trkpt lat="43.54885" lon="6.69815">
        <ele>348.1346436</ele>
        <time>2010-06-26T09:53:36Z</time>
      </trkpt>
      <trkpt lat="43.54883" lon="6.69822">
        <ele>350.057251</ele>
        <time>2010-06-26T09:53:40Z</time>
      </trkpt>
      <trkpt lat="43.5488" lon="6.69859">
        <ele>352.4605713</ele>
        <time>2010-06-26T09:53:57Z</time>
      </trkpt>
      <trkpt lat="43.54878" lon="6.69881">
        <ele>354.3831787</ele>
        <time>2010-06-26T09:54:08Z</time>
      </trkpt>
      <trkpt lat="43.54878" lon="6.69888">
        <ele>354.8637695</ele>
        <time>2010-06-26T09:54:12Z</time>
      </trkpt>
      <trkpt lat="43.54876" lon="6.69913">
        <ele>356.3057861</ele>
        <time>2010-06-26T09:54:29Z</time>
      </trkpt>
      <trkpt lat="43.54874" lon="6.69939">
        <ele>357.2670898</ele>
        <time>2010-06-26T09:54:45Z</time>
      </trkpt>
      <trkpt lat="43.54874" lon="6.69963">
        <ele>358.7089844</ele>
        <time>2010-06-26T09:54:59Z</time>
      </trkpt>
      <trkpt lat="43.54867" lon="6.70016">
        <ele>360.6317139</ele>
        <time>2010-06-26T09:55:18Z</time>
      </trkpt>
      <trkpt lat="43.54859" lon="6.70067">
        <ele>363.5157471</ele>
        <time>2010-06-26T09:55:37Z</time>
      </trkpt>
      <trkpt lat="43.54856" lon="6.7013">
        <ele>364.4769287</ele>
        <time>2010-06-26T09:55:54Z</time>
      </trkpt>
      <trkpt lat="43.54856" lon="6.70174">
        <ele>363.9963379</ele>
        <time>2010-06-26T09:56:05Z</time>
      </trkpt>
      <trkpt lat="43.54857" lon="6.70195">
        <ele>362.0737305</ele>
        <time>2010-06-26T09:56:09Z</time>
      </trkpt>
      <trkpt lat="43.54851" lon="6.70248">
        <ele>359.1896973</ele>
        <time>2010-06-26T09:56:19Z</time>
      </trkpt>
      <trkpt lat="43.54851" lon="6.70254">
        <ele>359.1896973</ele>
        <time>2010-06-26T09:56:20Z</time>
      </trkpt>
      <trkpt lat="43.54849" lon="6.70276">
        <ele>355.8251953</ele>
        <time>2010-06-26T09:56:24Z</time>
      </trkpt>
      <trkpt lat="43.54848" lon="6.70281">
        <ele>355.8251953</ele>
        <time>2010-06-26T09:56:25Z</time>
      </trkpt>
      <trkpt lat="43.54843" lon="6.70309">
        <ele>352.9411621</ele>
        <time>2010-06-26T09:56:31Z</time>
      </trkpt>
      <trkpt lat="43.54841" lon="6.70322">
        <ele>351.0184326</ele>
        <time>2010-06-26T09:56:35Z</time>
      </trkpt>
      <trkpt lat="43.5484" lon="6.70329">
        <ele>348.6152344</ele>
        <time>2010-06-26T09:56:37Z</time>
      </trkpt>
      <trkpt lat="43.54839" lon="6.70343">
        <ele>346.692627</ele>
        <time>2010-06-26T09:56:41Z</time>
      </trkpt>
      <trkpt lat="43.5484" lon="6.70356">
        <ele>344.2894287</ele>
        <time>2010-06-26T09:56:44Z</time>
      </trkpt>
      <trkpt lat="43.5484" lon="6.70365">
        <ele>343.3278809</ele>
        <time>2010-06-26T09:56:46Z</time>
      </trkpt>
      <trkpt lat="43.54839" lon="6.70369">
        <ele>340.9246826</ele>
        <time>2010-06-26T09:56:47Z</time>
      </trkpt>
      <trkpt lat="43.54838" lon="6.70382">
        <ele>339.482666</ele>
        <time>2010-06-26T09:56:50Z</time>
      </trkpt>
      <trkpt lat="43.54824" lon="6.70398">
        <ele>336.1181641</ele>
        <time>2010-06-26T09:56:56Z</time>
      </trkpt>
      <trkpt lat="43.54821" lon="6.70399">
        <ele>336.1181641</ele>
        <time>2010-06-26T09:56:57Z</time>
      </trkpt>
      <trkpt lat="43.54808" lon="6.70399">
        <ele>335.1567383</ele>
        <time>2010-06-26T09:57:00Z</time>
      </trkpt>
      <trkpt lat="43.54778" lon="6.7041">
        <ele>331.7921143</ele>
        <time>2010-06-26T09:57:06Z</time>
      </trkpt>
      <trkpt lat="43.54689" lon="6.70464">
        <ele>328.4276123</ele>
        <time>2010-06-26T09:57:21Z</time>
      </trkpt>
      <trkpt lat="43.54671" lon="6.70476">
        <ele>327.9467773</ele>
        <time>2010-06-26T09:57:24Z</time>
      </trkpt>
      <trkpt lat="43.54619" lon="6.70511">
        <ele>325.5435791</ele>
        <time>2010-06-26T09:57:33Z</time>
      </trkpt>
      <trkpt lat="43.54604" lon="6.70526">
        <ele>325.5435791</ele>
        <time>2010-06-26T09:57:36Z</time>
      </trkpt>
      <trkpt lat="43.54546" lon="6.7054">
        <ele>323.1403809</ele>
        <time>2010-06-26T09:57:45Z</time>
      </trkpt>
      <trkpt lat="43.5449" lon="6.70559">
        <ele>319.7756348</ele>
        <time>2010-06-26T09:57:53Z</time>
      </trkpt>
      <trkpt lat="43.5447" lon="6.70567">
        <ele>319.2950439</ele>
        <time>2010-06-26T09:57:56Z</time>
      </trkpt>
      <trkpt lat="43.54457" lon="6.70575">
        <ele>318.3336182</ele>
        <time>2010-06-26T09:57:58Z</time>
      </trkpt>
      <trkpt lat="43.54419" lon="6.70578">
        <ele>315.9304199</ele>
        <time>2010-06-26T09:58:03Z</time>
      </trkpt>
      <trkpt lat="43.54398" lon="6.70568">
        <ele>315.9304199</ele>
        <time>2010-06-26T09:58:06Z</time>
      </trkpt>
      <trkpt lat="43.54352" lon="6.70561">
        <ele>312.5657959</ele>
        <time>2010-06-26T09:58:12Z</time>
      </trkpt>
      <trkpt lat="43.54343" lon="6.7056">
        <ele>312.0852051</ele>
        <time>2010-06-26T09:58:13Z</time>
      </trkpt>
      <trkpt lat="43.543" lon="6.70557">
        <ele>309.2011719</ele>
        <time>2010-06-26T09:58:18Z</time>
      </trkpt>
      <trkpt lat="43.54283" lon="6.70556">
        <ele>308.720459</ele>
        <time>2010-06-26T09:58:20Z</time>
      </trkpt>
      <trkpt lat="43.54269" lon="6.70527">
        <ele>310.6430664</ele>
        <time>2010-06-26T09:58:26Z</time>
      </trkpt>
      <trkpt lat="43.5427" lon="6.70518">
        <ele>312.0852051</ele>
        <time>2010-06-26T09:58:28Z</time>
      </trkpt>
      <trkpt lat="43.54283" lon="6.70434">
        <ele>312.0852051</ele>
        <time>2010-06-26T09:58:45Z</time>
      </trkpt>
      <trkpt lat="43.54283" lon="6.70427">
        <ele>312.0852051</ele>
        <time>2010-06-26T09:58:46Z</time>
      </trkpt>
      <trkpt lat="43.54285" lon="6.70415">
        <ele>312.5657959</ele>
        <time>2010-06-26T09:58:48Z</time>
      </trkpt>
      <trkpt lat="43.54287" lon="6.70367">
        <ele>311.6044922</ele>
        <time>2010-06-26T09:58:56Z</time>
      </trkpt>
      <trkpt lat="43.5431" lon="6.70245">
        <ele>312.5657959</ele>
        <time>2010-06-26T09:59:17Z</time>
      </trkpt>
      <trkpt lat="43.54341" lon="6.70177">
        <ele>314.0078125</ele>
        <time>2010-06-26T09:59:31Z</time>
      </trkpt>
    </trkseg>
  </trk>
</gpx>